GFSMW_con_lsi_000.txt.gz
Lid_Strength_Index
3 2 2 1 2 2 3 3 3 3 3 4 4 4 4 4 3 3 3 3 3 3 4 4 5 4 5 5 5 5 6 6 5 6 7 7 6 5 3 0 0 0 0
3 3 2 2 2 2 3 3 3 3 3 4 4 4 4 4 4 3 3 3 3 4 4 4 5 5 5 5 5 5 6 6 6 7 8 9 8 6 5 4 1 1 0
4 4 3 3 2 3 3 3 4 4 3 4 4 4 4 4 5 5 5 4 4 3 4 4 4 5 5 5 5 6 6 7 6 6 7 9 10 8 7 6 5 4 2
4 4 3 3 3 3 2 3 3 4 4 3 5 5 6 7 6 5 5 5 4 4 4 4 4 4 4 5 5 5 5 6 7 6 5 6 7 9 9 7 7 6 6
4 4 4 4 3 3 3 3 3 3 3 3 4 5 5 5 5 5 5 5 4 4 4 4 4 4 4 4 5 5 5 5 6 6 7 7 7 7 8 9 8 7 6
5 4 4 4 4 3 3 2 3 3 3 3 4 4 6 5 6 5 6 5 5 5 4 4 5 4 4 5 5 5 5 5 5 6 6 7 8 8 8 9 8 8 7
5 5 5 4 4 4 3 2 3 4 3 3 3 4 5 5 5 5 6 6 6 6 6 5 5 5 5 5 5 5 6 6 6 6 7 6 6 6 7 8 9 9 7
4 4 4 3 3 3 3 3 3 4 3 4 4 4 4 5 5 5 6 6 6 6 5 5 5 5 5 5 5 5 5 6 6 6 6 6 6 6 6 7 8 9 9
4 4 4 4 3 3 3 3 3 3 3 3 3 4 4 5 6 5 6 6 6 6 5 5 5 5 5 5 5 6 6 6 6 6 6 6 6 5 5 6 6 8 10
4 4 4 4 3 3 3 3 3 4 4 4 5 5 6 6 6 6 6 6 6 6 5 5 5 5 6 6 6 7 7 7 6 6 6 6 6 6 5 5 5 5 7
4 4 4 3 4 3 4 4 4 5 5 5 6 6 6 5 6 6 6 6 6 6 5 5 6 6 6 7 7 7 7 7 7 7 7 7 6 6 6 5 5 5 5
4 4 4 4 4 4 4 4 5 5 6 6 7 7 7 6 7 7 6 6 6 5 5 6 6 6 7 7 7 8 7 8 8 7 7 6 5 6 5 5 6 6 5
5 5 4 4 4 4 4 4 5 6 6 7 8 7 7 7 7 6 6 6 6 6 6 6 7 7 7 7 7 7 7 7 7 7 7 6 6 6 6 6 6 6 5
5 5 5 5 4 4 4 5 6 6 7 7 8 7 7 6 6 6 6 6 6 6 7 7 7 7 7 7 6 6 7 7 7 6 6 6 6 6 6 6 6 5 6
5 5 5 5 5 5 4 5 6 6 6 7 7 6 5 5 6 6 6 6 6 7 7 7 7 7 6 6 7 7 7 7 7 6 6 6 5 4 5 5 6 6 6
6 5 5 5 5 4 4 6 6 6 6 7 5 5 5 5 6 6 6 6 7 7 7 7 7 7 6 6 5 6 7 7 7 7 7 7 6 6 6 6 6 6 8
6 5 6 5 5 5 6 7 6 5 5 5 5 6 5 6 6 6 6 7 8 7 8 7 7 7 7 5 5 5 7 7 8 8 9 8 8 7 8 7 7 7 7
6 5 5 5 5 6 7 6 5 5 5 6 5 5 6 6 6 7 7 8 8 8 8 8 7 7 6 5 5 6 8 9 9 9 9 9 9 8 8 8 8 8 7
5 5 5 5 6 6 6 6 6 5 5 6 6 6 7 7 7 8 9 8 8 8 8 7 7 7 7 5 6 7 8 9 9 9 8 9 9 8 8 9 9 9 9
5 5 5 6 6 7 6 6 5 5 7 6 7 7 7 7 8 9 9 8 8 8 8 7 6 6 8 7 7 7 8 9 9 8 8 8 8 8 8 9 9 10 9
6 5 6 7 6 5 5 6 6 7 7 7 7 7 7 8 8 8 8 8 9 8 8 9 8 7 8 8 7 7 9 9 10 10 10 9 8 8 8 7 9 9 8
6 6 6 6 5 5 5 6 8 8 7 7 7 7 8 8 7 8 9 8 9 9 9 9 9 9 9 8 9 9 9 9 10 10 9 9 8 8 8 8 8 8 8
7 6 6 5 5 5 6 7 8 7 7 7 8 8 8 7 8 9 9 9 9 9 9 9 10 11 10 10 9 9 9 9 10 10 9 8 8 8 8 8 8 9 9
7 5 5 6 6 6 7 7 7 7 7 8 8 8 8 8 8 8 8 9 9 9 9 10 11 11 11 11 10 10 10 9 10 10 10 10 9 9 9 9 8 8 8
6 5 5 5 6 7 7 7 7 7 8 9 9 8 8 9 9 8 8 8 8 9 10 11 11 11 12 11 9 9 9 10 10 10 10 10 10 10 10 10 8 9 9
5 5 5 6 7 7 7 7 7 8 9 9 8 9 9 9 8 9 8 6 7 7 7 8 9 10 10 9 8 8 8 8 9 10 12 12 12 11 11 11 9 9 9

GFSMW_con_lsi_003.txt.gz
Lid_Strength_Index
6 5 5 6 6 6 6 6 7 6 6 7 7 8 8 7 6 6 5 5 5 5 6 6 6 6 7 7 7 7 8 8 7 8 8 8 7 7 6 5 2 0 -0
6 5 5 6 6 6 6 7 7 7 7 7 7 7 8 7 7 6 6 5 5 5 6 6 7 7 7 7 7 7 8 7 7 8 9 10 9 8 7 6 5 4 1
7 7 6 6 6 7 6 6 7 7 7 7 7 7 7 7 8 7 7 6 6 5 6 6 7 7 7 7 7 7 7 8 7 7 8 9 11 9 8 7 7 6 5
7 7 7 8 7 6 6 6 6 6 6 6 8 8 8 8 8 8 7 7 6 5 5 5 6 6 6 6 6 5 6 6 8 7 5 7 7 9 9 8 7 6 6
8 7 8 7 7 6 6 6 5 5 5 6 7 7 8 7 7 7 7 7 6 5 5 6 6 6 6 6 6 6 6 5 5 6 6 6 6 7 8 9 8 7 6
8 7 7 6 6 6 6 6 6 5 5 5 6 6 7 7 7 7 7 7 7 7 7 7 7 7 7 6 6 6 6 6 6 5 5 6 7 7 8 9 8 9 8
8 7 8 7 6 6 5 6 5 5 5 5 5 6 6 6 7 7 8 8 8 7 7 6 6 6 6 6 5 5 6 6 6 6 6 5 6 6 7 8 9 10 9
7 7 7 6 6 6 5 5 5 5 5 5 5 5 5 5 6 6 7 9 8 7 6 6 6 6 5 5 5 5 6 6 6 7 6 6 5 5 6 7 8 10 10
6 7 6 6 6 6 5 6 6 5 5 6 6 7 7 7 8 9 9 8 7 6 6 7 6 6 6 5 6 6 6 6 6 6 6 6 6 6 6 6 7 8 11
7 6 6 6 5 5 6 6 6 6 7 8 8 8 9 9 8 8 8 7 7 7 7 6 6 6 5 5 6 6 6 7 7 6 7 7 6 6 6 6 6 6 8
7 7 6 5 6 6 6 6 6 6 8 8 9 9 9 9 9 8 8 7 7 7 6 6 6 6 6 6 6 7 7 7 8 8 8 8 7 7 7 6 6 7 7
7 6 6 6 6 6 6 5 5 7 9 9 10 10 10 10 10 9 7 7 7 6 6 6 6 6 6 6 7 8 8 8 8 8 8 8 6 8 7 7 7 7 7
6 6 6 5 5 6 5 5 6 8 9 10 10 10 10 10 10 8 8 7 7 7 6 6 6 6 7 7 8 8 8 8 8 7 8 7 8 8 8 8 8 7 6
6 6 6 6 6 6 5 6 8 8 8 9 10 10 10 10 8 8 8 7 7 7 7 7 7 7 7 7 7 7 7 8 8 8 8 8 8 9 9 8 9 8 8
6 6 6 6 6 5 5 7 8 7 7 8 9 9 8 7 7 7 8 7 7 7 7 7 8 8 7 7 8 8 9 9 9 8 8 7 6 4 5 6 7 7 8
6 6 5 5 5 5 7 7 7 6 6 6 6 6 5 6 6 7 6 7 7 8 8 9 8 8 7 6 6 7 9 9 9 8 8 7 6 6 6 6 6 6 8
6 6 6 6 5 6 7 8 7 6 6 6 5 5 5 5 5 5 7 8 9 10 10 9 9 9 9 6 6 6 8 8 8 9 9 9 8 7 8 8 7 7 7
6 6 6 6 7 8 7 7 6 5 6 5 5 4 5 5 7 7 8 9 10 10 10 10 9 9 8 6 6 6 8 9 10 10 10 10 10 9 9 9 10 9 9
6 6 6 7 8 7 7 6 7 5 5 5 5 7 7 8 8 9 10 11 11 11 10 9 9 10 9 6 6 7 9 10 10 9 9 9 10 9 8 9 10 10 10
5 6 6 7 8 7 6 6 6 5 8 8 7 7 7 8 9 10 11 11 11 10 10 9 9 8 10 7 7 8 9 10 10 10 9 9 9 8 8 9 9 10 10
6 7 7 6 6 6 6 8 10 9 7 7 7 7 7 9 9 11 11 11 11 10 14 14 11 10 10 9 8 8 10 11 11 11 11 10 9 8 8 8 9 9 8
7 7 7 7 6 6 7 10 9 7 7 7 7 8 8 9 9 11 11 11 11 13 14 15 13 11 12 9 9 9 9 10 11 11 10 10 9 9 8 8 8 8 8
8 7 7 6 5 7 8 8 8 7 7 8 9 9 9 9 10 11 11 11 12 14 15 12 12 11 10 10 9 10 10 9 10 9 9 8 8 8 8 8 8 9 9
8 7 7 6 7 7 7 7 7 7 8 9 9 9 10 10 11 10 10 11 14 15 12 12 11 11 11 12 11 10 9 9 9 10 10 10 9 10 9 10 9 9 9
8 7 7 6 7 7 8 7 8 8 9 9 10 10 10 10 10 10 10 11 12 12 10 10 10 12 13 12 9 9 9 9 10 11 12 12 12 12 11 11 11 10 11
7 6 5 7 7 8 8 8 8 9 10 10 10 11 12 12 10 10 10 8 7 6 7 7 9 10 10 9 8 8 8 8 9 12 14 14 14 14 13 13 12 11 10

GFSMW_con_lsi_006.txt.gz
Lid_Strength_Index
7 7 7 7 7 7 7 7 7 7 7 8 8 8 8 8 7 7 4 5 5 5 7 7 6 6 7 7 8 8 8 9 9 9 9 9 9 8 7 7 6 4 1
8 7 7 8 8 8 8 7 7 7 7 8 8 8 8 8 7 7 7 5 5 6 6 7 7 7 7 8 8 8 8 9 8 9 10 11 9 8 7 7 7 7 5
8 7 7 8 8 8 7 7 7 7 7 7 8 8 8 8 8 8 8 6 5 5 6 7 7 8 8 8 8 8 8 9 8 8 9 11 12 8 7 7 7 7 7
8 8 8 8 7 7 7 7 6 6 6 7 8 8 7 8 7 6 8 7 5 6 6 6 7 7 7 7 7 7 8 7 8 7 6 7 8 10 10 7 6 6 6
8 8 8 8 7 7 7 7 7 6 6 6 7 7 8 7 7 8 8 8 7 6 5 6 6 7 7 7 8 8 9 7 8 8 8 8 8 8 9 11 9 7 6
9 8 8 8 7 6 6 6 6 6 5 6 6 7 7 7 7 7 7 7 8 8 7 7 7 7 8 8 8 7 8 8 7 8 7 8 9 9 9 9 9 9 8
8 9 8 7 7 7 6 6 6 5 4 5 5 5 6 6 6 6 6 7 8 9 8 8 7 7 7 7 7 6 6 6 7 8 8 7 7 6 7 8 8 9 7
8 8 7 7 7 6 6 6 5 6 5 6 5 6 6 6 6 7 7 8 8 8 8 8 7 7 6 6 5 5 5 5 7 7 7 7 6 6 6 7 8 9 9
8 7 7 6 7 7 6 6 6 5 5 6 7 8 8 8 9 10 9 9 8 7 8 7 6 5 5 5 5 6 6 6 6 6 7 6 6 6 6 6 7 9 11
8 7 7 6 6 6 6 5 5 5 6 8 8 9 10 10 9 9 10 9 8 7 6 5 5 4 5 6 6 6 6 7 7 7 7 7 6 6 6 6 7 8 9
8 7 6 5 5 5 5 5 6 6 8 9 9 9 10 10 10 10 9 9 8 7 6 6 6 6 6 6 6 7 7 7 8 8 8 8 7 8 8 8 8 8 9
7 7 6 6 6 6 6 6 6 8 8 8 9 9 10 10 10 10 9 8 8 7 7 7 6 6 6 6 7 8 8 9 9 9 9 9 8 9 9 9 9 9 9
7 6 6 6 6 6 6 6 6 8 8 8 9 10 10 10 10 10 9 8 7 7 7 7 7 6 6 7 7 8 8 9 9 8 8 8 8 9 9 9 10 9 8
7 6 7 7 6 6 6 6 8 7 7 8 10 10 10 10 10 9 8 7 7 7 7 6 6 6 7 8 8 8 9 9 9 9 9 9 9 10 10 10 10 10 10
7 6 7 7 6 6 6 7 7 7 7 8 9 9 8 8 8 8 7 6 6 6 7 7 8 8 8 8 8 9 10 10 10 9 9 8 8 6 6 7 8 9 10
7 6 6 6 6 6 6 6 6 6 6 6 5 5 6 5 5 5 5 5 6 7 8 9 9 10 8 7 7 8 10 10 10 10 8 8 7 7 6 6 6 6 9
7 6 6 6 6 7 6 7 6 6 5 5 5 5 4 4 4 4 5 7 8 9 10 10 10 10 10 7 7 7 9 9 9 9 9 9 8 8 9 8 7 7 7
6 6 6 6 7 7 7 6 6 6 5 5 5 5 4 5 7 7 8 10 10 11 11 11 10 10 9 7 8 7 9 9 9 9 10 10 10 9 9 10 10 10 9
5 5 6 7 7 8 7 7 7 6 7 8 8 7 7 8 8 9 10 11 11 12 12 10 10 10 10 8 8 8 10 10 10 9 9 9 10 9 8 9 10 10 10
6 7 7 7 8 8 7 10 11 10 10 7 7 6 7 8 9 10 10 11 12 11 11 10 10 9 11 9 8 8 9 11 11 11 10 9 10 9 9 10 10 11 10
8 7 7 8 8 7 7 10 10 10 7 6 7 7 7 8 9 10 11 12 12 12 14 15 13 12 11 11 8 8 10 11 11 11 11 11 9 9 8 9 9 9 9
7 7 7 7 6 8 9 10 10 7 6 7 7 8 8 8 9 11 11 11 12 14 14 16 15 13 13 10 8 8 9 9 11 11 11 10 9 8 8 8 8 8 8
8 8 7 7 7 9 9 9 8 7 8 8 9 9 9 9 10 11 11 11 12 14 15 13 14 12 11 10 8 9 10 9 10 10 10 9 9 9 9 9 8 9 9
9 8 7 7 8 9 9 8 7 8 9 9 9 9 10 10 11 10 10 11 14 15 12 13 12 11 11 11 11 10 10 8 9 11 12 12 11 12 12 11 10 10 9
8 7 6 7 8 8 8 7 8 8 9 9 9 10 10 11 10 9 10 10 11 12 12 12 9 11 12 11 9 9 9 9 10 11 14 14 14 13 12 12 12 11 10
6 6 6 7 7 7 8 8 8 8 9 9 9 11 11 12 10 10 9 6 6 6 6 6 8 9 9 8 9 8 8 9 9 12 15 15 15 14 13 14 13 12 12

GFSMW_con_lsi_009.txt.gz
Lid_Strength_Index
8 8 8 8 8 8 7 8 8 8 7 8 8 8 8 8 7 7 5 4 4 5 6 6 6 7 7 8 8 8 9 9 9 10 10 10 9 9 9 8 8 7 6
8 8 8 9 8 8 8 7 7 7 8 8 8 8 8 8 7 7 6 5 4 4 5 6 6 6 7 8 8 8 9 9 9 10 11 12 10 10 8 8 8 7 7
9 8 8 9 9 8 8 8 7 8 8 8 8 8 8 8 8 8 8 6 4 4 5 6 6 6 6 7 8 8 8 9 9 9 9 12 12 10 9 9 8 8 7
9 8 8 8 8 8 8 8 7 7 7 7 8 8 8 8 7 7 7 6 6 5 4 5 6 6 7 8 8 8 8 9 10 9 7 8 9 12 13 9 9 9 8
9 8 8 8 9 8 8 7 7 6 6 6 6 7 7 7 6 6 8 7 7 5 5 4 5 6 6 7 8 9 10 9 9 10 10 10 10 9 11 13 11 9 9
9 9 8 8 7 7 7 7 7 6 6 6 6 6 7 7 7 7 7 6 7 7 6 6 6 7 7 7 8 8 8 8 8 8 8 8 9 10 11 11 11 10 8
9 9 9 8 7 8 8 7 7 7 6 6 6 6 6 7 7 7 6 7 9 9 9 8 8 8 8 7 6 7 6 6 6 7 6 7 7 7 8 9 9 10 9
8 8 8 8 8 8 7 7 7 6 6 6 7 7 7 7 7 7 7 8 9 9 8 8 7 6 6 5 5 5 5 6 6 6 7 7 7 7 7 8 9 10 9
8 8 8 7 7 7 7 7 6 6 6 7 8 8 9 8 8 9 9 9 9 8 8 7 6 5 5 5 5 6 6 6 6 7 7 8 8 7 7 6 7 9 11
8 8 7 7 6 6 6 6 6 6 7 9 8 8 9 9 9 9 9 9 8 7 6 6 6 5 5 5 5 6 6 7 7 7 8 8 7 7 7 7 7 7 9
8 8 7 7 6 6 6 6 6 7 8 9 9 8 9 9 9 9 9 8 7 6 6 6 6 6 6 6 7 7 7 8 8 8 8 8 8 8 8 8 8 8 8
8 7 7 6 7 7 6 6 7 8 8 8 8 8 8 9 10 9 8 7 7 6 7 7 7 6 6 7 7 8 8 9 9 9 9 9 8 9 9 9 10 10 10
7 6 6 6 6 6 7 7 7 9 8 7 7 8 9 10 9 8 7 6 6 6 6 6 7 6 7 7 8 8 8 9 9 9 9 9 9 9 9 9 10 10 9
6 6 6 6 6 6 6 7 7 7 7 7 7 9 10 10 9 9 8 6 6 6 6 6 6 6 7 8 8 9 10 10 10 9 9 10 10 10 10 10 10 10 10
6 6 6 6 6 7 6 6 7 6 6 7 8 9 8 7 8 6 5 4 4 4 6 7 8 8 9 8 9 10 10 10 10 9 9 9 9 7 8 8 9 9 10
6 6 6 6 6 6 6 7 7 7 6 6 5 5 5 4 4 4 3 4 5 6 7 9 9 10 9 7 7 8 9 9 10 10 10 10 8 8 7 7 7 7 9
6 6 6 6 6 6 7 8 7 6 6 5 5 5 5 4 4 3 4 7 8 9 9 9 10 10 10 8 7 7 9 10 10 10 10 9 8 8 9 8 8 8 7
6 6 5 6 6 7 7 8 7 7 6 7 8 7 7 7 7 8 9 9 10 10 11 11 10 10 10 8 8 8 10 11 10 9 9 10 10 9 9 10 10 10 9
6 6 7 7 7 8 9 10 10 10 9 8 8 7 7 7 8 9 10 10 11 11 11 10 10 11 10 9 8 9 12 11 11 9 9 10 10 9 8 10 11 10 10
5 7 7 7 9 8 10 9 9 8 9 7 7 7 7 8 9 10 10 10 11 11 10 11 11 10 12 10 9 9 11 10 10 10 10 10 10 9 9 10 10 11 10
7 7 8 8 8 8 10 10 9 8 7 7 7 7 7 8 9 10 10 11 11 11 15 15 13 12 11 11 9 8 9 10 11 11 11 10 9 9 9 8 9 9 9
8 8 8 8 7 9 10 10 9 8 8 7 8 8 8 9 9 10 11 11 11 13 14 17 15 13 13 10 9 8 8 9 10 11 10 10 10 9 9 9 8 8 8
9 9 9 7 6 8 9 8 8 7 8 8 9 9 8 9 10 10 11 11 12 13 14 12 12 11 10 11 9 9 8 8 10 9 10 10 10 10 11 10 9 10 10
9 9 8 7 8 8 8 7 7 7 8 9 9 9 10 10 10 9 9 10 12 13 10 11 11 10 11 11 10 8 9 9 9 10 12 12 11 12 12 11 11 11 11
9 8 7 8 8 7 8 7 7 8 8 8 9 9 9 10 9 9 9 8 9 10 10 11 9 10 10 10 7 8 9 9 9 11 13 13 14 14 14 13 13 12 12
7 7 7 7 7 7 8 8 8 8 9 8 9 11 11 11 9 9 8 6 6 5 6 6 7 7 7 7 8 8 8 9 10 11 14 15 16 16 15 15 15 14 13

GFSMW_con_lsi_012.txt.gz
Lid_Strength_Index
9 9 9 8 8 7 7 8 7 7 7 8 8 8 8 8 7 7 6 5 4 4 4 5 5 5 6 7 7 8 8 9 9 9 10 9 9 9 9 8 8 7 7
9 8 9 9 8 8 8 8 8 8 8 8 9 9 9 9 8 8 7 6 5 4 4 5 5 6 6 7 7 8 9 8 9 9 10 11 10 10 8 8 8 8 7
9 9 8 9 9 9 8 8 8 8 8 8 8 8 8 8 8 7 8 7 6 5 4 4 5 6 5 6 6 7 8 8 9 8 9 12 12 11 9 9 9 8 9
9 9 8 9 9 9 9 8 8 8 7 7 8 8 9 8 7 7 7 6 6 6 5 4 4 5 6 6 7 7 7 8 9 9 7 9 9 13 13 10 8 9 8
10 10 10 9 8 8 8 8 7 7 6 7 7 7 7 6 6 6 7 6 6 7 6 5 5 6 6 6 6 8 8 8 8 9 9 10 9 9 11 13 11 9 8
10 8 9 8 8 8 8 8 7 7 6 6 6 7 8 8 7 7 7 7 7 7 7 6 7 8 8 8 8 7 7 7 7 7 8 8 10 10 10 11 11 11 8
10 9 9 8 8 8 8 7 7 7 6 5 7 8 8 8 8 8 7 7 8 9 9 8 7 7 7 6 6 6 6 6 6 6 7 6 7 7 8 9 10 11 10
9 9 8 9 8 8 7 7 7 6 6 7 8 8 8 8 8 8 8 8 9 9 7 7 6 6 6 6 5 5 5 6 7 7 7 7 6 6 7 7 8 10 10
9 8 8 8 8 7 7 7 7 7 7 7 9 8 8 9 9 9 9 9 9 7 7 6 6 6 5 5 5 5 6 6 6 6 6 7 7 7 6 7 7 9 11
8 8 7 7 6 7 7 7 7 7 6 9 9 8 9 8 9 9 9 9 8 6 6 6 6 6 6 5 4 5 5 6 6 6 6 7 7 7 7 7 7 8 9
8 8 7 7 6 6 6 6 6 7 6 9 9 9 8 8 9 9 9 8 7 6 6 6 6 6 6 5 6 6 6 7 7 7 8 8 8 9 8 8 8 8 9
8 7 7 6 7 7 6 6 7 7 7 8 8 8 8 9 10 10 9 8 7 7 7 6 6 6 6 6 6 7 7 8 8 8 9 9 8 9 8 9 9 9 9
7 7 7 7 7 6 6 6 6 7 7 7 8 8 9 11 11 10 8 7 7 6 6 6 5 5 5 6 7 8 8 8 9 9 9 10 10 10 10 10 10 10 9
8 7 7 6 6 6 6 6 6 7 7 7 8 9 10 10 10 9 7 6 5 5 4 5 5 6 7 7 7 8 9 9 9 9 10 10 10 11 11 10 10 10 10
7 7 7 6 6 5 5 6 6 7 7 7 8 9 8 8 7 6 6 5 4 4 5 6 7 7 8 8 8 8 9 10 10 10 9 9 9 8 8 9 10 10 10
8 7 7 7 6 5 6 6 6 7 7 7 7 5 5 5 5 4 4 4 3 3 6 8 9 9 8 7 7 7 9 9 9 10 10 10 8 9 8 8 8 8 9
7 8 7 6 5 6 6 7 7 7 7 8 7 6 5 6 6 5 5 7 8 9 9 10 9 9 9 8 8 8 9 10 10 10 10 10 9 9 9 8 8 8 8
7 7 6 6 6 7 8 8 10 9 9 9 8 7 7 6 7 8 9 9 9 9 10 10 9 10 10 8 8 8 10 10 10 10 10 10 10 9 9 9 9 9 9
7 7 6 7 8 8 10 11 11 11 9 9 8 8 8 8 8 9 9 9 10 10 10 9 10 10 10 9 8 9 11 12 11 10 10 10 9 8 8 10 10 10 10
6 7 7 8 8 8 10 9 9 10 10 9 9 8 8 9 10 10 10 10 10 10 9 10 10 10 11 9 8 9 10 11 10 10 9 8 9 9 9 10 10 10 9
7 7 8 9 8 7 8 10 10 10 8 8 7 8 8 9 10 10 10 10 10 10 13 14 13 11 10 10 8 8 9 10 10 10 10 9 9 9 9 9 10 10 9
7 7 8 8 7 6 9 10 11 8 7 7 9 9 9 9 9 10 10 10 11 12 13 14 13 11 11 8 8 8 8 8 9 10 9 10 10 10 9 10 9 9 9
8 8 9 8 7 7 8 7 6 6 7 8 9 9 9 9 9 10 10 10 10 12 12 10 10 9 8 9 7 8 7 7 9 9 8 10 11 11 11 10 10 11 11
8 8 8 7 7 6 6 7 7 7 9 9 9 9 9 9 10 9 9 9 11 12 10 10 10 9 9 9 9 7 8 8 8 9 10 11 11 13 13 12 12 12 11
8 8 7 7 6 6 6 7 7 8 9 9 9 9 9 10 9 8 8 8 9 10 9 11 11 10 10 9 7 7 9 9 9 10 11 13 14 14 14 14 14 13 13
8 7 6 6 6 7 7 8 8 8 9 8 9 11 12 11 10 9 8 6 6 6 6 6 9 8 8 7 7 8 8 9 10 11 13 15 15 16 15 15 15 15 15

GFSMW_con_lsi_015.txt.gz
Lid_Strength_Index
5 5 5 4 4 2 2 1 2 2 2 3 3 3 3 3 3 3 3 2 2 2 1 1 0 0 1 1 1 1 2 3 3 4 4 4 3 3 3 3 4 4 3
6 6 5 4 4 3 3 4 4 4 4 4 4 4 4 4 4 3 3 2 2 2 2 1 1 1 1 1 1 2 2 3 2 4 4 6 4 4 3 3 4 4 3
5 5 5 5 4 5 5 5 5 4 4 4 4 3 3 3 3 3 3 2 2 2 2 2 1 1 1 1 0 1 2 2 2 2 3 5 6 4 4 4 4 4 5
6 5 5 5 5 5 4 4 3 3 4 3 4 4 5 5 4 3 3 3 2 2 2 2 2 1 1 1 1 1 1 2 2 3 3 3 4 5 6 5 5 5 6
6 6 6 5 5 4 4 4 3 4 4 4 4 4 4 4 4 4 4 3 3 2 2 3 2 2 1 1 2 1 2 2 2 3 4 4 4 4 6 7 6 6 6
6 6 5 5 5 4 4 3 3 3 3 3 4 4 4 4 5 4 4 4 4 4 4 4 4 3 3 3 3 3 3 4 4 3 4 4 6 6 6 8 8 8 5
6 6 5 5 5 4 4 4 3 4 3 3 4 4 4 4 4 4 4 5 5 5 6 5 4 3 3 3 3 4 5 6 7 7 7 7 8 8 7 8 8 8 6
6 6 6 5 4 4 4 3 4 4 3 4 4 5 4 4 4 4 4 5 6 6 5 4 3 3 2 2 3 5 5 6 6 7 6 6 6 7 7 7 8 9 8
6 5 5 4 4 4 4 4 4 4 4 3 4 4 4 4 4 4 5 5 5 5 4 3 3 3 4 4 4 4 6 6 6 5 5 5 6 5 5 6 6 8 10
5 5 4 4 4 4 4 4 3 4 4 3 5 5 4 4 4 5 6 6 5 4 3 3 4 4 4 3 3 3 3 3 3 3 4 4 5 4 5 5 5 6 8
5 5 5 4 4 4 3 3 3 4 4 4 5 4 4 5 6 6 6 5 4 4 5 5 5 4 4 3 3 3 3 3 3 3 4 4 4 5 5 5 6 6 7
5 5 4 4 4 4 4 4 3 3 4 4 4 4 5 7 7 6 6 5 6 5 4 4 4 4 3 3 3 4 4 4 5 5 5 5 5 5 5 6 6 6 6
5 5 5 5 4 4 4 4 3 4 4 4 4 5 7 7 7 6 5 5 4 3 3 3 3 4 4 5 5 5 5 5 5 5 6 6 6 7 7 7 7 7 7
5 5 5 5 5 5 5 4 4 4 4 4 5 6 6 7 5 5 4 4 3 3 2 2 3 4 5 5 5 5 5 5 6 6 6 7 7 8 8 8 8 8 8
6 6 7 7 6 5 5 5 4 5 4 4 5 5 5 5 5 4 4 3 3 2 1 3 5 5 6 6 5 6 6 6 6 6 7 7 7 8 8 8 8 8 8
7 7 7 7 6 5 6 5 5 5 5 5 6 6 6 5 5 4 3 2 3 5 5 6 6 6 7 7 7 7 7 7 8 8 8 8 8 8 8 8 8 8 9
8 8 8 6 5 6 6 5 6 5 6 6 7 6 5 5 5 5 5 5 6 6 6 6 6 6 6 7 7 8 8 8 8 8 8 8 8 7 7 8 8 8 8
9 8 7 6 6 6 5 6 6 6 7 7 5 5 5 6 5 5 6 6 6 6 7 6 6 7 7 8 8 8 7 7 7 8 8 8 8 8 9 9 8 8 7
7 7 5 6 7 5 5 7 7 7 7 7 6 6 6 6 6 6 7 7 7 6 6 6 7 7 7 7 8 7 7 8 8 8 8 8 8 8 8 8 8 8 8
7 6 6 7 6 4 4 5 6 6 7 6 5 5 5 6 7 7 7 6 6 7 6 7 6 6 6 7 7 7 7 8 8 7 7 8 8 8 8 8 9 10 9
7 6 7 7 5 4 4 5 6 7 5 5 5 6 6 6 6 7 6 7 7 6 7 7 6 6 6 6 6 6 6 7 7 7 7 7 8 8 9 10 9 9 9
6 5 6 5 4 3 4 6 5 4 3 5 6 6 6 6 7 6 6 6 6 6 6 6 5 5 5 6 6 6 6 6 6 7 7 6 9 10 10 10 10 10 9
5 5 5 5 4 3 3 5 3 3 3 5 6 6 6 6 6 6 6 6 6 6 6 6 6 6 6 6 6 6 6 6 6 6 7 9 10 11 10 11 11 10 10
5 4 5 4 4 3 3 3 3 4 5 6 6 6 6 6 6 6 6 6 6 6 6 7 7 7 7 7 6 6 5 6 7 8 8 10 11 11 11 10 11 10 10
5 5 5 4 4 3 3 3 5 5 6 6 6 6 6 6 6 6 6 5 5 6 6 7 7 8 9 8 7 7 7 8 8 8 9 11 12 12 11 11 11 11 11
5 5 5 5 5 5 5 5 5 5 6 7 6 6 6 6 7 7 6 5 6 6 7 7 8 8 8 8 8 8 8 9 10 10 12 12 13 13 12 13 13 12 12

GFSMW_con_lsi_018.txt.gz
Lid_Strength_Index
2 3 2 1 1 0 1 0 0 -0 -1 -1 1 1 1 1 0 0 0 -0 -0 -0 -1 -0 -0 -1 -0 -1 -1 -0 0 0 -0 1 1 1 0 0 0 0 1 1 1
3 2 1 1 1 0 1 1 2 2 2 1 1 1 1 1 0 -0 0 0 0 0 1 0 1 0 0 -0 -1 -0 1 0 -0 2 2 3 2 1 0 -0 0 0 1
3 3 3 2 1 1 2 2 2 1 1 1 0 0 0 1 1 2 2 1 1 1 1 1 1 0 0 1 -0 -0 0 2 0 -0 2 4 5 2 0 1 -0 -0 1
4 3 3 2 2 2 1 1 1 1 1 1 2 2 2 3 2 2 2 2 1 1 1 1 1 1 1 1 0 1 0 0 2 1 1 0 1 4 5 1 1 0 1
4 3 3 2 2 1 1 1 1 1 1 1 2 2 2 2 2 2 2 2 2 2 2 1 1 1 1 0 1 1 1 1 2 1 2 2 2 1 3 4 3 1 1
3 3 3 2 2 1 1 1 1 2 2 1 2 2 2 3 3 2 3 3 3 2 2 2 1 1 1 1 1 3 4 4 4 5 5 5 6 6 6 5 4 4 3
3 3 3 3 2 2 1 1 1 2 2 2 2 3 2 2 2 3 3 3 3 3 2 2 1 1 1 2 3 3 4 5 6 6 7 7 8 8 8 8 8 7 5
3 3 3 2 2 2 2 1 2 2 2 2 2 2 2 2 2 2 3 3 3 2 2 1 1 1 2 2 3 3 4 5 5 5 5 5 5 5 5 6 7 8 7
4 3 3 2 2 2 2 2 2 2 2 2 1 1 1 2 2 2 2 2 2 2 2 2 2 2 2 3 3 4 4 2 3 3 3 3 3 4 4 4 5 7 9
3 3 3 2 2 2 2 1 1 2 1 1 1 2 1 2 2 3 3 3 3 2 2 2 3 3 4 3 3 3 2 2 1 1 2 2 2 3 3 4 5 5 7
4 3 3 2 2 2 2 2 2 2 2 2 2 2 2 3 4 3 3 3 2 2 3 3 3 3 3 2 2 2 2 2 2 2 2 2 2 3 3 3 4 5 5
4 3 3 3 2 2 2 2 2 2 2 2 3 3 3 3 3 4 3 2 3 3 3 2 2 2 2 1 2 2 2 3 3 3 3 3 4 4 3 4 4 4 5
4 4 3 3 3 3 3 3 3 3 3 3 3 3 3 3 3 3 3 3 3 2 1 1 2 2 2 2 2 2 3 3 3 3 4 4 4 4 4 4 5 5 5
4 4 4 4 4 4 4 4 4 4 4 4 4 3 3 2 3 3 3 3 2 1 1 1 1 2 3 4 4 4 4 4 4 4 4 4 5 5 5 6 6 6 6
5 5 5 6 5 5 4 4 4 4 4 4 4 4 3 3 3 2 2 2 1 1 2 3 3 3 4 4 5 5 5 5 5 4 5 5 5 6 7 7 7 6 6
6 6 7 7 6 5 5 5 5 5 4 5 4 4 3 3 3 2 2 2 3 3 3 4 4 4 4 6 6 6 5 5 5 5 5 5 6 6 6 7 7 7 8
7 7 7 7 5 4 5 5 5 5 4 4 4 3 3 3 3 3 3 3 3 4 4 4 3 4 4 7 7 7 6 5 5 5 5 6 6 6 7 7 7 7 8
7 7 6 5 4 4 5 4 4 4 4 3 3 3 3 3 3 3 4 4 4 4 4 4 4 4 4 6 6 7 5 4 4 5 5 6 6 7 7 7 8 7 7
6 5 4 3 3 4 3 3 3 3 3 3 3 3 3 4 4 4 4 4 4 4 4 4 4 4 4 5 6 6 5 5 5 5 5 6 7 7 7 7 7 7 7
5 5 4 3 3 3 3 3 3 3 3 3 3 2 3 4 4 4 4 4 4 4 4 4 4 4 4 4 5 5 5 6 6 5 5 5 6 7 7 7 8 9 9
4 4 4 3 3 2 2 3 3 4 3 2 2 2 3 4 4 4 3 4 4 4 5 5 4 4 4 4 5 5 6 6 6 6 5 5 6 8 8 9 9 9 8
4 4 4 3 2 2 2 2 3 2 2 2 2 3 3 4 4 4 3 3 4 5 5 4 4 3 3 5 5 6 6 5 5 6 5 4 7 8 9 10 10 10 9
4 4 4 3 3 2 1 2 2 2 2 2 2 3 3 4 4 4 4 5 5 5 5 6 6 6 5 4 6 6 6 5 5 5 6 7 8 9 9 10 10 10 9
4 4 4 4 3 2 2 2 1 1 2 2 3 3 4 4 3 3 4 5 5 6 6 6 7 7 6 6 6 6 6 6 6 7 6 8 9 9 9 9 9 9 9
4 4 4 4 4 3 3 2 2 2 3 3 3 4 4 4 4 4 5 5 5 6 6 7 7 8 8 8 7 7 7 7 8 8 7 9 10 10 10 10 10 9 10
4 4 4 4 3 3 3 3 3 3 4 4 4 4 4 4 5 5 5 6 6 7 7 8 8 7 8 8 8 8 9 9 9 9 10 11 11 11 11 11 11 10 11

GFSMW_con_lsi_021.txt.gz
Lid_Strength_Index
2 2 1 1 0 0 0 0 0 -0 -0 -0 0 0 1 0 -0 -1 -1 -1 -1 -1 -1 -0 -0 -1 -0 -0 -1 -0 0 1 0 1 1 1 0 -0 -0 -1 -0 -0 0
3 2 1 1 1 1 0 0 0 0 0 0 0 0 0 -0 -0 -1 -1 -0 0 0 1 0 1 -0 1 -0 -0 -0 1 1 0 2 2 4 2 1 0 -0 -0 -0 -1
3 2 2 1 1 1 0 0 0 0 0 0 0 0 -0 -0 0 0 0 0 -0 0 1 0 1 0 -0 1 -0 -0 0 2 1 0 2 4 5 3 1 1 0 0 -0
2 2 2 2 1 1 0 0 1 1 0 -0 1 1 1 2 1 0 0 0 0 0 1 1 1 1 0 0 -0 0 0 1 2 1 0 1 2 5 5 2 1 0 1
3 3 2 2 1 0 0 0 1 1 1 0 1 1 1 1 1 1 1 1 1 1 1 1 1 1 0 0 -0 0 0 0 1 2 3 2 1 1 4 6 3 2 1
3 2 2 2 1 0 0 0 0 1 0 0 1 1 2 2 2 2 2 2 2 2 1 1 1 1 1 1 1 2 3 3 3 4 5 6 7 7 8 8 7 7 3
3 3 2 2 2 1 1 0 1 1 1 1 1 1 2 2 2 2 2 2 3 3 2 2 1 1 1 2 2 2 3 3 5 5 5 5 6 7 7 8 8 7 5
3 3 2 2 2 1 1 1 1 1 1 1 1 1 1 2 2 2 2 3 3 2 2 1 1 1 1 2 2 2 2 3 3 4 4 4 3 3 4 5 6 7 6
3 3 2 2 1 1 1 1 1 1 1 1 0 1 1 2 2 2 3 3 3 3 1 1 1 1 2 2 3 3 3 2 2 2 1 2 2 2 2 3 4 6 8
3 3 2 2 2 2 1 1 1 1 2 2 2 2 2 2 3 3 4 3 3 2 2 1 1 2 2 2 2 2 1 1 1 1 1 1 1 1 1 2 3 4 6
3 3 3 3 2 2 2 2 2 2 2 2 2 3 3 3 3 4 4 4 3 2 2 2 2 1 2 1 1 1 1 1 1 1 1 1 1 2 2 2 3 3 3
3 4 4 3 3 3 3 3 3 3 3 3 3 3 3 3 3 4 3 2 3 2 1 1 1 1 1 1 1 2 2 2 2 2 2 2 3 3 3 3 4 3 3
4 4 3 3 4 3 3 4 3 4 4 4 4 3 3 3 3 3 2 2 1 1 1 0 0 1 1 2 2 3 3 3 3 3 3 3 3 4 4 4 4 4 5
5 4 4 4 4 4 4 4 4 4 4 3 3 3 3 4 3 2 2 2 1 1 1 1 2 2 2 3 3 3 3 3 3 3 3 4 4 4 4 5 5 5 5
5 4 5 4 5 5 4 4 4 4 4 4 3 3 3 3 3 2 2 2 1 2 2 2 2 3 3 3 3 4 4 4 4 4 4 3 3 4 5 6 6 6 7
5 5 6 5 6 5 4 4 4 4 3 3 3 3 3 3 2 2 2 2 2 2 2 3 3 3 3 6 6 6 5 5 5 5 4 3 3 4 4 5 5 6 8
6 7 6 6 5 4 4 4 4 3 3 3 3 3 3 3 3 2 3 3 3 3 3 3 3 3 3 6 6 6 5 5 4 4 4 4 4 4 4 5 6 6 6
6 5 6 5 4 4 3 3 3 3 3 3 3 2 2 3 3 3 3 3 3 3 3 3 3 3 3 5 5 5 4 4 3 3 3 4 4 4 5 6 6 6 6
5 5 5 5 4 3 3 3 3 3 3 2 2 2 2 2 2 3 3 3 3 3 3 3 3 4 3 4 5 5 4 4 4 4 3 4 4 4 5 6 7 7 7
5 5 5 5 4 4 3 3 3 2 2 2 2 2 2 2 2 3 3 3 3 3 3 4 4 4 4 3 4 4 5 6 5 4 4 4 4 4 5 6 7 8 8
5 5 4 4 4 3 2 3 2 2 1 1 1 1 1 2 2 2 3 3 3 3 3 4 3 3 3 4 4 5 5 6 5 5 5 4 5 6 6 7 8 8 8
5 4 4 4 3 3 3 3 3 1 0 0 1 1 1 1 2 3 3 3 3 4 4 4 4 4 3 4 5 6 6 5 6 6 4 4 5 6 7 8 8 9 9
5 4 4 4 4 3 3 3 2 1 1 1 1 1 1 2 2 3 3 4 4 4 5 6 5 6 5 5 5 6 6 6 6 5 5 6 6 7 8 8 9 9 9
6 5 5 5 4 3 3 2 2 2 2 3 2 1 2 2 2 3 3 4 4 6 6 6 7 6 6 6 6 6 6 7 7 7 7 6 7 7 7 8 8 8 8
5 5 5 4 4 3 3 2 2 2 3 3 3 2 3 3 3 3 4 4 4 6 6 6 7 8 8 8 8 8 8 8 8 9 7 8 9 10 9 9 9 9 9
5 5 4 3 3 2 2 3 2 2 3 4 3 3 3 3 4 5 5 6 6 7 7 8 8 7 8 8 8 8 9 9 9 9 9 10 10 10 10 11 10 10 10

GFSMW_con_lsi_024.txt.gz
Lid_Strength_Index
3 3 2 1 1 1 1 1 2 1 1 1 1 1 1 1 0 -0 -1 -0 -1 0 1 1 1 1 2 2 1 2 2 2 1 2 2 2 1 1 1 1 2 2 2
3 3 3 2 2 1 1 1 1 0 0 1 1 1 1 0 0 -0 0 -0 0 1 1 2 2 2 2 2 2 2 2 2 2 3 3 5 3 2 1 1 1 2 1
4 3 3 2 2 2 1 1 1 0 0 0 1 1 1 0 1 1 1 0 0 1 1 1 2 2 2 3 3 3 3 4 3 2 3 5 6 4 2 2 2 1 1
3 3 3 3 2 2 1 1 0 1 1 0 1 1 2 2 2 1 2 1 1 1 2 2 2 2 2 3 3 2 3 3 5 4 4 4 4 6 6 3 2 1 2
3 3 3 2 2 1 1 1 1 1 0 0 0 1 2 2 2 2 2 2 2 2 2 3 3 2 2 3 3 4 4 4 5 5 6 6 6 6 6 8 6 5 4
3 3 2 2 2 1 1 1 1 1 0 1 1 2 2 2 3 3 3 3 3 4 3 3 3 3 3 3 3 3 5 4 4 5 5 7 7 7 8 8 9 8 6
3 3 3 3 2 2 1 1 1 1 1 1 1 2 2 2 3 3 4 5 5 5 4 4 3 3 3 3 4 4 4 4 5 6 6 5 6 7 7 7 7 8 7
3 2 2 2 2 2 1 1 1 2 2 1 2 2 2 3 3 4 4 5 5 4 3 3 3 3 3 3 3 3 3 3 4 4 4 4 3 4 4 5 6 7 8
3 3 2 2 2 2 2 2 2 2 2 2 2 2 2 3 3 4 4 4 4 4 3 3 3 3 3 2 2 3 3 3 2 2 2 2 2 2 2 3 4 5 9
3 3 3 3 2 2 2 1 2 3 3 3 3 3 3 3 4 4 4 4 3 3 3 3 3 3 2 3 2 2 2 1 1 1 2 2 1 1 1 2 2 3 5
4 3 3 3 3 2 2 3 3 3 3 4 4 4 4 4 3 3 3 3 3 3 2 2 2 2 2 2 2 2 2 2 3 2 2 2 2 2 2 2 3 3 4
4 4 4 3 3 3 3 3 3 4 4 4 4 4 4 3 4 3 3 2 2 1 2 2 2 1 1 1 2 2 3 3 4 4 3 3 3 4 4 4 5 5 5
4 4 4 4 4 3 3 4 4 4 4 5 5 4 4 4 4 3 2 2 2 2 2 2 2 2 2 3 4 4 4 5 5 5 5 4 4 5 5 5 5 5 5
4 4 4 4 4 4 5 5 4 4 4 5 5 4 4 4 4 3 3 2 2 2 3 3 3 3 3 4 4 4 5 5 5 5 5 5 5 5 5 5 6 6 7
4 5 5 5 5 5 5 5 4 4 4 5 4 4 4 3 3 3 2 2 2 3 3 3 3 3 4 5 5 5 6 6 6 6 5 5 4 2 4 5 7 7 8
5 6 6 6 6 5 5 5 4 4 4 4 4 3 3 3 3 2 2 2 3 3 3 4 4 4 4 6 6 6 7 6 6 6 5 4 3 3 3 3 4 5 8
6 6 6 6 6 6 5 5 4 3 4 3 3 2 3 3 2 2 2 3 4 4 4 4 4 4 4 5 5 5 6 6 6 6 5 4 3 3 4 4 4 5 5
6 6 6 6 6 6 5 4 4 3 3 3 3 2 1 2 2 2 3 3 3 4 4 4 4 5 4 4 5 5 6 7 6 6 6 6 5 5 4 5 6 6 6
6 6 6 5 5 5 5 5 4 4 3 2 2 2 2 2 2 2 3 3 3 4 4 4 5 5 5 4 3 5 6 7 7 6 6 6 6 4 4 5 6 6 6
6 6 6 5 5 5 4 5 5 4 3 2 1 1 1 1 2 2 2 3 3 4 4 4 5 4 5 3 3 4 7 8 7 7 6 5 5 5 5 6 6 7 8
7 6 6 6 5 4 4 5 5 5 3 2 1 1 1 1 1 2 2 3 4 5 5 6 5 5 5 5 4 5 7 8 8 7 7 6 4 4 5 5 7 8 8
8 7 7 6 5 5 5 6 5 4 2 2 2 2 1 1 1 2 3 3 5 5 6 8 7 6 5 4 5 6 6 7 8 8 7 6 5 5 6 6 6 7 8
8 7 7 6 6 5 5 5 4 3 3 3 3 2 1 1 1 3 4 5 5 7 7 7 7 7 6 7 6 7 7 7 8 8 7 7 6 6 7 7 7 8 10
7 7 7 7 6 5 4 3 2 3 3 3 3 3 3 2 3 4 4 5 7 7 6 8 8 9 8 9 9 9 9 8 8 9 9 8 8 8 8 8 8 9 9
7 7 6 6 6 4 3 2 2 2 3 4 3 4 4 4 5 5 5 6 7 7 8 9 9 11 11 10 9 9 10 9 9 10 9 9 10 10 10 10 10 10 10
7 6 6 6 5 4 3 3 2 3 4 5 5 5 5 5 6 6 6 5 6 6 7 7 9 10 8 8 8 8 9 8 9 10 11 11 12 12 11 11 12 11 11

GFSMW_con_lsi_030.txt.gz
Lid_Strength_Index
6 6 5 5 6 6 5 5 4 5 5 5 5 5 5 4 4 3 3 3 3 3 4 5 5 5 5 5 5 5 6 6 6 6 6 6 5 5 5 4 4 3 3
6 6 6 6 6 5 5 5 5 5 5 4 4 4 4 4 4 4 4 4 4 4 5 5 5 5 5 5 6 6 6 6 6 7 7 8 6 6 6 5 4 6 5
7 6 6 6 5 6 5 5 4 5 4 4 4 4 4 4 5 5 5 5 5 5 5 6 6 6 5 6 6 6 6 7 7 6 6 9 10 9 7 7 6 6 7
6 6 6 6 5 6 5 5 4 4 4 3 4 4 5 6 5 5 6 5 5 5 5 6 6 6 6 6 6 6 7 6 6 5 5 6 6 9 11 8 7 7 7
6 6 5 4 4 4 4 4 3 3 3 4 4 5 5 5 5 5 6 6 6 5 6 5 5 5 5 5 5 6 6 6 6 7 6 8 9 9 9 12 10 9 8
7 6 5 4 4 4 4 4 4 4 4 4 5 5 5 5 6 7 7 7 7 7 6 5 5 5 5 5 5 5 5 6 6 6 7 8 9 9 8 9 10 11 9
7 6 5 5 5 5 5 4 4 5 4 4 5 5 6 6 6 6 8 8 8 8 7 6 6 5 5 5 5 5 6 6 6 6 6 6 6 5 6 7 8 8 9
7 7 6 6 5 5 5 5 5 4 4 5 6 6 5 6 7 7 8 8 8 8 7 6 5 5 5 5 5 5 5 4 5 5 5 4 2 3 2 4 5 7 6
7 7 6 6 6 6 5 6 6 5 6 6 7 7 6 7 7 8 7 7 7 5 6 5 5 5 4 4 4 5 4 4 4 4 4 3 2 2 2 3 3 5 7
7 6 6 6 6 5 5 6 6 7 7 7 7 7 7 7 7 7 7 6 6 5 5 5 4 4 4 3 3 4 3 4 4 3 4 4 4 4 4 4 3 3 5
7 7 7 7 7 6 7 7 7 7 7 8 8 8 7 7 7 7 7 6 6 5 5 4 4 3 3 3 3 3 3 4 5 6 6 6 6 7 6 6 6 5 4
8 8 7 7 7 7 7 7 7 7 8 8 8 8 7 7 7 7 7 6 6 5 4 4 5 4 4 4 4 4 5 6 6 6 7 6 6 7 7 7 7 7 6
8 8 8 7 7 7 7 8 7 8 8 7 8 8 8 7 8 8 7 6 6 4 3 4 5 5 4 5 6 5 5 6 7 7 7 7 7 8 8 7 7 7 6
8 8 8 8 8 7 8 8 7 7 7 7 8 8 8 8 8 7 6 5 4 3 4 4 4 4 5 5 5 5 7 7 7 7 7 7 7 8 7 7 7 6 7
8 8 8 8 8 8 8 8 8 8 7 8 8 8 8 7 6 7 5 4 2 2 3 4 5 5 6 5 7 7 7 7 7 7 7 7 6 5 5 6 7 7 7
8 8 8 8 7 8 9 9 9 8 8 8 7 7 6 5 6 5 4 3 2 2 4 4 4 5 5 4 5 6 8 7 7 8 7 7 6 7 6 5 5 6 7
9 9 8 8 9 9 9 10 9 9 9 8 7 7 6 6 5 4 3 2 2 4 4 5 4 6 6 4 4 4 6 7 8 8 8 7 6 6 7 6 5 5 5
9 9 9 10 10 10 10 10 10 10 9 8 7 6 6 6 5 4 4 5 4 4 4 4 5 6 5 4 4 4 7 8 7 7 7 7 7 7 6 6 5 6 6
9 10 11 11 11 11 10 10 11 11 9 8 7 7 6 5 5 5 5 4 4 3 4 5 6 7 7 5 5 7 9 8 9 7 7 8 8 6 5 5 6 6 6
11 12 12 11 11 11 11 11 11 11 9 8 7 7 6 5 5 5 3 3 3 5 6 6 7 6 8 6 6 6 9 12 9 9 8 8 8 6 6 6 7 7 7
12 11 12 12 12 11 11 11 11 10 8 7 7 7 5 5 5 4 4 5 6 7 8 9 8 8 8 8 7 7 10 10 10 10 10 9 7 6 6 6 6 6 6
12 12 12 12 11 11 11 11 11 9 8 8 8 7 6 6 4 4 5 6 8 8 9 15 13 11 10 8 8 8 8 8 12 10 9 8 7 7 7 7 6 6 7
12 12 12 12 11 11 10 10 9 8 8 8 8 7 6 6 6 6 7 8 8 11 11 10 14 12 10 11 8 8 8 8 10 9 8 8 8 8 8 8 8 8 9
13 12 12 12 11 10 9 9 8 8 8 8 8 7 8 7 7 7 8 9 12 13 10 12 13 13 12 12 11 10 12 9 9 10 9 10 9 10 9 9 9 10 10
12 12 12 11 11 9 9 8 8 8 8 8 7 8 8 8 8 8 9 9 9 10 12 12 12 18 19 13 8 8 9 10 10 14 12 12 12 12 12 12 11 11 11
12 12 11 11 10 9 9 8 7 7 8 7 8 9 9 10 9 9 9 7 7 6 5 6 12 14 10 8 7 7 8 9 10 14 16 14 14 14 13 14 13 13 12

GFSMW_con_lsi_033.txt.gz
Lid_Strength_Index
7 7 6 6 6 6 5 4 4 5 5 5 4 5 6 6 5 5 5 5 5 5 5 5 6 6 6 6 6 6 6 6 7 7 7 6 6 7 7 6 5 6 6
7 7 7 6 6 5 6 6 6 5 5 5 5 5 5 5 5 5 5 6 5 5 6 6 6 6 6 6 7 6 6 6 7 8 8 10 9 8 7 7 6 8 7
8 7 6 6 6 6 6 5 5 5 4 4 4 4 5 5 6 6 7 6 6 6 6 6 6 7 6 7 7 7 7 8 7 7 9 11 12 11 8 8 8 8 8
6 6 6 7 7 6 6 5 4 4 4 4 4 5 5 6 6 7 6 7 6 6 6 6 6 6 6 6 6 6 7 7 8 7 6 7 7 11 12 9 8 8 8
7 6 5 6 6 6 6 6 5 4 4 4 4 5 6 6 6 6 7 7 7 7 6 6 6 6 6 7 7 7 7 7 7 7 7 8 8 8 9 11 9 8 8
7 6 6 6 6 6 6 6 5 5 4 5 5 5 5 6 7 7 7 7 7 7 7 6 6 6 6 6 6 6 6 7 7 7 7 8 7 9 8 8 8 9 8
7 7 6 6 5 6 6 5 5 5 5 5 6 6 6 7 7 7 8 8 8 8 8 7 7 6 6 6 6 6 6 6 6 6 6 6 6 4 4 5 6 7 7
7 6 6 6 6 6 6 6 5 5 5 6 6 6 6 7 7 7 8 8 8 8 8 7 7 6 6 6 6 6 6 5 6 6 5 4 4 3 3 4 5 7 6
8 8 7 7 6 6 7 7 6 6 6 7 7 7 6 7 7 8 8 8 8 7 7 7 7 6 6 6 6 6 5 5 5 5 5 5 4 4 4 4 5 5 8
7 7 7 7 6 7 7 7 7 7 8 8 8 8 8 7 8 8 8 8 8 7 7 7 7 6 5 5 4 4 4 5 5 4 6 6 6 6 6 6 6 6 6
8 8 8 7 7 7 8 8 8 8 8 8 8 8 8 8 8 8 8 8 8 8 7 6 6 5 3 3 4 4 4 6 7 7 7 6 6 7 7 7 7 7 8
8 8 8 8 8 8 8 8 8 8 8 8 8 9 8 8 8 8 8 8 8 7 6 6 6 5 4 4 5 6 6 7 7 7 7 7 6 8 8 8 8 8 8
9 8 8 8 8 8 8 9 9 8 9 8 9 9 9 9 9 8 8 8 7 7 6 5 4 4 4 4 5 6 6 7 7 7 7 7 8 8 8 8 8 8 6
8 9 8 8 8 8 9 10 9 9 9 9 9 9 9 9 9 8 8 8 7 6 5 4 4 3 4 5 6 6 7 7 7 7 7 7 8 8 8 8 7 6 7
9 8 8 8 9 9 10 10 10 10 9 9 9 9 8 8 8 8 8 7 6 5 4 4 3 4 4 6 7 6 7 7 8 7 7 7 6 5 5 7 8 8 7
9 8 9 9 10 11 11 10 10 10 10 9 9 8 8 8 8 7 7 6 6 4 3 6 6 5 4 4 4 5 7 7 7 8 7 7 6 6 5 5 5 5 7
9 10 11 11 11 11 11 11 11 11 11 10 9 9 9 8 8 7 6 6 5 4 6 5 5 6 6 4 4 4 6 7 7 8 8 8 7 7 7 7 6 5 4
10 11 12 12 12 12 12 11 11 12 11 10 10 9 9 8 8 7 7 7 6 4 4 6 6 7 6 5 5 6 8 9 8 8 8 8 9 8 8 7 7 6 6
11 12 12 12 12 12 12 12 12 12 11 10 10 10 9 8 8 8 6 5 4 4 7 7 7 8 8 6 6 7 10 9 9 8 8 8 9 7 6 7 7 7 6
12 13 13 12 13 13 13 13 13 12 11 10 10 9 9 8 8 7 6 4 4 7 7 7 8 7 9 7 7 8 11 14 10 9 9 8 8 7 6 7 8 8 7
13 13 13 13 13 12 12 12 12 12 11 10 9 9 9 8 8 6 5 4 6 8 9 10 9 9 8 9 7 8 11 11 10 10 10 9 7 7 6 7 7 7 6
13 13 13 13 13 12 12 12 12 11 10 10 10 9 9 8 7 5 5 7 8 9 10 16 13 11 10 8 8 8 8 8 11 10 10 9 8 8 8 8 7 7 8
13 13 13 13 12 12 11 12 11 10 10 10 9 9 8 8 7 7 7 8 9 11 12 11 15 12 10 11 8 8 8 8 11 10 9 9 9 9 9 9 8 9 10
14 13 13 13 13 11 11 11 10 9 10 9 8 7 8 8 7 7 7 9 12 13 11 12 13 14 12 12 11 10 12 10 10 12 12 12 10 11 11 11 10 10 10
13 13 13 13 12 11 11 10 9 9 9 8 7 7 8 9 8 7 8 8 9 10 12 12 13 19 19 13 8 8 11 14 11 16 17 15 14 13 13 13 12 12 12
13 12 12 12 12 11 11 10 8 7 7 8 7 7 8 10 9 8 8 7 7 6 6 6 12 15 10 7 7 8 9 9 10 15 19 21 20 17 14 15 15 14 14

GFSMW_con_lsi_036.txt.gz
Lid_Strength_Index
8 7 7 6 5 5 4 3 2 2 3 4 5 6 6 6 6 6 6 5 6 6 7 7 7 6 7 7 7 7 7 7 7 8 8 7 6 8 8 6 6 7 7
8 7 7 7 6 5 5 5 6 5 5 5 5 5 6 6 6 6 7 7 7 7 6 7 7 7 7 7 7 7 7 7 7 9 9 11 9 8 7 8 7 8 7
8 7 7 7 7 7 7 6 6 5 5 5 5 6 6 6 7 7 8 7 7 7 7 6 6 6 6 7 7 7 8 8 8 8 9 11 13 11 9 8 8 8 8
7 7 7 7 7 7 6 6 5 6 5 5 6 6 6 7 7 7 7 7 7 7 6 6 6 7 6 7 7 7 8 8 9 8 7 8 8 11 12 9 8 7 7
7 7 7 7 7 7 7 6 5 5 5 5 5 6 7 7 7 7 8 8 7 7 6 6 7 7 7 7 8 8 8 8 8 9 8 9 9 8 8 10 8 6 7
8 7 6 6 7 7 7 7 6 6 5 5 5 6 6 7 8 8 8 8 8 8 7 7 7 7 7 7 8 8 8 8 8 8 8 8 7 7 6 7 6 6 5
7 7 6 7 6 6 6 6 6 6 6 6 6 6 6 7 7 8 8 9 9 9 8 8 8 7 7 7 7 8 8 8 8 8 7 6 5 5 4 5 5 5 6
7 7 6 6 7 6 6 6 6 6 6 6 6 7 7 8 8 8 8 8 9 9 8 8 7 8 7 7 7 7 7 7 7 6 5 5 4 4 4 5 6 8 6
7 8 8 7 7 7 7 6 6 6 6 7 7 7 7 8 8 8 9 9 9 8 8 8 8 7 7 7 7 6 6 5 5 5 4 5 4 6 5 5 4 6 10
9 8 8 7 7 8 8 7 7 7 7 8 9 9 9 8 8 9 9 9 8 8 8 8 8 8 6 6 5 5 5 4 4 4 5 7 6 7 6 6 6 6 7
9 9 9 8 8 9 8 8 8 8 9 9 9 9 9 9 9 9 9 9 8 8 8 8 8 7 7 6 5 4 4 4 5 6 7 7 6 7 7 7 7 7 7
9 9 9 9 9 9 8 8 8 8 9 10 10 10 10 9 9 9 9 9 9 9 8 8 8 8 7 6 6 5 5 6 7 7 7 7 6 7 7 8 8 8 7
9 9 9 9 9 8 8 8 9 9 10 10 10 10 10 10 10 10 10 9 9 9 8 8 7 6 5 5 5 5 5 6 6 7 7 7 7 8 8 8 8 7 6
9 9 9 9 8 8 9 11 11 11 10 10 10 10 10 10 10 10 10 9 9 8 8 6 5 4 5 6 5 6 7 7 7 7 7 7 7 8 8 8 8 7 7
9 9 9 9 9 10 11 11 11 11 11 10 10 11 10 10 10 9 9 9 8 7 6 5 4 5 6 6 7 7 6 7 7 7 7 7 6 5 5 6 6 7 8
9 9 9 10 11 11 12 11 11 11 11 11 11 10 10 10 10 10 9 9 8 7 5 6 6 6 6 5 4 5 6 6 7 7 7 7 7 7 6 6 6 6 8
10 9 10 11 11 12 12 12 12 12 12 11 11 10 10 10 10 9 9 9 9 8 6 6 6 7 7 5 5 6 7 8 9 9 9 9 8 8 8 7 7 6 6
10 10 11 12 12 12 13 13 13 13 12 11 11 11 10 10 10 10 9 9 7 5 5 6 7 8 7 5 6 6 9 9 9 9 9 9 9 8 8 7 7 7 6
10 11 12 12 13 13 13 13 13 13 12 12 11 11 11 10 10 10 9 6 6 6 8 8 8 9 9 7 7 8 9 9 10 9 9 9 9 8 6 7 8 8 7
12 12 13 13 13 13 13 13 14 13 12 12 11 11 11 10 10 10 7 6 5 6 7 7 8 8 10 8 7 8 11 14 10 9 9 8 8 7 7 8 9 9 8
12 12 13 13 13 13 13 13 13 13 12 11 11 11 10 10 10 7 6 5 6 7 9 10 9 9 9 10 8 7 10 11 10 10 10 9 8 8 7 8 9 9 8
13 13 13 13 13 12 13 13 13 12 11 11 11 10 9 9 8 7 5 7 8 8 9 16 14 11 11 9 8 7 7 8 12 11 10 10 8 8 9 9 8 8 9
13 13 13 13 12 12 12 12 12 11 11 11 11 9 8 8 8 8 7 7 8 11 12 11 14 13 10 11 8 8 7 9 13 11 10 9 9 10 10 10 10 10 11
13 13 13 13 13 12 11 12 11 11 11 11 9 8 8 8 8 8 7 7 10 12 11 13 13 14 12 12 12 10 11 11 11 12 13 13 11 13 12 12 12 12 12
13 13 13 13 13 12 12 12 11 11 11 9 8 7 8 8 9 8 7 7 8 9 11 12 13 18 19 13 10 9 12 15 13 17 17 16 16 15 14 14 13 13 14
13 13 13 13 12 12 12 12 11 10 10 9 8 7 8 8 9 8 8 6 6 6 5 6 11 14 10 8 7 7 8 9 10 15 19 23 23 20 15 16 15 15 16

GFSMW_con_lsi_039.txt.gz
Lid_Strength_Index
5 3 2 1 1 1 1 1 1 2 2 3 3 3 3 4 4 3 3 3 3 3 3 3 3 3 4 3 3 3 4 4 3 4 5 4 2 3 3 4 4 4 5
5 5 4 3 2 1 1 1 2 1 1 1 1 2 3 3 4 4 3 3 4 3 3 3 3 3 4 4 3 4 5 4 3 6 6 8 6 4 4 4 4 4 4
5 5 5 3 2 2 1 1 0 1 1 2 2 3 3 3 4 4 4 4 4 3 3 3 3 3 3 4 4 4 4 6 4 4 6 9 9 7 5 5 4 4 4
6 5 5 5 4 4 3 3 3 2 3 2 3 3 2 2 3 3 4 3 4 3 3 3 3 3 3 4 4 4 4 4 6 5 5 4 6 9 10 6 6 4 4
5 5 5 4 4 3 3 3 3 3 3 3 2 2 3 3 3 4 4 3 3 4 4 4 3 3 4 4 4 4 4 4 5 6 6 6 6 6 8 9 6 4 4
5 5 4 4 4 4 3 3 4 4 3 2 2 2 3 3 4 3 4 4 4 4 4 4 4 4 4 4 4 4 4 4 4 5 5 6 7 7 6 7 5 5 3
5 5 4 4 4 4 4 3 3 4 3 2 2 2 2 3 3 4 4 5 5 4 4 4 4 4 4 4 4 4 4 4 4 5 5 4 3 2 3 4 4 4 3
4 4 4 4 3 3 3 3 3 3 3 3 3 3 3 3 4 4 5 5 5 5 4 4 4 5 4 4 4 4 4 4 4 4 3 2 2 1 1 2 3 5 5
4 4 4 3 4 3 4 3 3 3 4 4 3 3 4 4 5 5 5 5 5 5 5 5 5 5 4 4 4 4 4 4 3 2 2 2 0 0 1 2 3 4 7
6 5 5 5 4 5 4 4 4 4 5 5 5 5 6 6 5 5 5 5 5 5 5 5 5 5 4 4 4 4 3 3 2 2 2 1 2 2 2 2 3 3 5
7 7 6 6 6 6 5 5 5 6 6 6 6 6 6 6 6 6 6 6 6 6 6 6 5 5 5 5 5 4 3 3 3 3 3 3 2 3 3 3 3 4 5
7 7 7 7 6 6 6 6 6 6 6 6 6 7 7 7 7 7 7 6 7 6 6 5 5 6 6 5 4 4 3 4 4 4 4 4 3 3 3 4 5 5 4
8 7 7 7 7 7 7 7 6 7 7 7 7 7 7 7 7 7 7 7 7 7 6 5 5 6 5 4 3 3 4 4 4 4 4 4 4 4 4 5 5 5 5
8 7 7 7 7 7 7 8 8 7 7 7 7 7 7 7 7 7 7 7 7 6 6 5 5 4 4 3 3 4 4 4 4 4 4 4 4 5 5 5 5 5 6
8 7 8 8 8 8 9 8 8 8 8 8 8 8 7 7 7 8 7 7 6 6 6 5 5 4 4 4 4 4 4 4 5 4 5 5 5 6 6 6 6 6 7
8 8 8 8 9 9 8 8 8 8 8 9 8 8 8 8 8 7 7 7 7 7 6 6 5 5 4 4 5 5 5 6 6 7 6 7 7 7 7 7 7 7 8
8 8 8 9 9 9 9 9 9 9 9 9 8 8 8 8 8 7 7 7 7 6 6 5 5 5 4 5 5 6 6 7 7 7 7 8 7 7 7 7 6 6 6
8 8 9 9 9 9 9 9 9 10 10 9 9 9 9 8 8 8 8 7 7 6 5 5 5 5 5 6 6 7 6 7 7 7 8 8 8 7 7 6 7 6 6
7 8 9 9 9 10 10 10 10 10 10 9 9 9 8 8 9 8 8 7 7 6 5 5 5 5 6 7 7 7 7 7 7 7 7 8 8 7 7 7 8 8 7
9 10 10 10 10 10 10 10 10 10 10 9 9 8 8 8 8 8 7 6 6 6 5 6 5 7 6 8 8 7 6 7 7 7 8 8 8 8 7 8 8 9 8
11 10 10 10 11 11 11 10 10 10 9 9 8 9 8 8 8 8 6 5 5 5 6 6 6 6 7 7 8 7 6 7 8 8 8 8 8 8 8 8 8 9 8
11 11 11 11 11 11 10 11 10 9 9 9 9 9 8 8 8 7 6 5 6 6 6 6 6 6 6 8 8 8 7 7 8 9 9 8 9 9 9 9 9 9 9
11 11 11 12 11 11 10 11 10 10 10 10 9 8 8 8 8 7 6 6 6 6 6 6 6 6 6 6 8 8 7 7 8 8 9 10 10 10 10 10 10 10 10
11 12 12 12 12 11 10 10 10 10 10 10 9 8 9 7 6 6 6 6 6 6 6 6 6 6 6 6 6 6 6 8 8 9 9 11 11 11 11 10 10 10 12
12 12 12 12 12 10 10 10 10 10 10 9 9 8 8 7 6 6 6 6 5 5 6 6 6 6 7 6 7 7 6 7 8 10 10 10 11 11 11 11 11 11 12
12 12 11 11 11 11 11 10 10 10 10 10 8 7 6 6 6 6 6 5 6 6 5 5 6 5 6 7 7 6 7 8 10 9 10 11 11 12 12 11 12 12 13

GFSMW_con_lsi_042.txt.gz
Lid_Strength_Index
3 2 1 1 1 1 0 0 0 0 1 -0 1 2 3 2 2 1 1 1 1 1 1 1 2 2 3 3 3 3 3 4 3 4 4 4 3 2 2 3 3 3 3
4 3 2 1 1 1 1 0 0 -0 -0 -0 -0 -0 1 1 1 2 1 1 1 1 2 2 2 2 3 3 3 3 4 4 4 5 5 7 6 4 3 3 3 3 3
4 4 3 2 1 1 1 1 0 -0 -1 -1 -0 0 1 1 2 2 2 1 1 2 2 2 2 2 3 3 3 3 4 5 4 4 5 7 8 6 4 4 4 3 4
3 3 2 2 2 1 0 -0 -0 -0 -0 -0 1 1 1 1 1 -0 1 1 2 2 2 2 2 3 3 3 3 4 4 4 5 5 5 5 5 9 9 5 5 4 4
3 3 3 2 1 1 0 0 0 1 0 0 1 1 1 0 0 1 1 1 1 2 3 3 3 3 3 3 3 3 4 4 5 5 6 6 6 6 7 8 7 5 4
3 3 2 2 2 1 1 0 1 1 -0 -0 -0 -0 0 1 1 1 2 2 3 3 3 3 3 3 3 3 3 3 4 4 5 5 5 6 8 8 8 7 6 5 3
3 3 3 3 2 1 1 0 0 1 -0 -0 -0 0 1 2 3 3 3 4 4 4 3 3 3 3 3 3 3 4 4 4 4 4 5 5 5 5 4 4 4 5 3
3 3 2 2 2 1 1 1 1 1 1 1 1 1 2 2 3 3 3 3 4 4 3 3 3 4 4 4 4 4 4 3 3 4 4 4 3 3 3 4 4 5 4
3 3 2 2 2 1 1 1 1 1 2 2 2 2 2 2 3 3 3 3 3 4 5 5 5 5 5 4 4 3 3 3 3 3 2 2 2 1 2 2 2 4 6
3 3 2 2 1 1 1 1 1 2 3 3 3 3 3 3 3 2 4 5 5 6 6 6 6 5 5 4 3 3 3 4 3 2 2 1 2 2 2 2 2 3 4
4 3 2 2 2 2 2 2 3 4 4 4 4 4 4 4 4 4 5 6 6 6 6 6 6 5 5 4 4 4 3 3 2 2 2 2 1 2 1 2 2 3 3
3 3 3 3 4 4 3 3 3 4 5 5 4 5 5 4 5 6 6 5 6 6 6 6 6 5 4 4 4 4 3 2 2 2 2 2 3 2 2 2 3 3 3
4 4 4 4 4 4 4 5 5 5 5 5 5 5 5 6 6 6 6 6 6 6 6 5 5 4 4 4 4 3 2 2 2 2 2 2 2 3 3 3 4 4 4
5 5 5 5 5 5 5 6 6 5 5 5 6 6 6 6 6 6 6 6 6 6 5 5 4 5 5 4 3 3 2 2 2 2 2 3 3 4 4 5 4 5 5
5 5 5 5 5 5 6 6 6 6 6 6 6 7 6 6 6 6 6 6 6 5 5 5 5 5 4 4 3 2 2 2 3 3 4 4 5 6 6 6 5 6 6
5 5 5 6 6 6 6 6 6 6 6 7 7 7 6 6 6 6 6 6 6 6 5 6 5 5 4 6 6 5 3 3 4 5 5 4 5 6 7 6 6 6 7
5 5 5 6 6 6 7 7 7 7 7 8 8 7 7 7 7 7 6 7 6 6 6 6 5 5 4 6 6 6 4 4 4 5 5 5 5 6 6 6 6 5 5
4 5 6 7 7 7 7 7 7 7 8 9 8 8 8 8 7 7 7 6 6 7 6 5 5 4 4 6 6 6 4 4 5 5 5 5 5 6 7 7 7 6 6
4 4 6 7 7 8 7 8 8 9 9 9 8 8 8 8 8 8 7 6 7 6 6 5 4 4 3 6 7 6 4 5 5 5 5 6 6 7 7 8 7 7 7
4 6 7 8 8 8 7 8 9 9 9 9 8 8 8 8 8 7 7 7 7 7 5 5 4 5 3 6 7 7 5 5 5 5 5 6 7 8 8 8 8 8 8
6 7 8 8 8 8 8 9 10 10 9 8 8 8 8 8 7 7 7 7 6 5 5 6 4 3 3 4 7 7 6 6 6 6 6 6 8 8 8 9 8 8 8
9 8 9 9 8 9 9 10 10 9 8 7 8 8 7 7 7 7 6 7 6 5 5 5 4 4 3 5 6 7 7 7 6 6 6 6 9 9 9 9 10 9 9
10 9 10 10 9 9 9 10 9 8 8 8 8 8 7 7 7 7 7 7 6 6 6 6 6 5 4 4 6 7 7 7 6 6 7 8 9 9 9 9 10 9 8
9 10 10 10 10 10 9 9 9 9 9 9 8 8 7 7 7 7 7 6 6 6 6 6 6 5 5 4 4 5 5 6 6 6 6 7 9 9 9 8 8 8 9
10 10 10 10 10 10 9 9 9 9 9 9 8 8 7 7 6 6 5 5 5 5 5 5 5 5 5 5 5 6 5 5 6 8 6 6 7 8 8 8 8 8 9
10 10 10 10 10 10 9 9 8 8 9 9 8 7 7 6 6 5 5 5 6 5 5 5 5 4 4 5 6 6 6 7 8 7 7 7 7 8 8 8 8 8 9

GFSMW_con_lsi_045.txt.gz
Lid_Strength_Index
2 2 1 1 1 0 1 1 1 0 -0 0 0 0 1 1 1 1 1 1 0 0 0 1 1 2 2 2 2 3 3 4 3 4 5 4 3 2 3 3 3 3 3
3 2 2 1 1 1 1 1 1 0 -0 -0 -0 -0 0 0 0 1 1 0 -0 1 1 1 2 2 2 2 2 3 4 4 3 5 6 7 6 5 4 3 4 3 4
4 3 3 2 2 2 1 1 0 -0 -0 -1 -1 -0 -0 0 0 1 0 0 0 1 1 2 2 2 2 3 3 3 4 5 4 4 6 8 9 7 5 4 4 3 4
3 3 3 3 2 1 0 0 -0 -0 -0 -1 0 0 1 1 0 -1 -0 0 1 1 2 2 2 2 2 3 3 4 4 4 6 5 5 5 6 9 9 6 6 5 5
3 3 3 2 1 1 0 -0 -0 -0 -0 -1 -1 0 0 -0 -1 -0 0 0 1 1 2 2 2 3 3 3 3 3 3 4 5 6 6 6 6 6 8 10 8 6 5
3 3 2 1 1 0 0 0 0 0 -0 -0 -0 -0 0 0 1 1 1 2 2 2 2 2 2 3 3 4 4 3 4 4 5 5 6 6 7 7 7 7 7 6 4
3 3 2 2 2 1 1 0 0 1 -0 -0 -0 -0 0 1 2 2 2 3 3 3 3 2 3 3 4 4 4 4 4 4 5 5 5 5 5 5 5 4 5 5 3
3 3 2 2 2 1 1 1 1 1 0 -0 0 0 1 2 2 3 3 3 3 3 2 3 4 4 5 5 4 4 4 4 3 4 4 4 3 3 3 3 4 5 4
3 3 2 2 2 1 1 1 1 1 1 1 1 2 2 3 3 3 2 3 3 3 4 5 5 5 5 5 5 4 4 3 3 3 3 3 2 2 1 2 2 3 6
3 3 2 2 1 1 1 0 0 1 1 2 2 3 3 3 3 3 3 3 4 5 5 5 5 5 5 5 4 4 4 4 3 3 2 2 2 1 1 1 2 2 4
3 3 2 2 1 1 1 1 1 2 3 3 3 3 3 3 3 3 4 5 5 5 6 6 6 5 5 5 4 4 4 4 4 2 2 2 1 1 1 1 2 2 3
3 3 2 2 2 2 1 2 2 3 3 4 4 5 4 4 4 5 5 5 6 5 6 6 6 5 5 4 5 5 4 4 3 3 2 2 2 2 2 2 2 3 3
3 3 3 2 2 2 2 3 3 3 4 5 5 4 5 5 5 5 5 6 6 6 6 6 5 5 4 4 4 5 4 3 3 3 2 2 2 3 3 3 3 4 4
3 3 3 2 3 3 3 4 4 4 5 4 6 5 5 5 5 6 6 6 6 6 6 6 5 5 5 5 5 4 4 3 3 2 2 2 3 3 4 5 5 5 5
4 3 3 3 3 4 4 5 5 5 5 6 6 6 6 5 6 6 6 6 6 6 6 6 5 5 5 5 5 4 4 3 2 2 3 3 4 5 5 6 6 6 7
4 3 3 3 4 4 5 5 5 5 6 6 7 6 6 6 6 6 6 6 6 6 6 6 6 6 6 8 8 7 4 3 3 3 3 4 4 4 5 5 6 6 7
4 3 3 3 3 4 5 5 5 6 7 7 7 7 7 7 7 7 7 7 7 6 6 6 6 7 6 8 8 7 5 3 3 4 4 4 4 5 5 6 6 6 5
3 3 2 3 4 5 5 5 6 6 7 7 8 8 8 8 7 7 7 7 6 6 6 6 6 7 6 7 7 7 4 3 3 4 4 4 5 5 7 7 7 7 6
3 2 2 3 4 6 6 6 6 7 8 9 9 8 8 8 7 8 7 7 7 7 7 7 7 6 5 7 7 7 4 3 4 4 4 5 5 7 7 8 8 8 7
2 2 3 5 5 6 6 6 7 8 9 9 8 8 7 8 8 7 7 7 7 8 7 7 6 5 4 6 6 6 4 4 5 4 4 6 7 8 8 8 8 9 8
2 3 5 6 6 6 7 8 9 9 9 8 8 8 7 8 7 7 7 7 7 7 6 6 5 5 4 4 6 6 5 5 5 6 5 5 7 8 8 8 8 9 8
5 6 7 7 6 7 9 9 10 9 8 8 8 8 8 7 7 7 7 6 6 6 6 6 5 4 4 4 5 6 6 6 6 6 5 5 7 8 8 8 8 9 9
7 7 7 9 9 9 9 10 9 8 8 9 9 8 7 7 6 7 7 7 6 6 6 6 5 5 4 3 4 5 6 7 6 5 5 7 7 7 7 7 8 8 7
8 8 9 10 10 9 9 9 8 8 9 9 9 8 8 7 7 6 5 6 5 6 6 5 5 5 5 4 3 4 5 6 6 5 5 6 7 7 7 7 6 6 7
10 10 10 10 9 9 9 8 8 8 9 9 9 8 7 7 6 5 5 5 4 4 5 5 4 4 4 4 4 4 4 4 5 7 6 6 5 6 6 6 6 6 7
10 10 9 10 9 9 9 8 8 8 8 9 8 7 7 5 5 5 5 4 5 5 5 5 5 3 4 5 5 5 5 6 6 7 7 6 6 6 7 6 7 6 7

GFSMW_con_lsi_048.txt.gz
Lid_Strength_Index
3 2 2 1 1 1 1 1 1 0 0 1 1 1 1 2 1 1 1 -0 0 0 1 1 2 3 3 4 4 4 5 6 5 7 7 7 6 6 6 6 6 5 5
4 3 2 2 2 2 2 1 1 1 1 0 0 0 1 1 1 0 0 -0 0 1 1 2 2 3 3 4 4 5 5 6 6 8 8 9 8 7 6 6 6 7 6
4 4 3 3 2 2 2 1 1 1 0 0 0 0 0 0 1 1 1 1 1 1 2 2 2 3 4 5 4 5 5 7 6 6 7 10 11 9 8 8 7 7 7
4 3 3 3 3 2 1 1 1 1 0 0 1 1 2 2 1 1 1 1 1 2 2 3 3 3 4 4 4 5 5 6 7 7 6 7 8 10 11 9 8 7 7
4 4 4 3 2 2 2 1 1 1 0 0 0 1 1 1 1 1 1 1 1 2 2 3 3 4 4 4 4 5 6 6 7 8 8 8 8 8 9 11 10 8 7
4 3 3 3 3 2 1 1 1 1 0 0 0 1 1 1 2 2 2 2 2 3 3 3 3 3 4 5 5 6 6 6 7 7 7 8 8 9 9 10 10 9 7
4 4 3 3 3 2 2 1 1 1 1 1 1 1 1 2 2 3 3 4 4 4 4 3 4 4 5 6 6 6 6 6 7 7 7 6 7 6 7 8 8 8 7
4 4 3 3 3 2 2 1 1 1 1 1 1 1 1 2 3 4 4 4 4 4 3 4 5 5 6 6 6 7 6 6 6 7 6 6 6 5 5 6 7 9 7
4 4 3 3 2 2 2 2 2 1 1 1 1 2 2 3 4 3 3 4 4 4 5 5 6 6 6 6 6 7 7 6 6 6 6 6 5 4 3 4 4 6 8
4 3 3 3 2 2 2 1 1 2 1 1 2 3 3 4 3 4 4 5 5 5 6 6 7 7 7 7 7 7 6 7 6 6 5 6 5 4 4 4 4 4 5
4 4 3 2 2 2 2 2 1 2 2 3 3 4 5 4 4 4 6 5 6 6 6 7 7 7 7 7 7 7 7 7 6 6 6 5 4 5 4 3 3 4 5
4 3 3 3 3 2 2 2 2 3 3 4 5 5 4 4 4 6 7 6 6 6 7 7 7 6 7 7 7 8 7 6 6 6 6 6 4 5 4 4 5 6 6
4 3 3 3 3 2 2 2 2 3 5 5 5 5 4 5 5 7 6 6 6 6 7 7 7 7 7 7 7 7 6 6 6 6 5 5 5 5 5 6 7 7 6
4 4 3 3 3 2 2 2 3 4 5 5 5 5 5 5 6 7 6 6 6 7 7 7 7 7 7 7 7 6 7 7 6 5 4 5 5 6 7 7 8 7 8
4 4 4 3 3 3 2 3 4 5 5 5 5 6 6 5 6 5 6 6 6 7 7 7 7 7 8 8 9 8 7 7 6 5 5 5 4 4 6 7 8 8 9
4 4 3 3 3 3 3 4 4 5 4 5 6 6 6 7 6 7 7 7 7 7 7 8 8 8 7 10 9 9 9 7 7 7 6 5 4 4 5 5 6 6 9
4 4 3 3 3 3 3 4 4 5 6 6 6 6 7 7 7 7 7 7 8 7 8 9 8 8 8 8 8 9 9 8 7 7 6 5 5 6 7 6 6 7 6
4 3 3 3 3 4 4 4 5 6 6 6 7 8 8 8 7 7 8 8 8 8 8 8 8 8 7 7 7 8 9 8 6 6 6 6 7 8 8 8 9 9 8
3 3 2 3 4 4 5 6 6 6 7 8 9 8 8 8 8 8 8 8 8 8 8 8 8 7 6 6 7 8 8 7 6 5 5 6 7 7 7 9 9 9 9
3 3 4 5 5 6 6 6 7 8 9 9 8 8 8 8 8 8 8 8 7 8 9 9 7 6 6 6 6 7 8 8 7 6 6 7 8 8 8 11 11 11 10
3 4 5 6 6 6 7 8 8 9 9 8 8 8 8 8 8 8 8 8 8 9 9 8 7 6 6 6 5 6 8 8 7 7 7 7 7 7 7 8 10 10 9
6 6 7 7 7 8 9 10 10 9 8 8 8 8 8 8 8 8 7 8 8 8 8 8 7 6 6 4 5 5 6 5 8 7 7 7 6 6 7 8 7 7 8
8 7 8 9 9 9 9 10 9 9 8 8 9 9 8 8 7 8 8 8 8 8 8 8 7 7 6 6 4 4 5 5 8 7 6 6 6 6 7 6 7 9 9
9 9 9 10 10 9 9 9 8 8 8 9 9 8 8 8 8 7 6 6 7 8 7 7 7 6 6 6 6 6 6 5 6 7 6 7 8 9 9 9 7 8 9
10 10 10 10 10 9 9 9 8 8 8 8 8 8 8 7 7 5 5 7 6 6 6 7 6 6 6 6 5 6 5 5 6 8 9 9 8 8 9 9 8 9 9
10 10 9 9 9 9 9 8 7 7 7 8 8 8 8 7 6 5 6 5 5 5 5 5 5 5 5 5 4 4 4 5 5 9 10 10 10 8 10 11 10 10 10

GFSMW_con_lsi_051.txt.gz
Lid_Strength_Index
4 4 4 2 2 1 1 2 2 2 1 2 2 3 4 5 4 4 3 2 2 2 4 4 4 5 5 6 6 6 7 7 7 8 8 8 7 8 8 8 8 7 7
4 3 3 2 2 2 2 2 2 2 2 1 2 3 3 4 4 3 2 2 3 3 4 5 5 6 6 6 6 6 7 7 7 9 9 11 9 8 7 8 8 8 7
5 4 4 4 2 3 3 2 2 2 1 1 2 2 3 4 3 3 3 3 3 4 4 5 5 6 6 6 6 6 7 8 8 8 9 11 13 10 9 8 9 8 9
4 4 4 4 3 3 2 1 1 2 1 1 2 3 4 4 4 4 3 4 3 4 4 5 5 5 5 6 6 5 7 8 9 8 7 9 10 12 12 10 9 9 8
4 4 4 3 3 3 2 2 2 1 1 3 3 3 4 3 3 3 3 3 4 4 4 5 5 5 5 6 7 7 8 8 9 9 9 9 9 10 11 12 11 9 9
4 4 3 3 3 3 3 2 2 2 4 3 3 3 3 3 3 3 3 3 3 4 5 5 6 6 7 7 8 8 9 9 9 8 9 9 10 9 9 10 11 11 10
5 5 4 4 3 3 3 2 4 5 4 3 2 2 4 4 4 5 5 6 6 5 5 6 7 7 7 7 8 8 9 9 9 9 8 8 8 8 7 8 10 11 10
6 5 4 4 3 4 5 4 4 3 3 2 3 3 4 5 6 6 5 5 5 5 7 8 8 7 7 7 8 9 9 9 9 9 9 8 7 8 7 8 10 11 11
7 6 6 5 6 5 5 4 4 3 3 3 3 5 6 6 6 5 5 5 5 6 8 9 9 9 8 8 8 9 9 9 9 9 9 9 8 8 7 7 7 7 10
7 6 6 5 5 4 3 3 3 3 3 3 4 4 6 6 6 5 5 6 7 7 7 9 8 8 8 8 9 9 9 10 10 9 9 9 8 7 7 6 5 6 7
7 7 6 4 4 3 3 3 3 3 4 4 5 6 6 5 5 5 7 7 7 7 8 8 8 8 8 8 9 9 9 9 10 9 9 9 8 7 7 7 7 7 7
6 6 6 5 4 3 2 2 3 4 5 6 6 5 5 5 6 5 7 7 7 7 8 8 8 8 8 8 9 10 9 9 9 8 9 8 7 8 8 9 9 8 8
6 6 6 4 3 3 3 3 4 6 6 6 5 5 5 5 6 7 7 7 7 7 8 7 8 8 8 9 9 9 9 9 8 9 8 8 7 9 9 9 9 9 7
6 6 5 4 3 3 3 4 6 6 6 5 5 6 5 6 7 7 7 7 7 8 8 8 8 8 9 9 9 9 9 9 9 7 7 7 8 9 9 8 9 8 9
6 6 6 5 5 5 5 6 6 6 5 6 6 8 7 7 6 7 7 7 7 7 8 8 8 9 9 9 10 10 10 11 9 8 7 8 6 4 7 8 9 9 10
5 5 5 5 5 5 7 7 7 6 5 7 7 7 7 6 7 8 8 8 8 8 8 8 9 10 9 10 9 10 11 9 9 9 8 8 6 5 5 5 6 7 10
5 5 5 5 5 6 7 6 6 7 7 7 7 7 7 7 8 8 8 8 9 8 8 9 9 10 9 9 9 9 10 10 9 9 8 7 6 7 8 7 7 8 7
5 5 6 7 7 7 6 7 7 7 7 7 8 8 8 9 8 8 8 9 9 9 10 10 9 9 8 7 7 7 9 9 8 8 8 8 8 8 8 9 9 9 8
5 6 7 8 9 9 8 8 8 8 9 10 9 9 9 9 9 9 9 9 9 9 9 9 9 9 8 6 6 7 9 8 8 7 7 7 8 7 7 9 9 10 9
6 8 9 9 9 10 9 10 10 10 10 9 9 8 8 8 9 9 9 9 9 9 9 9 8 6 7 5 5 6 8 8 8 8 7 6 8 7 7 11 11 12 10
8 8 9 9 10 9 9 10 10 10 9 8 8 8 8 8 8 9 8 8 9 10 10 9 8 7 7 6 4 5 8 8 8 8 8 8 7 7 6 7 10 11 9
10 10 10 11 10 10 10 10 11 9 8 8 8 8 8 8 8 8 8 8 9 9 9 11 9 8 7 5 5 4 5 7 9 8 8 8 6 5 6 7 7 7 8
10 10 10 10 10 10 10 10 10 9 9 9 9 9 8 8 8 8 9 9 8 10 9 9 10 9 7 7 4 4 4 5 8 8 7 6 5 5 6 6 6 8 10
10 10 10 11 10 10 9 10 9 9 9 10 9 9 8 8 8 7 7 8 9 10 9 9 9 9 8 8 8 7 6 5 6 7 7 8 7 9 8 9 8 9 10
10 10 11 11 11 10 9 9 9 8 9 9 8 8 8 8 8 7 7 7 8 8 9 9 8 9 9 7 5 6 7 8 7 8 8 8 10 9 8 9 9 9 10
10 11 10 10 11 11 11 9 8 8 9 9 9 9 9 9 8 8 7 6 6 6 5 5 6 6 4 4 3 4 4 4 5 8 11 14 14 12 9 9 10 12 12

GFSMW_con_lsi_054.txt.gz
Lid_Strength_Index
4 3 3 3 2 2 2 3 3 4 3 3 3 3 5 5 5 5 4 4 3 3 4 5 6 6 6 7 7 7 8 8 8 9 9 9 8 9 8 8 9 8 8
5 3 3 3 3 2 2 3 3 4 3 2 3 3 5 5 6 5 4 3 4 4 5 6 6 6 7 7 7 7 8 8 8 9 10 11 10 9 8 9 8 9 9
6 4 4 3 2 2 2 3 3 3 3 2 2 4 5 5 4 5 4 4 4 4 5 5 6 6 6 7 7 8 8 9 8 8 9 12 13 12 10 9 9 9 9
4 4 4 4 3 2 2 3 3 3 2 1 2 5 5 5 5 4 4 4 4 4 4 5 5 6 6 7 7 7 8 9 10 9 7 9 10 12 13 11 9 9 8
4 4 4 3 3 2 3 3 2 2 2 1 3 4 5 5 4 4 4 4 4 4 5 5 6 6 6 7 8 9 9 9 10 10 10 10 11 11 12 12 12 10 9
4 4 4 3 3 2 2 3 3 3 2 2 4 4 4 4 4 4 4 4 4 5 5 6 6 7 8 8 9 10 10 10 10 10 10 10 11 11 11 11 10 10 10
5 5 5 4 3 3 3 3 3 3 4 5 5 4 4 4 3 4 4 5 6 6 6 7 7 7 8 8 9 10 10 10 10 10 10 9 9 9 9 10 11 11 12
5 5 4 4 4 4 4 3 3 5 6 6 5 5 5 5 5 5 5 5 6 7 7 7 7 7 7 8 9 9 10 10 10 10 10 10 9 9 9 10 12 13 13
5 5 4 4 4 4 4 4 5 6 5 4 5 6 6 6 5 5 6 6 7 8 7 8 8 8 9 9 9 10 10 10 11 11 10 10 8 8 9 8 8 9 12
7 6 5 5 5 5 6 6 6 5 4 5 5 6 6 6 5 5 6 7 7 8 7 8 8 8 9 8 9 9 10 10 10 10 10 10 9 9 8 9 8 8 9
7 6 5 5 5 5 5 5 5 4 4 5 6 6 6 5 5 6 7 7 7 8 7 8 8 8 8 8 9 10 9 9 10 10 10 9 9 9 9 9 10 11 10
7 6 6 6 6 5 5 4 4 3 5 6 6 6 6 5 5 7 7 7 8 7 8 8 8 8 8 8 9 10 10 10 10 10 10 9 8 10 10 11 11 10 10
7 7 6 6 5 4 4 4 5 7 7 6 6 6 6 5 6 6 7 7 7 8 8 8 8 8 8 9 9 9 9 9 9 9 9 9 8 10 10 10 10 10 8
6 7 7 6 5 5 5 6 6 6 6 6 6 6 6 5 7 7 8 8 7 8 9 8 8 8 9 9 9 10 10 9 9 9 9 9 9 10 10 10 10 9 9
7 7 7 7 5 5 6 7 6 6 6 6 8 7 7 8 7 8 8 8 8 8 8 8 8 9 9 9 10 9 10 10 10 9 8 8 7 5 7 9 10 9 10
7 7 6 5 5 6 7 7 7 7 7 9 9 8 7 7 7 8 8 9 8 8 8 8 9 10 9 9 9 9 11 9 9 9 8 8 6 6 5 6 6 7 10
5 5 5 5 6 7 7 8 8 9 10 9 8 7 7 8 8 8 8 8 9 9 9 9 9 9 9 8 8 7 9 9 9 9 9 8 6 7 8 7 7 7 7
6 8 8 9 9 9 10 10 9 9 9 10 9 8 9 9 8 8 9 9 9 9 9 9 9 9 8 7 6 6 9 9 9 8 8 8 8 8 8 8 9 9 9
9 10 10 10 10 10 9 10 11 10 9 9 9 9 8 8 9 9 9 9 9 9 9 8 9 9 8 6 5 5 9 9 9 7 7 7 8 7 6 8 9 9 9
10 10 10 10 10 10 10 11 11 10 10 9 9 8 8 9 9 9 9 9 10 9 9 9 8 7 7 5 4 5 9 8 8 7 7 6 8 6 7 10 10 12 10
11 11 11 11 11 10 10 10 10 10 9 8 8 8 8 9 8 9 9 9 10 9 9 9 8 7 7 7 5 4 7 7 7 8 8 8 6 6 6 6 9 11 9
11 11 11 11 10 9 9 10 11 10 9 10 10 10 9 8 8 9 9 9 9 10 9 11 9 9 8 6 5 4 5 5 7 7 7 8 6 5 5 6 6 6 8
11 10 11 11 10 10 10 11 10 10 10 10 10 10 9 9 9 10 9 10 10 10 9 9 9 9 8 8 5 5 4 4 6 6 6 6 5 5 6 5 5 7 10
10 10 10 11 11 10 10 10 10 10 10 11 10 10 10 10 10 9 9 9 10 9 9 9 9 9 8 8 8 7 6 4 4 6 6 8 7 9 9 9 7 8 10
10 10 10 11 11 11 11 11 11 11 11 10 10 10 10 10 10 9 8 8 7 7 7 9 9 10 10 8 7 6 7 7 6 6 8 8 8 9 9 9 9 9 9
10 10 11 13 13 13 12 12 11 10 10 10 11 11 11 10 10 9 8 6 6 6 6 5 7 7 6 5 4 4 4 4 5 7 8 8 10 10 9 10 10 10 10

GFSMW_con_lsi_057.txt.gz
Lid_Strength_Index
4 3 3 4 4 3 3 3 3 4 4 5 5 6 6 6 6 5 4 4 4 4 6 6 6 6 7 7 7 8 8 8 8 9 9 9 9 9 9 9 9 9 9
5 4 4 4 4 3 3 3 3 4 4 4 4 4 5 5 6 5 5 5 4 4 5 6 6 6 7 7 7 8 8 9 9 10 11 12 11 10 9 9 9 10 9
5 4 5 4 3 3 3 3 3 3 4 3 4 6 6 6 7 6 6 5 4 4 5 6 6 7 7 7 8 8 8 9 9 9 10 13 14 12 10 10 10 10 10
5 4 4 4 3 2 2 2 2 3 3 3 5 5 6 7 7 6 5 5 4 4 5 5 6 7 7 7 8 8 8 9 10 10 8 10 11 12 13 11 10 10 9
5 4 4 3 3 2 2 2 2 3 3 3 3 5 7 7 6 5 5 5 5 5 5 6 6 7 7 8 9 9 10 9 9 10 10 11 11 12 13 14 13 11 10
6 4 3 3 3 2 2 3 3 3 3 3 3 5 6 6 5 5 5 5 5 6 6 6 7 7 9 10 10 9 10 10 11 11 11 10 11 11 12 14 13 13 11
6 5 4 4 3 3 2 2 3 3 3 3 4 4 5 5 5 5 4 6 7 7 7 7 8 8 9 9 9 9 10 10 11 11 10 10 10 10 11 12 12 12 13
5 5 4 4 3 3 2 2 3 3 3 4 4 5 6 5 5 5 5 6 6 7 7 7 8 7 7 9 10 10 11 10 10 11 11 11 10 10 10 11 12 14 12
5 5 4 4 3 3 3 3 3 3 5 5 6 7 7 7 6 6 6 7 7 6 7 7 7 8 9 9 9 10 10 11 11 11 11 11 10 10 9 10 9 9 11
6 5 4 4 4 3 3 4 4 4 6 6 7 8 8 6 6 6 7 7 7 7 8 8 8 9 9 9 9 9 10 10 11 10 11 10 10 10 10 8 8 8 9
6 5 4 4 4 4 5 5 6 6 7 8 8 7 7 6 7 7 7 7 7 7 7 7 7 8 9 9 9 10 10 10 10 10 10 10 10 10 10 10 11 11 11
6 5 4 5 5 6 6 5 5 6 7 9 7 7 7 7 7 7 8 7 6 6 7 7 9 9 9 9 10 10 11 11 11 10 10 10 8 10 11 11 11 11 11
8 7 6 6 5 5 6 7 8 9 8 7 7 6 6 6 7 8 7 7 6 7 8 9 9 9 9 10 10 10 10 10 10 9 9 9 9 9 10 11 11 11 9
7 8 8 7 6 6 7 8 8 8 7 7 6 7 7 7 7 7 8 7 8 8 8 8 9 9 9 10 10 9 10 10 9 9 10 9 9 9 10 10 10 10 10
7 8 8 7 7 8 8 7 7 6 6 6 6 6 6 7 8 9 9 8 8 8 8 8 9 9 9 10 10 10 10 10 10 9 9 8 7 6 7 9 10 10 11
7 7 7 7 6 7 8 7 7 6 6 6 8 8 8 8 8 8 8 8 8 8 8 9 9 10 10 9 9 10 11 9 9 9 9 8 6 7 5 5 6 8 10
6 6 6 6 8 8 7 8 9 10 10 9 8 8 8 8 8 8 8 9 9 9 9 10 10 10 9 8 8 7 9 9 9 9 9 8 7 7 7 5 6 7 7
9 9 9 9 10 10 10 10 10 10 10 9 10 9 9 8 8 8 8 9 9 10 10 10 9 10 8 7 6 6 8 9 9 9 9 8 9 8 8 9 9 9 9
11 12 12 11 11 11 11 12 11 10 10 10 9 8 7 8 8 9 9 10 11 10 9 9 9 9 9 7 6 6 8 9 9 8 8 7 8 6 5 8 9 9 9
11 11 11 11 12 12 12 12 11 11 10 9 8 7 8 9 9 10 10 10 10 9 10 10 10 8 8 6 5 5 9 9 8 8 8 6 7 6 6 9 10 11 9
12 11 11 11 11 10 10 11 11 10 9 8 8 9 9 9 10 10 10 10 10 11 11 10 10 9 8 7 5 5 8 8 7 8 8 8 6 6 5 6 9 10 9
12 11 11 11 11 10 10 11 10 9 9 10 10 11 11 11 10 10 10 10 11 11 11 12 10 9 8 6 6 5 5 6 7 7 7 7 6 5 5 6 6 5 8
12 12 11 11 10 10 10 11 11 10 11 11 12 12 11 11 10 11 11 11 11 12 11 10 10 9 8 8 6 5 5 5 6 6 6 6 5 5 6 5 5 7 9
12 10 11 11 11 10 11 11 11 11 12 13 13 12 12 11 11 10 10 11 11 11 9 9 9 8 7 8 8 8 8 6 5 6 5 6 6 7 7 8 7 8 10
11 10 11 12 13 13 12 12 12 12 13 13 12 12 11 11 11 10 10 10 9 9 8 7 7 7 8 7 7 7 8 8 7 6 6 7 7 8 8 9 8 8 10
11 12 12 13 13 13 13 12 12 13 13 13 12 12 11 11 11 11 10 8 8 6 6 5 6 6 5 5 4 4 4 4 5 6 7 8 8 8 8 9 9 10 11

GFSMW_con_lsi_060.txt.gz
Lid_Strength_Index
4 3 3 3 3 3 3 4 4 4 3 3 5 6 6 6 6 6 5 5 5 6 7 7 7 7 7 8 8 8 8 9 9 9 10 9 9 9 9 9 9 8 8
5 4 3 4 4 3 3 4 3 4 3 3 5 5 6 7 7 6 6 5 6 6 6 7 7 7 7 8 8 8 9 9 9 10 11 12 11 9 9 9 8 9 8
6 5 4 4 4 4 3 3 3 4 3 4 5 7 7 7 7 7 6 6 6 5 6 7 7 7 7 8 8 9 9 10 10 10 11 13 14 12 10 9 9 9 9
5 4 4 5 5 4 3 3 3 3 3 3 5 6 6 7 7 6 6 6 5 5 6 6 6 7 7 8 9 9 9 10 11 11 9 10 11 12 13 10 10 10 9
7 5 4 4 4 4 3 3 3 3 3 3 4 5 6 6 6 7 6 6 6 5 6 6 7 7 7 8 9 9 9 9 10 11 11 12 11 11 12 14 12 10 10
7 7 4 4 4 4 3 3 3 3 3 3 3 4 5 6 6 7 6 6 7 7 7 7 8 8 9 8 9 10 10 10 11 10 11 11 11 12 12 13 13 13 11
8 8 5 5 4 3 2 2 2 3 3 3 3 4 4 5 6 6 6 7 8 8 8 8 8 8 8 8 8 9 9 10 11 11 11 10 10 10 11 11 12 12 12
8 7 5 4 3 3 3 2 2 2 2 2 3 3 4 6 6 5 5 7 8 8 8 7 7 7 7 8 9 8 9 9 10 11 11 11 10 10 10 10 12 11 10
7 6 5 4 3 3 3 2 2 2 2 2 3 4 5 6 7 6 6 7 8 8 7 8 8 7 8 8 9 9 10 10 11 11 11 11 10 10 10 9 9 8 10
7 5 5 4 3 3 2 2 2 2 3 4 5 5 6 7 8 7 7 8 8 8 8 8 8 8 8 8 8 10 10 11 11 11 11 11 11 10 9 9 7 7 7
6 5 5 4 3 3 3 3 3 3 5 6 6 8 9 9 9 7 8 7 8 7 7 8 8 8 7 9 10 10 10 11 10 10 10 10 10 10 10 9 9 9 8
6 5 5 4 4 4 4 4 4 5 7 9 10 9 9 9 8 8 7 7 7 7 7 7 7 8 9 10 10 11 10 11 11 10 10 10 9 11 10 10 9 9 9
6 6 5 5 4 4 5 6 7 8 9 9 9 8 9 8 8 7 7 7 7 7 7 7 8 8 10 10 10 10 10 10 10 9 9 9 9 9 9 9 9 10 9
6 7 7 6 6 6 7 8 9 7 8 8 8 8 8 7 8 8 8 7 7 8 8 8 8 9 9 9 9 10 10 11 9 9 9 9 9 9 8 9 9 10 10
6 7 8 8 8 8 9 9 9 8 8 8 8 7 7 7 8 9 8 8 8 8 8 8 9 9 9 9 10 10 10 10 10 10 9 9 8 6 7 9 9 10 10
7 7 8 7 8 8 9 9 8 8 8 8 8 7 8 8 8 8 8 8 8 8 8 9 9 9 9 9 8 9 10 10 10 10 9 9 7 6 5 4 6 8 10
7 7 7 8 8 9 8 9 9 9 9 9 9 9 9 9 9 8 8 8 8 8 9 9 9 10 10 8 7 7 9 10 10 9 9 8 8 7 8 6 5 6 6
10 10 10 11 11 11 10 10 10 10 10 10 10 9 9 9 8 7 8 8 9 10 11 11 10 10 9 7 7 7 9 9 9 8 8 9 9 8 8 8 8 9 8
12 12 12 12 12 11 10 11 11 10 10 9 9 8 8 8 8 8 8 10 11 11 11 11 10 10 10 8 7 7 9 8 8 7 8 9 8 7 6 7 9 9 9
12 12 12 12 12 12 11 11 11 10 10 8 8 8 8 7 9 10 11 12 12 12 11 11 10 9 10 8 7 6 8 8 8 8 8 6 7 6 6 8 9 10 9
12 12 12 12 12 11 11 11 10 9 8 8 8 9 9 10 11 12 13 13 13 12 12 11 11 10 10 9 6 5 7 7 7 8 7 7 6 5 5 6 9 9 8
12 12 12 12 12 12 11 12 11 10 10 11 11 11 11 12 12 13 13 13 13 12 12 13 11 10 10 8 7 5 5 5 6 7 6 6 6 5 5 5 6 6 8
12 12 12 12 12 12 12 12 12 11 12 12 12 13 13 13 13 14 13 13 12 13 12 11 11 10 9 10 7 5 5 5 5 6 5 5 5 5 5 4 5 6 7
12 12 12 14 14 13 13 13 13 13 13 13 13 14 14 14 14 13 12 13 13 13 11 11 10 10 9 8 8 8 7 6 5 5 4 4 5 5 5 5 4 5 7
12 13 14 14 14 13 14 13 13 13 14 14 14 15 15 15 14 13 12 11 11 11 11 10 10 10 9 8 5 5 5 6 6 6 5 5 5 6 6 6 6 6 7
13 14 14 14 14 15 15 15 14 15 16 15 15 16 16 15 14 14 13 11 10 9 9 8 8 8 6 6 6 5 5 4 4 6 6 5 6 7 7 7 7 7 8

GFSMW_con_lsi_066.txt.gz
Lid_Strength_Index
3 2 2 1 1 0 0 0 0 -0 -0 0 0 0 0 -0 -0 -1 -1 -2 -2 -1 -1 1 1 1 1 1 1 1 2 2 1 2 2 2 3 3 3 3 4 4 4
4 3 2 1 1 1 1 0 0 0 -0 -0 -0 -0 -0 -0 -1 -1 -1 -2 -1 -0 0 1 1 1 1 1 1 1 2 2 2 3 4 4 4 4 4 3 4 3 3
4 3 3 2 1 1 1 1 0 0 -0 -0 -0 -0 -0 -0 0 -0 -0 -1 0 -0 0 1 1 1 0 1 1 1 2 3 3 3 5 8 7 6 4 4 4 4 4
3 3 3 2 2 1 0 0 0 0 -0 -0 0 0 1 2 1 0 -0 0 1 1 1 1 1 1 0 1 1 2 2 3 5 4 6 6 7 8 8 5 4 4 4
4 3 3 2 2 1 1 0 0 0 -0 -0 -0 0 1 0 -0 -0 0 0 1 2 2 1 1 1 1 1 2 2 3 5 4 6 7 7 6 6 7 7 6 5 5
3 3 2 2 2 1 1 1 1 0 0 0 -0 0 1 1 1 1 1 2 2 3 2 2 2 1 1 1 2 3 4 5 5 6 6 6 7 7 7 8 7 7 6
3 3 3 3 2 2 1 1 1 1 0 0 0 0 0 0 1 1 1 2 3 3 2 2 2 1 2 2 4 4 6 6 7 7 5 6 6 5 6 7 7 7 6
3 3 3 2 2 2 2 1 1 1 1 1 0 0 0 1 1 0 1 2 4 2 1 2 2 2 3 4 6 4 5 7 7 5 5 5 5 5 6 7 7 8 7
3 3 2 2 2 2 2 1 1 1 1 1 0 1 0 1 1 0 1 3 3 2 2 2 2 3 4 6 6 6 7 7 6 5 5 5 5 5 5 5 6 6 8
4 3 2 2 2 1 1 1 1 1 1 0 1 0 0 0 0 0 2 3 2 2 2 3 4 7 6 7 7 7 8 7 6 6 6 5 5 5 5 6 5 4 6
4 3 3 2 2 1 1 1 1 1 1 1 0 1 1 0 0 1 2 3 3 3 3 4 6 7 8 8 8 8 8 7 6 5 5 5 5 5 5 5 4 4 4
4 3 3 2 2 2 2 1 1 1 1 0 1 1 1 1 3 3 4 4 5 6 7 7 8 8 8 8 8 7 6 6 6 6 5 6 6 5 5 4 4 4 3
3 3 3 3 3 2 2 2 1 1 1 1 2 4 5 5 6 6 6 7 7 7 7 7 8 8 8 8 7 7 6 5 5 6 6 6 6 5 4 4 4 4 4
3 3 3 3 3 2 2 2 2 2 3 4 6 6 7 6 6 6 6 7 6 7 8 7 7 7 7 8 6 6 5 5 5 5 6 5 5 5 4 4 4 4 4
4 3 4 3 3 3 2 2 3 5 5 6 6 6 6 6 7 7 7 6 7 7 6 6 6 6 6 6 6 5 5 5 6 6 6 5 5 5 5 5 4 4 4
4 4 3 3 3 3 3 3 3 4 5 6 7 7 7 7 6 8 7 6 6 7 7 8 7 7 6 7 8 8 6 6 6 6 5 4 5 5 6 6 6 5 4
5 4 4 3 3 3 3 4 4 4 5 6 6 6 6 6 6 7 8 8 7 7 7 6 6 5 5 8 9 9 7 6 6 6 5 5 4 5 4 5 6 6 5
4 4 3 3 2 2 2 3 3 3 4 4 4 5 6 7 7 7 7 7 6 6 5 5 6 6 6 9 10 10 7 6 6 5 5 4 4 3 3 3 3 2 2
4 4 3 3 3 3 3 4 4 5 6 6 7 6 7 7 7 7 7 7 6 6 6 7 7 7 7 9 10 9 7 7 6 5 4 4 4 4 4 3 3 3 3
5 5 4 4 4 3 4 5 6 6 6 6 7 6 6 6 7 7 7 7 7 8 7 8 7 8 7 9 10 9 8 7 6 5 5 6 5 5 5 3 3 4 3
6 5 5 5 4 4 4 5 5 6 5 6 7 7 8 8 8 8 8 8 7 7 7 8 8 8 9 9 10 10 9 9 9 8 7 5 6 5 4 4 3 4 2
7 6 6 6 5 4 5 6 6 6 7 8 9 8 9 9 9 9 8 8 9 10 10 10 10 9 9 11 10 10 9 9 9 8 6 5 5 5 5 4 4 4 4
7 7 7 7 6 6 6 8 8 8 8 9 9 9 10 10 11 11 11 11 11 11 11 11 11 11 10 10 11 11 10 10 9 8 7 7 6 6 6 5 5 5 4
7 7 8 8 8 8 8 8 8 9 9 10 11 11 12 12 12 12 12 11 11 12 12 12 12 12 12 11 11 11 10 10 9 9 7 6 6 6 6 5 4 4 4
8 8 8 9 10 10 10 10 10 10 11 12 13 13 13 13 12 12 12 12 12 13 13 13 13 13 13 13 13 12 11 11 10 9 7 6 5 5 4 3 3 3 3
8 9 10 10 11 12 13 12 12 12 13 14 14 14 13 13 13 12 12 14 14 14 15 15 15 13 14 14 13 12 12 11 10 8 8 8 6 4 4 3 3 3 3

GFSMW_con_lsi_072.txt.gz
Lid_Strength_Index
3 3 2 2 2 1 2 2 2 2 0 1 1 1 1 1 0 -0 -0 -0 -0 -1 0 0 0 1 1 2 1 3 4 4 3 4 4 4 4 4 4 4 5 5 5
4 3 3 2 2 2 1 1 1 1 1 1 1 1 1 0 0 -0 -0 -0 -0 -0 -0 0 1 1 1 1 2 3 4 4 2 5 5 6 5 4 4 5 5 5 6
5 4 3 3 2 2 2 1 1 1 1 0 0 1 0 1 1 1 0 0 -0 -0 -0 0 0 1 1 1 2 3 3 4 4 4 5 8 8 8 5 5 5 6 6
4 4 3 3 3 2 1 1 1 1 1 0 1 1 2 2 1 1 0 0 -0 -0 -0 -0 0 0 1 1 2 2 3 3 5 5 5 5 6 8 10 7 7 6 6
4 4 3 3 2 2 2 1 1 1 1 1 1 1 2 1 1 1 1 1 0 -0 -0 1 1 1 1 1 2 3 3 3 6 6 6 7 7 6 9 11 9 7 7
4 3 3 2 2 2 2 1 1 1 1 1 1 1 2 2 2 2 2 1 1 1 0 0 1 1 1 2 2 3 3 6 6 7 7 7 7 7 9 10 10 10 8
4 4 4 3 3 3 2 2 2 2 1 1 1 1 1 1 2 2 2 2 1 2 1 1 2 1 2 2 3 3 5 7 7 7 7 6 7 6 8 9 9 11 9
4 4 3 3 3 2 2 2 2 2 1 1 1 1 1 1 1 1 1 1 1 2 2 1 2 2 2 3 3 5 6 7 6 7 7 7 6 7 8 9 10 12 11
4 4 3 3 3 2 2 2 2 2 1 1 1 1 1 1 1 1 1 1 1 1 2 2 2 3 4 5 6 7 8 8 8 8 8 7 7 6 7 7 8 11 14
3 3 3 3 2 2 2 2 2 2 1 1 1 1 1 1 1 1 2 2 1 2 2 3 4 6 6 7 7 8 8 8 8 8 8 7 7 7 7 7 7 8 10
4 3 3 3 2 2 2 2 2 2 2 1 1 1 1 2 2 2 2 2 1 2 3 6 7 7 7 8 8 8 8 9 9 8 8 8 7 8 7 7 7 9 9
3 3 3 3 2 2 2 2 2 2 2 1 1 1 1 2 3 3 3 3 4 5 6 7 8 8 7 7 8 8 7 8 8 7 6 6 5 6 7 7 8 8 9
3 3 3 3 3 2 2 2 2 2 2 2 2 3 4 5 6 7 7 6 6 7 7 7 7 8 8 8 7 7 7 6 6 6 6 6 6 7 7 8 8 9 7
4 3 4 3 3 3 2 2 3 2 3 3 5 6 7 7 7 7 7 7 7 8 8 8 8 8 8 7 7 6 7 7 6 6 6 6 7 7 8 8 9 8 9
4 3 3 4 3 3 3 3 3 4 5 6 7 8 8 8 7 7 7 7 8 7 8 8 8 7 7 6 6 6 6 7 7 7 6 6 6 6 7 7 9 9 9
4 4 3 3 4 4 5 6 6 6 6 7 8 8 8 7 7 8 8 7 8 8 8 8 7 7 6 8 9 9 8 8 8 9 8 8 7 8 8 8 8 8 8
4 4 3 4 4 4 5 6 6 6 7 8 7 7 7 7 7 7 8 8 8 8 7 7 6 6 7 8 9 10 10 10 10 10 9 9 7 8 7 8 9 9 8
4 4 4 4 3 4 5 5 6 6 7 7 7 6 7 7 8 8 8 7 7 7 6 6 6 6 9 10 11 11 11 11 10 9 9 10 10 9 10 11 11 11 9
4 4 3 3 3 3 3 5 6 6 6 6 7 6 6 7 7 7 7 6 6 5 5 6 8 9 11 12 12 11 11 11 12 10 11 11 11 10 10 12 13 12 10
3 3 3 3 3 2 2 3 4 4 5 5 6 5 6 6 6 6 6 5 5 6 8 8 8 10 13 12 12 12 13 14 14 13 12 12 12 11 11 12 13 13 11
3 3 3 3 3 2 2 3 4 5 5 5 5 6 5 5 5 5 6 7 8 8 10 11 11 11 12 13 13 13 15 15 15 15 15 14 12 11 11 11 12 11 10
3 3 3 4 3 3 3 4 5 5 5 5 5 5 6 7 7 8 8 9 9 11 12 13 13 13 13 13 13 14 14 14 15 15 15 14 13 12 11 10 9 8 8
4 3 4 4 4 4 4 5 5 5 6 6 7 8 8 8 8 9 11 11 11 13 14 14 14 14 13 15 14 14 14 14 15 15 14 14 13 12 11 9 8 8 7
5 5 5 5 5 4 5 5 6 6 6 8 8 9 11 11 12 12 12 12 13 14 14 14 15 15 15 16 16 16 16 15 15 15 16 15 13 12 11 11 9 8 7
5 5 6 6 7 7 8 7 7 7 8 9 11 12 12 12 13 14 14 14 16 16 16 16 15 17 17 17 17 17 17 17 16 17 16 14 13 13 12 12 10 9 9
6 6 7 8 9 9 9 9 8 9 11 12 13 13 13 14 13 14 15 15 15 15 16 16 16 16 16 17 16 16 15 15 15 16 16 16 15 14 13 12 12 11 10

GFSMW_con_lsi_075.txt.gz
Lid_Strength_Index
4 3 3 3 3 4 4 4 5 4 3 3 3 2 2 1 1 0 -0 -0 -0 -0 1 1 2 2 2 3 3 4 5 6 5 5 6 5 6 5 6 6 7 6 6
5 4 3 3 3 2 2 3 3 2 1 1 1 1 1 1 1 1 0 -0 0 0 1 1 1 2 2 3 3 4 5 6 5 6 6 8 7 6 6 6 6 7 6
6 5 4 3 3 2 2 2 2 1 1 0 0 1 2 2 2 2 1 0 -0 0 0 1 2 3 2 3 4 5 5 6 6 6 7 9 10 9 7 6 6 6 7
5 4 4 4 3 2 2 2 2 2 1 0 1 2 2 3 2 1 1 1 0 0 -0 1 1 3 2 3 3 3 5 6 6 7 7 8 9 10 10 9 8 7 7
5 5 4 3 3 2 2 3 3 2 1 1 1 1 3 2 2 1 1 1 0 1 1 0 1 2 2 2 3 4 4 4 5 7 8 9 9 9 10 11 9 9 8
5 4 4 3 3 3 2 2 2 1 1 1 1 2 3 2 2 2 2 1 1 1 1 1 1 2 2 2 2 3 3 5 6 7 8 8 9 9 8 10 11 11 9
5 5 4 4 4 3 3 3 2 2 1 1 1 2 2 2 2 2 2 2 2 2 2 2 3 3 3 2 3 3 4 7 7 8 8 7 8 7 8 9 10 11 11
5 4 4 4 3 3 3 2 2 2 2 1 1 1 2 2 1 1 1 1 2 2 2 3 3 3 2 3 3 5 6 6 8 7 7 7 7 7 7 9 10 12 12
5 5 4 3 3 3 3 2 2 2 2 2 2 2 1 2 2 2 2 2 2 3 3 3 3 4 3 5 6 6 7 6 7 8 8 8 7 7 7 7 8 10 14
6 4 4 3 3 3 2 2 2 2 2 2 2 2 2 1 2 2 2 3 2 3 3 3 4 5 6 6 6 7 7 7 8 8 8 8 7 7 6 6 7 9 10
5 5 5 4 3 3 3 2 2 2 2 2 2 2 2 2 1 3 3 4 3 4 4 5 5 6 7 7 7 7 7 7 7 6 6 6 6 6 7 8 8 9 11
5 5 5 5 3 3 3 2 2 2 2 2 2 2 2 3 3 3 3 4 4 5 6 5 6 7 7 7 7 7 7 7 7 7 7 7 6 8 8 9 9 10 10
6 5 5 5 4 4 3 3 2 2 3 2 2 3 5 5 5 5 6 5 6 6 6 7 7 7 8 8 7 7 7 7 7 7 7 7 7 8 9 10 10 9 8
5 5 5 5 4 4 3 4 5 4 5 6 6 7 6 7 7 8 7 7 7 8 7 7 8 8 7 7 7 6 6 6 6 6 6 7 8 8 9 10 10 10 11
6 6 5 5 4 4 5 6 7 7 7 8 8 9 8 8 8 8 8 8 8 8 8 8 8 8 8 7 7 6 6 6 7 7 6 7 7 8 8 8 10 10 11
5 5 4 4 4 4 6 6 7 8 8 8 9 9 8 9 9 9 8 7 8 8 8 8 8 8 7 8 8 7 9 9 10 11 11 10 10 10 10 11 11 11 12
5 5 5 5 5 6 7 8 8 8 8 8 8 8 8 8 8 8 8 8 9 8 9 8 7 7 7 8 8 9 10 11 11 12 12 11 11 11 12 12 12 12 10
5 5 5 6 7 8 8 8 8 8 8 8 8 9 9 9 8 8 8 8 8 8 8 7 7 8 10 10 10 11 12 12 13 13 13 14 14 13 12 14 14 14 13
5 5 5 7 8 8 8 8 8 7 7 7 8 8 9 9 8 8 8 8 8 8 7 6 10 12 12 11 11 12 14 14 15 14 14 14 15 12 12 14 15 15 15
5 4 5 6 7 7 7 7 6 6 8 8 8 7 7 7 8 8 8 7 6 6 8 10 11 12 13 12 12 14 16 17 17 16 15 14 14 13 13 15 15 16 15
5 5 5 5 5 5 5 6 6 6 5 6 6 7 7 7 7 7 7 7 9 10 13 13 13 13 14 14 13 14 17 17 16 16 16 16 14 14 13 13 14 14 13
5 5 6 7 5 5 5 6 7 6 6 6 7 7 6 6 7 9 10 10 11 14 15 15 15 15 16 14 14 14 15 15 16 16 16 16 15 14 13 13 12 12 13
5 5 6 6 6 6 6 8 8 7 7 7 8 9 9 9 9 11 12 13 14 15 15 15 15 16 16 16 15 15 16 16 17 16 16 15 15 14 14 13 14 14 13
6 6 6 7 7 7 7 8 8 8 9 10 11 11 13 13 13 13 13 15 16 16 16 15 16 16 17 18 18 17 17 17 17 17 17 17 15 16 15 15 13 13 13
7 7 7 9 9 9 9 9 9 10 12 13 13 13 13 14 16 15 15 16 16 15 16 17 16 18 19 18 17 17 17 19 16 19 19 17 16 16 15 14 14 13 13
8 9 10 11 12 14 14 12 11 12 13 14 14 14 15 15 15 16 16 15 15 15 15 15 16 16 16 17 17 16 16 16 15 18 20 20 22 20 16 16 15 14 14

GFSMW_con_lsi_081.txt.gz
Lid_Strength_Index
4 3 3 2 3 3 3 3 4 4 4 5 5 4 4 5 4 3 2 2 2 2 2 2 3 2 2 3 4 5 6 7 7 8 8 8 8 8 8 7 6 6 6
6 4 3 3 4 4 4 4 4 4 4 4 4 3 3 3 3 4 3 3 2 1 1 2 3 3 4 4 4 5 6 6 7 8 9 9 9 8 8 9 9 9 9
6 5 4 4 4 4 4 4 3 3 3 3 4 3 3 3 3 4 4 2 1 1 1 2 3 3 4 4 4 5 6 6 7 7 7 9 10 9 8 8 9 9 10
5 5 4 4 4 3 3 4 3 3 2 3 4 4 4 4 5 4 3 2 1 0 0 1 2 3 3 4 4 4 5 5 7 6 6 7 8 9 9 8 8 8 8
5 5 4 4 3 3 3 3 3 3 3 3 3 3 4 4 3 3 2 2 1 0 0 0 1 2 2 3 4 5 5 5 5 5 7 8 8 8 9 10 10 8 8
5 5 4 3 4 3 3 3 3 3 3 3 3 3 3 3 3 3 3 2 2 1 0 0 1 1 2 3 4 3 5 5 5 6 7 7 7 7 8 9 9 9 7
6 5 5 4 4 4 3 3 3 3 3 3 2 3 3 3 3 3 3 2 2 1 1 1 1 1 1 2 3 4 4 5 5 7 7 6 6 6 6 7 8 9 9
5 5 5 5 5 4 4 3 3 3 3 3 3 3 2 2 2 2 2 2 2 1 1 1 1 1 1 3 3 4 5 6 6 6 6 6 6 6 6 7 8 9 9
6 5 4 4 5 4 4 4 4 3 3 3 2 2 2 2 1 1 2 2 2 1 1 0 1 2 3 3 4 5 6 6 6 6 5 6 6 6 6 5 6 7 9
6 5 5 4 4 5 4 4 4 4 3 3 3 2 1 1 1 1 2 3 2 2 2 3 3 4 4 4 5 6 6 6 6 6 6 6 7 6 5 5 5 6 8
5 5 5 4 4 4 5 5 4 4 4 3 3 2 2 1 1 1 2 3 2 2 3 3 3 4 4 5 5 6 7 7 7 7 7 7 6 6 6 5 6 6 7
5 5 4 4 5 4 4 5 5 4 4 2 2 2 1 1 2 2 3 2 3 3 2 3 3 3 4 5 6 7 7 7 8 7 7 7 5 6 6 6 7 8 9
6 5 5 5 4 4 4 4 4 4 4 3 3 2 2 2 2 2 3 3 3 3 2 3 4 4 6 6 7 7 7 7 7 7 7 7 6 7 7 7 8 9 9
7 7 5 4 4 3 3 3 3 3 3 3 3 3 3 3 2 3 3 3 3 3 3 4 4 5 6 7 7 7 7 7 7 7 7 6 6 7 8 8 9 10 13
7 7 6 6 5 5 4 3 3 3 3 3 4 4 5 5 6 6 6 6 6 6 6 7 7 8 8 8 8 7 7 8 8 7 6 8 9 10 10 11 14 15 16
8 6 6 6 5 4 5 5 6 6 6 5 7 7 7 7 7 8 7 7 8 8 8 8 9 9 8 10 9 8 8 8 8 10 10 11 11 11 12 12 13 14 17
8 7 6 5 4 6 5 5 5 5 7 7 7 8 8 8 8 8 9 9 9 9 9 9 9 8 8 10 10 10 10 10 11 11 12 13 14 14 15 14 15 15 15
7 6 5 5 6 5 6 6 6 7 7 8 8 8 8 8 8 9 9 9 9 9 9 8 8 8 9 10 11 11 12 12 13 13 15 16 16 15 16 16 17 17 16
6 5 6 5 5 5 6 7 8 8 8 9 8 8 8 9 9 10 9 9 9 10 9 9 10 10 10 11 11 12 12 14 15 16 16 16 17 15 15 16 16 16 15
4 6 7 6 6 6 6 7 8 8 9 9 10 9 9 9 9 8 9 9 9 9 10 12 11 11 12 11 11 13 14 16 17 16 16 16 16 16 15 16 16 17 16
6 6 6 6 7 7 7 8 8 9 9 9 9 8 7 7 8 8 8 10 11 12 13 14 14 13 13 13 13 13 15 16 17 17 17 17 16 15 15 14 15 16 16
5 5 6 8 8 9 9 9 9 8 8 8 8 8 8 8 9 10 11 12 13 14 15 16 16 15 14 14 14 14 15 16 16 17 17 17 16 15 15 15 15 16 16
6 7 8 9 8 8 7 9 8 8 8 8 10 11 11 11 11 11 13 13 13 14 15 16 17 17 17 16 16 16 16 17 17 17 17 16 16 15 15 15 16 16 17
8 8 8 8 8 8 8 8 9 10 11 13 13 13 14 14 14 14 14 14 15 15 15 16 17 18 18 18 18 18 18 17 17 17 17 17 16 16 16 16 16 17 17
10 10 11 10 10 9 10 10 12 12 14 14 14 15 15 16 17 17 17 17 16 15 15 16 16 19 18 18 18 17 17 17 17 17 18 17 18 18 18 18 18 18 18
13 14 14 14 14 14 14 13 13 13 15 15 15 15 16 16 17 17 17 15 16 16 15 16 17 17 16 17 17 17 16 16 16 17 19 20 21 20 19 20 20 19 19

GFSMW_con_lsi_084.txt.gz
Lid_Strength_Index
4 3 3 2 3 3 3 4 4 4 4 4 4 4 4 4 3 3 3 3 3 3 4 4 4 4 5 4 5 5 5 6 7 8 8 8 8 8 8 7 6 5 5
5 4 3 3 4 4 3 3 4 4 3 4 4 3 3 4 4 3 3 2 2 3 3 3 4 4 4 4 4 4 5 6 7 8 9 9 8 7 7 8 8 7 6
6 5 4 3 3 4 4 4 4 4 4 3 4 5 5 4 4 4 4 3 2 2 2 2 2 3 3 3 4 5 5 6 7 7 8 10 10 9 8 8 8 8 8
6 5 4 4 3 3 3 3 3 3 3 3 3 4 3 4 3 4 3 3 2 1 1 2 2 3 3 4 4 4 5 6 7 7 7 7 7 8 9 9 8 7 8
6 6 5 4 3 3 3 3 3 4 4 3 3 4 3 2 5 4 5 4 3 1 1 1 1 2 3 3 4 5 6 5 6 7 7 7 8 8 8 9 9 8 7
6 6 5 3 3 3 3 3 4 4 3 3 4 4 5 5 5 4 4 3 3 1 1 0 0 1 2 3 3 4 4 4 4 5 6 7 8 7 8 8 8 7 6
6 6 6 5 4 4 3 3 3 4 3 3 3 4 4 4 4 3 4 4 4 3 2 1 1 1 1 2 2 3 4 5 5 6 5 5 6 5 6 6 7 9 7
5 5 5 5 5 5 4 4 3 3 3 4 3 3 3 3 3 3 3 3 3 3 2 1 0 0 0 1 2 3 3 3 4 5 6 5 5 6 6 6 6 9 9
6 5 5 5 5 5 5 4 4 3 3 3 3 3 3 3 3 3 3 3 3 2 2 2 1 1 2 2 2 2 3 4 4 5 5 5 5 5 5 6 7 6 9
6 5 5 5 5 5 5 4 4 4 4 4 3 3 3 3 3 2 2 2 3 3 2 2 2 2 3 2 3 4 4 5 5 5 6 6 6 6 6 6 6 6 7
6 5 5 4 4 5 5 5 5 5 5 4 4 3 3 3 2 2 2 2 2 2 2 2 2 3 3 3 4 4 5 5 6 6 6 6 7 6 6 6 6 6 6
6 5 5 5 4 5 5 5 5 5 5 5 4 4 4 4 3 2 1 1 2 2 2 2 2 3 3 3 4 5 5 5 7 7 7 7 6 7 6 6 7 6 7
6 6 5 5 5 4 4 5 5 5 5 4 5 4 4 3 3 2 2 1 2 2 2 2 3 2 4 5 5 5 6 6 6 6 7 7 7 7 8 8 8 7 7
6 6 6 5 4 4 4 4 5 5 4 5 5 5 4 4 3 3 3 3 3 3 3 2 2 3 5 6 6 6 7 7 7 7 7 7 7 8 7 8 8 9 10
8 7 6 5 5 5 4 4 4 4 4 5 5 5 5 5 4 5 5 4 3 3 3 4 5 5 6 6 6 7 7 8 8 8 8 9 9 9 9 9 11 12 14
9 7 6 5 5 5 5 5 5 5 4 4 5 6 5 6 6 6 6 7 6 7 7 7 8 8 8 10 10 9 8 8 9 11 12 12 12 12 11 11 13 14 15
9 8 7 6 6 5 5 6 5 5 5 6 6 6 6 7 7 7 8 8 8 8 9 9 9 8 9 11 11 10 9 11 12 13 13 13 13 12 13 14 14 15 15
8 8 7 6 6 6 6 5 5 6 6 7 7 7 7 8 8 8 9 10 9 9 9 9 9 9 11 12 12 13 13 14 13 13 13 13 14 14 15 16 16 16 16
7 8 6 5 5 6 5 6 6 6 7 8 8 8 8 9 9 10 10 9 9 9 10 10 10 11 13 13 13 13 13 15 15 15 15 15 15 14 14 16 16 16 16
6 6 5 5 5 5 5 7 7 7 8 9 9 9 9 9 10 10 9 8 10 12 12 13 12 13 13 13 13 14 15 16 16 16 16 15 16 16 15 16 16 17 17
6 5 5 6 6 6 6 7 7 9 9 9 9 9 8 8 8 9 9 11 12 13 14 15 15 15 15 14 14 14 16 16 16 17 17 17 17 16 15 15 16 17 17
6 7 7 7 7 6 7 8 10 10 10 10 9 9 9 9 10 11 11 12 13 15 16 16 16 16 16 15 15 15 16 16 16 17 17 17 17 16 15 16 16 17 17
7 7 8 8 8 8 8 10 9 9 10 11 11 12 12 12 11 12 13 14 14 15 16 16 17 17 17 17 16 16 17 17 17 17 17 17 17 16 16 16 17 17 18
8 7 8 10 9 10 9 9 10 10 11 12 13 13 14 15 15 15 14 14 14 15 15 16 17 17 17 18 17 18 18 17 17 17 17 17 17 17 17 17 17 18 18
11 11 11 11 11 12 12 12 12 13 14 15 15 16 16 17 17 17 16 15 15 15 15 16 16 17 18 18 17 17 18 17 17 18 18 18 18 18 18 18 18 19 19
14 14 15 15 16 16 15 14 14 14 15 16 16 16 17 16 16 16 16 15 15 15 15 15 16 16 16 16 17 16 16 17 17 18 19 20 21 20 20 20 20 19 20

GFSMW_con_lsi_087.txt.gz
Lid_Strength_Index
4 3 2 2 2 2 3 4 3 3 3 3 3 3 4 3 3 3 3 2 2 2 2 3 3 3 3 3 3 3 4 4 4 5 5 5 4 4 3 2 2 2 1
5 4 3 3 3 3 3 3 3 3 3 3 3 3 3 3 3 3 2 2 2 2 2 2 2 3 3 2 3 2 3 2 3 4 4 5 4 4 4 4 3 2 2
5 4 4 3 3 3 3 3 3 3 3 3 3 3 3 3 3 3 3 2 2 1 2 1 2 2 2 2 1 1 1 2 3 3 2 5 5 4 4 4 6 5 3
5 4 4 4 3 2 2 2 3 3 3 3 3 4 4 4 3 3 3 2 2 1 1 1 1 0 0 0 0 0 0 1 2 4 4 3 3 4 4 6 5 4 6
5 5 4 3 2 2 2 1 2 3 2 2 2 2 3 2 2 2 3 2 1 0 -0 -1 -1 -1 -1 -0 -0 1 1 1 1 2 3 3 4 3 4 5 5 6 4
5 4 3 3 2 2 2 2 2 2 2 2 1 2 1 1 2 1 2 1 1 -0 -1 -1 -1 -1 -0 -0 -0 -0 0 0 1 1 1 3 3 4 5 5 5 5 5
5 5 4 4 3 3 2 2 2 2 2 2 1 2 1 1 1 2 1 1 1 1 0 -0 -0 -0 -1 -1 -1 -0 -0 0 1 1 1 1 1 1 4 4 6 4 3
5 4 4 3 3 3 2 2 2 2 2 2 2 1 1 1 1 1 1 1 1 1 0 -0 -1 -1 -1 -1 -1 -0 -0 -0 0 1 1 2 3 3 4 4 5 8 7
5 5 4 3 3 3 3 3 3 3 1 1 1 1 1 1 1 1 1 0 0 0 -0 -1 -0 -0 -1 -1 -0 0 0 -0 0 3 3 4 4 4 4 4 4 4 9
5 4 4 4 3 3 3 4 3 2 1 1 1 1 1 1 1 0 1 0 0 0 -0 -0 -0 -0 -0 -0 -0 0 0 1 2 3 4 4 4 5 5 5 5 5 6
5 5 4 3 3 3 3 3 3 3 2 2 2 1 1 1 0 0 0 0 -0 -0 0 0 -0 0 1 2 3 2 1 3 3 4 4 4 4 5 6 5 6 6 4
5 4 4 3 3 3 3 3 3 3 3 2 2 2 2 2 2 2 1 0 0 0 0 0 1 1 1 2 2 3 3 3 3 4 4 4 4 6 6 6 7 6 7
5 4 4 4 4 3 3 3 3 3 3 3 3 3 2 2 2 3 2 2 1 1 0 1 1 2 2 2 2 2 3 3 4 4 5 5 6 6 7 7 7 7 8
6 5 4 4 3 3 3 3 3 3 3 3 3 3 3 3 2 3 2 1 0 1 0 0 0 1 2 2 3 4 5 5 5 5 5 6 6 7 8 8 8 8 8
7 5 4 4 4 3 3 3 2 3 3 3 3 3 3 2 2 2 1 1 1 1 0 1 1 2 3 4 4 5 6 6 7 7 7 8 8 9 9 8 10 9 11
6 6 5 4 4 4 3 3 2 3 3 3 3 2 3 3 2 2 2 2 2 2 2 3 3 5 5 9 10 7 7 7 10 12 13 13 13 14 12 13 12 11 12
6 6 6 5 4 3 3 3 3 3 3 3 3 4 4 3 4 4 5 5 5 6 7 8 8 8 8 11 11 10 9 11 12 14 14 14 13 14 15 14 14 14 14
5 6 6 5 4 3 3 3 3 4 4 4 5 5 5 6 6 7 7 8 8 9 9 9 9 10 12 13 13 13 13 14 14 14 14 14 15 14 15 15 15 14 14
5 5 5 4 4 4 3 3 4 5 5 6 6 6 7 8 8 9 9 9 10 11 11 11 11 12 14 13 14 14 15 16 16 15 15 15 15 15 15 16 15 15 15
5 4 4 4 4 4 3 4 5 6 7 8 8 8 8 9 9 9 10 11 12 13 12 14 14 13 14 14 14 14 15 16 17 16 16 16 16 16 16 15 15 16 15
5 4 4 5 5 4 4 6 7 8 8 8 9 9 9 9 9 10 10 12 13 14 15 15 15 15 15 14 14 14 15 16 17 17 17 17 16 16 15 15 15 16 16
6 5 6 6 6 5 6 8 9 9 9 9 10 10 10 9 10 11 12 13 14 15 16 16 17 16 16 15 15 15 15 15 16 16 16 16 16 16 15 16 16 17 17
7 6 7 7 7 8 8 10 10 10 10 11 12 12 12 12 12 12 13 14 14 15 16 17 17 17 17 16 16 16 17 17 16 16 17 17 17 16 16 17 17 17 16
8 8 9 10 10 10 9 9 9 10 11 13 14 15 15 15 14 14 14 14 15 15 16 16 17 17 16 16 16 16 16 16 16 17 16 17 17 16 16 16 16 16 17
11 11 13 13 13 13 12 11 11 12 14 15 15 16 16 16 16 16 16 16 16 15 15 15 15 15 16 16 16 16 16 16 16 16 16 16 17 17 17 17 17 17 17
14 14 14 15 15 14 14 13 13 13 14 16 16 15 16 16 16 16 17 16 15 15 15 15 15 15 16 16 16 16 16 16 17 16 17 18 18 18 18 18 18 18 18

GFSMW_con_lsi_093.txt.gz
Lid_Strength_Index
3 2 2 1 2 1 2 1 2 1 1 1 3 3 3 3 3 3 3 3 3 3 2 2 2 2 3 3 3 3 2 3 3 4 4 3 2 2 2 2 1 0 -0
4 3 2 2 2 2 2 1 1 1 1 1 1 3 3 3 3 3 3 3 3 3 3 3 3 2 2 3 2 2 3 2 3 4 3 4 3 2 1 1 1 -0 1
4 4 3 3 2 2 2 2 1 1 1 1 1 2 2 3 3 3 3 3 2 2 2 2 2 2 2 1 0 1 1 3 3 1 2 4 5 3 1 0 0 -0 0
3 3 3 3 3 2 1 1 1 1 1 0 1 2 3 4 3 3 3 2 2 2 2 1 1 1 0 1 1 1 1 1 2 1 0 0 1 4 4 1 1 -0 0
3 3 3 2 2 2 2 1 1 1 1 1 1 1 2 3 2 3 2 2 3 3 2 1 0 1 0 -0 0 -0 0 0 1 1 1 1 1 1 3 5 3 1 0
3 3 2 2 2 2 2 1 1 1 1 1 1 1 2 3 3 3 3 3 3 3 2 1 0 -1 -0 -0 -0 -0 -0 0 0 1 1 2 2 3 3 4 3 3 1
4 3 3 3 2 2 2 2 2 2 1 1 1 1 1 1 2 2 3 3 3 3 2 1 0 -0 -0 -0 -0 -0 -0 0 1 1 1 1 1 1 1 2 3 3 2
3 3 3 3 2 2 2 2 2 2 1 1 1 1 1 2 2 1 1 2 2 2 2 1 1 -0 -1 -0 -0 -0 -0 -0 0 0 0 1 1 0 1 2 3 5 4
4 3 3 3 2 2 2 2 2 2 2 1 1 1 1 1 1 1 0 0 0 0 -0 -0 -0 -0 -0 -0 -0 0 0 0 0 0 0 1 0 0 0 0 1 3 6
4 3 3 3 2 2 2 1 1 1 1 1 1 1 1 1 1 1 1 0 0 -0 -0 -0 -0 -0 -0 -0 -0 0 -0 0 0 0 0 1 1 0 0 1 1 2 3
4 3 3 2 2 2 2 2 1 1 1 1 1 1 1 1 1 1 0 0 0 0 0 0 0 0 0 -0 0 0 0 1 1 0 1 1 1 2 1 1 1 3 3
3 3 3 3 2 2 2 2 2 1 1 1 1 1 1 1 1 1 0 -0 0 -0 0 -0 0 0 0 0 0 1 0 1 1 1 1 1 2 1 1 2 2 3 3
3 3 3 3 3 2 2 2 2 2 1 1 1 1 1 1 1 1 0 0 0 0 0 0 0 0 0 0 0 0 1 1 1 1 2 2 2 2 2 2 3 3 4
3 3 3 3 3 2 2 2 2 1 1 1 1 1 1 1 1 1 0 0 0 0 0 0 0 0 0 0 0 0 0 1 1 1 1 2 2 2 2 3 4 5 7
4 3 3 3 3 3 2 2 2 2 1 1 2 1 1 1 1 1 0 0 0 0 0 0 0 0 0 0 0 1 1 1 1 8 11 12 12 12 12 8 8 8 9
4 3 3 3 3 3 2 2 2 2 1 2 2 1 1 1 1 1 1 1 1 0 0 1 1 1 6 11 10 7 5 8 10 13 14 14 14 14 14 14 14 14 13
4 3 3 3 2 2 2 2 2 1 2 2 2 2 1 1 1 1 1 1 1 1 4 7 8 10 11 13 12 12 12 13 14 14 14 15 15 14 14 14 15 15 14
3 3 2 2 2 2 2 2 2 2 2 2 2 2 2 2 1 1 1 3 5 8 10 12 13 14 14 14 13 14 14 15 15 15 15 15 15 15 15 15 16 16 15
3 2 2 2 2 2 2 2 2 2 2 2 2 2 1 2 3 6 8 9 11 13 13 14 14 15 15 14 15 15 16 17 17 15 16 16 16 15 14 15 15 14 15
3 3 2 2 2 2 1 2 3 3 3 2 2 2 5 6 8 10 12 13 14 15 16 16 16 15 16 15 15 15 17 17 17 17 17 16 16 16 15 15 14 15 14
3 2 2 2 2 2 2 3 3 6 7 7 8 8 9 11 12 13 14 15 16 16 17 16 16 15 15 14 14 14 15 16 16 17 17 17 16 16 15 15 14 15 15
3 3 3 3 2 2 4 7 8 8 9 10 11 12 12 12 13 14 15 15 16 16 16 16 17 16 15 15 15 14 14 14 15 16 15 16 16 16 15 15 16 16 16
5 4 4 4 4 6 7 10 11 11 12 13 13 13 13 14 14 15 15 15 15 16 17 17 17 17 16 16 16 16 16 16 16 16 17 16 16 15 16 16 16 16 14
8 7 8 8 8 8 9 10 11 12 13 14 15 15 15 16 15 15 15 15 16 16 17 17 17 16 16 15 15 15 15 15 15 15 14 15 15 15 15 15 15 14 15
10 10 10 11 10 10 11 11 12 13 14 15 15 16 16 17 17 17 17 17 16 15 16 16 16 17 18 18 17 17 17 16 16 14 14 15 15 16 16 15 15 15 16
12 12 12 11 11 10 11 11 11 12 13 15 15 16 17 17 18 18 18 17 17 16 17 17 18 18 18 18 18 18 18 17 16 15 16 16 17 17 17 17 17 17 18

GFSMW_con_lsi_096.txt.gz
Lid_Strength_Index
3 3 2 2 2 2 2 2 2 1 1 2 2 2 2 1 2 1 1 2 2 2 3 3 3 3 4 4 3 4 4 5 5 6 6 6 4 4 4 2 2 2 1
4 4 3 3 3 2 2 2 2 1 1 1 2 2 2 2 3 3 2 2 3 3 3 4 4 3 3 4 4 4 4 5 5 6 6 7 6 4 3 3 3 3 2
5 4 4 3 3 3 2 2 2 1 1 1 2 3 2 3 4 3 3 3 3 3 3 3 4 3 3 3 3 4 4 5 4 4 4 5 6 5 4 3 3 3 2
4 4 4 4 3 3 2 2 1 1 1 1 2 3 4 4 4 4 4 3 3 3 3 2 2 3 2 3 3 3 3 3 5 4 3 2 3 5 6 3 3 2 2
4 4 4 3 3 2 2 2 1 1 1 1 1 2 3 3 3 4 4 4 3 3 2 2 2 2 2 2 2 2 2 2 2 2 2 2 2 2 4 6 4 3 2
4 4 3 3 3 2 2 2 2 2 1 1 2 2 2 3 4 4 4 4 3 3 3 3 2 2 2 2 2 1 1 1 1 1 2 2 3 4 4 5 4 4 3
4 4 4 4 3 3 3 2 2 2 1 1 1 1 2 2 3 3 4 3 4 4 4 4 3 2 2 1 1 1 1 1 1 1 2 1 2 2 2 3 4 4 3
4 4 4 3 3 3 3 2 2 2 2 2 2 1 2 2 2 2 2 3 3 4 3 3 2 1 0 -0 -0 0 1 1 1 1 1 2 1 1 2 3 4 5 4
4 4 4 3 3 3 3 2 2 2 2 2 1 1 1 1 2 2 2 2 2 2 2 2 2 1 0 0 0 1 1 1 1 1 1 1 1 1 1 2 2 4 6
4 4 4 3 3 3 2 2 2 2 2 2 1 1 1 1 1 2 2 1 1 1 1 1 1 1 1 0 1 1 1 1 1 1 1 2 1 1 1 1 2 2 3
5 4 4 3 3 3 2 2 2 2 2 2 1 1 1 1 1 1 1 1 1 1 1 1 1 1 1 0 1 1 1 1 1 2 2 1 1 1 1 3 3 3 3
4 4 4 3 3 3 3 3 2 2 2 2 2 2 1 1 1 1 1 1 1 0 1 1 1 1 1 1 1 1 1 1 2 2 2 2 1 2 3 3 3 3 3
3 4 4 4 3 3 3 3 2 2 2 2 2 2 2 2 2 1 1 1 1 1 1 1 1 1 1 1 1 1 1 1 1 2 2 1 2 3 3 3 3 2 3
4 4 4 4 3 3 3 3 2 2 2 2 2 2 2 2 1 1 1 1 1 1 1 1 1 1 1 1 1 1 1 1 1 2 6 9 10 9 7 4 4 4 5
5 4 4 4 3 3 3 3 2 2 2 2 2 2 2 1 1 1 1 1 1 1 1 1 1 1 1 2 3 2 2 3 9 12 13 13 13 13 13 10 12 10 10
5 5 3 3 3 3 3 3 3 2 2 2 2 2 2 2 2 2 1 1 1 1 1 1 2 4 8 12 11 7 9 10 12 14 14 14 14 14 14 14 14 15 13
4 4 4 3 3 3 3 3 3 2 2 2 2 2 2 2 2 2 2 2 2 2 4 8 10 12 13 13 12 13 13 14 14 15 15 15 15 14 15 15 15 14 14
5 4 3 3 3 2 2 2 2 2 2 3 2 2 2 2 2 2 2 5 8 10 12 13 13 14 14 14 14 14 15 16 16 16 16 16 16 15 15 14 15 16 16
4 4 3 3 3 3 2 2 2 2 3 3 3 2 2 2 2 5 9 10 12 14 14 15 15 15 15 15 15 16 16 17 17 16 17 16 16 15 14 15 15 15 16
4 4 3 3 3 2 2 3 3 3 3 3 3 3 4 7 10 11 13 14 15 15 16 16 16 16 16 15 15 16 17 18 17 16 16 16 16 16 15 15 16 17 18
4 3 3 3 3 2 2 4 6 8 8 9 10 10 10 12 13 15 15 16 16 16 17 17 17 16 16 15 15 15 16 16 17 17 17 17 16 16 16 17 18 18 18
5 4 4 4 5 5 6 8 10 11 11 12 13 13 14 14 15 15 16 16 16 17 17 18 18 17 17 15 14 14 15 15 17 17 17 17 16 16 17 18 17 16 16
6 6 6 6 7 7 8 11 12 12 13 14 15 15 15 15 15 16 16 16 16 17 18 18 19 18 17 17 16 16 16 16 17 17 17 17 16 17 17 17 16 16 17
9 9 8 9 10 10 10 11 12 12 13 15 15 15 16 16 15 15 16 16 17 17 17 18 18 18 18 17 16 16 17 16 17 17 17 17 17 17 17 17 17 17 18
10 10 11 11 11 11 12 11 11 12 14 15 15 16 17 17 17 17 17 17 17 16 17 19 19 20 21 19 18 18 18 18 18 17 18 19 19 19 19 19 19 19 19
15 15 15 14 12 11 12 12 12 13 15 16 16 17 18 18 19 19 20 17 18 18 18 18 19 19 19 18 18 18 18 18 17 18 20 21 21 22 21 21 21 21 21

GFSMW_con_lsi_099.txt.gz
Lid_Strength_Index
4 4 4 4 4 3 2 2 2 1 2 2 2 2 2 1 1 2 1 2 2 2 2 2 2 3 2 2 3 5 5 6 6 6 7 6 6 5 5 4 3 2 2
5 4 4 4 4 3 2 2 2 2 1 2 2 2 1 1 1 2 1 2 3 3 3 3 4 3 4 4 5 5 6 6 6 7 7 9 7 6 5 5 3 3 2
6 5 5 5 3 3 2 2 2 2 1 2 2 2 2 2 2 2 2 3 3 3 4 3 3 4 4 5 5 5 6 6 6 6 7 7 8 7 5 5 5 4 3
5 5 5 5 4 3 2 2 1 1 1 2 3 3 3 4 3 3 2 3 3 3 4 3 4 4 4 4 4 4 5 5 6 6 5 4 4 5 6 4 4 4 4
5 5 5 4 3 2 3 2 2 2 1 2 2 2 3 3 3 3 4 4 3 3 3 3 3 3 3 3 3 3 3 4 5 5 5 5 4 4 5 6 4 4 3
5 5 4 4 3 3 2 2 2 2 1 1 2 2 3 4 4 4 4 4 4 3 3 3 3 3 3 3 3 3 3 3 3 3 2 3 4 4 4 5 5 4 4
5 5 5 4 4 3 3 2 2 2 2 1 2 3 3 4 4 4 4 4 4 3 4 4 3 3 3 2 2 2 2 2 2 2 2 2 2 2 3 4 5 5 4
5 5 5 4 4 3 3 3 2 2 2 2 2 2 3 3 3 3 3 4 4 4 3 3 3 3 2 2 2 2 1 1 1 2 2 2 2 2 3 3 5 6 6
5 5 4 4 4 3 3 3 3 2 2 2 2 2 2 3 3 3 3 3 3 3 3 3 3 3 2 1 1 1 1 1 1 1 2 2 2 2 2 3 3 4 6
5 5 5 4 4 3 3 3 2 2 2 2 1 2 2 2 3 3 3 2 3 3 3 3 3 2 1 1 1 1 0 1 1 1 2 2 2 2 2 2 2 2 3
5 5 4 4 3 3 3 3 3 2 2 2 2 1 2 2 2 2 2 2 2 2 2 2 2 2 2 2 1 1 1 2 2 2 3 2 2 2 2 2 1 2 3
5 4 4 4 4 4 3 3 3 2 2 2 2 2 2 2 2 2 2 1 1 1 1 1 2 2 2 2 2 2 1 2 2 2 2 2 2 3 2 2 2 4 3
7 5 4 4 4 4 4 3 3 2 2 2 2 2 2 2 2 2 2 2 1 2 2 2 2 2 2 2 2 2 1 2 2 2 3 2 4 4 4 4 4 3 3
7 6 5 4 4 4 4 3 3 2 2 2 2 2 2 2 2 2 1 1 1 1 2 2 2 2 2 1 1 1 2 2 3 8 10 11 11 11 10 7 9 8 7
5 6 7 4 4 4 4 3 4 3 2 2 2 2 2 1 1 2 1 1 1 1 1 1 1 1 1 1 2 2 4 8 11 12 13 13 13 13 13 11 12 11 11
6 5 4 4 5 4 4 4 4 4 3 3 3 2 2 2 2 2 2 2 2 1 2 1 2 3 8 12 10 8 10 11 13 14 14 14 14 14 14 14 14 14 14
6 5 5 4 4 5 3 4 4 3 4 4 3 2 2 2 2 2 2 2 3 3 8 10 11 12 12 12 12 12 12 14 14 15 15 14 15 15 15 15 15 14 15
5 5 5 4 4 4 4 3 3 3 4 4 4 3 2 2 2 2 2 4 8 10 12 13 13 14 14 13 14 14 15 16 15 15 15 16 16 16 15 15 16 16 15
4 4 4 4 3 4 4 4 3 3 4 4 4 4 3 3 3 6 11 11 13 13 14 14 15 16 15 15 15 15 16 16 16 16 16 17 16 15 14 15 16 17 16
5 4 4 3 5 5 5 5 5 5 5 4 4 4 4 4 9 11 13 14 15 15 16 16 16 15 16 15 15 15 16 17 17 17 17 16 16 16 16 18 18 18 18
5 4 4 4 6 6 8 9 9 11 11 11 11 10 11 12 13 14 15 15 16 16 17 17 16 16 15 15 15 15 17 17 18 18 18 17 16 17 17 16 17 18 18
7 6 6 6 7 7 9 11 11 11 11 12 12 13 13 14 14 15 16 16 16 17 17 18 17 17 16 15 15 15 16 16 18 18 17 17 17 17 16 17 18 18 18
9 8 8 8 8 9 9 11 12 12 13 14 14 15 15 15 15 16 17 18 17 17 18 18 19 18 17 17 16 16 17 17 18 17 16 16 17 17 18 18 19 19 20
10 10 9 10 10 11 11 11 11 12 13 14 15 16 16 16 16 16 17 17 17 18 18 18 18 18 18 18 17 17 18 17 17 17 18 18 18 18 19 19 20 20 21
12 13 13 11 11 11 13 12 13 13 14 15 16 17 18 19 19 19 17 18 18 18 19 19 20 20 21 20 18 18 18 18 19 19 19 20 20 21 21 21 21 22 22
14 15 15 14 14 12 13 14 14 14 15 16 16 17 18 19 19 20 20 17 18 17 18 18 19 19 19 18 17 17 18 18 19 20 22 24 24 23 23 23 23 23 23

GFSMW_con_lsi_102.txt.gz
Lid_Strength_Index
5 5 4 4 4 4 3 3 3 2 1 2 3 3 2 2 2 1 1 1 2 3 4 2 2 2 3 3 4 5 5 6 6 7 7 6 5 4 4 4 4 4 4
5 5 5 5 4 4 3 3 3 1 2 2 2 3 2 1 2 2 1 1 2 2 3 3 2 2 3 4 5 5 6 6 6 7 8 8 8 6 5 4 4 4 3
6 5 5 5 5 5 3 2 2 2 2 2 2 2 2 1 2 2 3 3 3 2 3 2 3 3 3 4 4 5 6 6 7 6 8 9 9 8 7 6 5 5 4
5 5 5 6 5 4 3 2 3 3 2 1 2 2 3 3 2 2 3 4 3 3 3 3 3 3 3 4 4 5 6 6 7 7 5 5 5 8 7 6 6 5 4
5 5 5 5 5 3 2 3 2 2 2 2 2 2 3 2 2 2 3 4 4 3 3 3 3 4 4 4 5 5 5 6 6 6 6 7 6 5 6 8 6 5 4
5 5 5 5 5 4 3 2 2 2 2 2 2 2 3 3 3 3 3 4 4 3 3 3 3 3 4 4 3 3 4 4 5 5 5 5 6 6 6 6 6 5 4
6 5 6 6 5 4 3 3 2 3 2 2 2 3 3 3 3 3 3 4 4 4 4 4 3 3 3 3 3 3 3 3 4 4 4 3 3 3 4 4 5 5 4
6 5 5 5 5 4 3 3 3 3 2 2 3 3 2 3 3 3 3 3 3 4 3 3 4 4 3 3 3 3 3 3 3 3 3 2 2 2 2 3 4 6 6
6 5 5 5 5 4 3 3 3 2 2 2 2 2 3 3 3 3 3 3 3 3 4 4 4 4 3 3 3 3 3 3 3 2 2 2 2 2 2 3 3 4 6
6 5 5 5 4 3 3 3 2 2 2 2 1 2 3 3 3 3 3 3 3 3 3 3 4 4 3 2 2 2 2 2 2 2 2 2 2 2 2 2 2 3 3
6 5 5 4 4 3 3 3 3 2 2 2 2 2 2 3 3 3 4 3 3 3 3 3 3 3 3 2 2 2 1 1 1 2 2 2 2 2 2 2 2 2 3
7 5 4 4 4 4 4 3 3 3 2 2 2 2 2 2 3 4 4 3 3 3 3 2 3 3 3 3 2 1 1 1 2 2 2 2 1 2 2 2 2 2 2
6 6 5 5 4 4 4 3 3 3 2 2 2 2 2 2 2 3 3 3 2 3 3 2 2 2 2 2 2 2 2 2 2 2 2 2 3 3 4 4 3 3 3
6 6 5 5 4 4 4 4 3 2 2 2 2 2 2 2 2 2 3 3 2 2 2 2 3 3 3 3 3 3 3 3 3 7 8 9 9 9 8 7 9 8 9
6 5 5 5 5 4 3 3 4 3 3 2 2 2 2 2 2 2 2 2 2 2 2 2 2 2 3 3 3 3 3 4 10 12 12 12 12 13 12 11 12 11 11
6 6 6 5 5 5 4 3 3 3 3 3 3 2 2 2 2 2 2 2 2 2 2 2 2 3 3 9 9 5 7 9 12 13 14 14 13 14 14 14 14 14 14
6 6 6 6 5 5 5 5 3 3 3 4 3 3 2 2 2 2 3 3 2 2 1 3 5 10 11 11 10 11 11 13 14 14 15 15 14 14 15 15 15 15 15
6 6 6 5 5 6 6 5 4 3 3 4 3 3 3 3 2 2 2 3 4 7 9 11 12 13 13 13 13 13 14 15 15 15 15 14 15 15 16 16 16 16 16
5 6 5 5 6 7 6 6 7 5 3 4 4 3 3 3 3 3 3 9 11 11 13 13 14 15 15 14 14 15 15 16 16 15 15 15 15 16 14 17 18 17 17
7 7 6 5 7 7 7 8 8 8 9 8 4 4 4 3 4 9 11 12 13 14 14 16 15 15 15 14 14 15 16 17 17 17 17 17 17 17 16 17 17 19 19
7 7 7 7 8 8 8 9 10 11 11 10 9 9 9 10 11 12 14 15 16 16 16 16 16 16 16 15 15 15 17 18 18 18 18 17 16 16 17 17 18 19 19
9 8 8 8 9 9 9 10 11 10 11 11 12 12 12 13 14 15 15 15 16 17 17 17 17 17 16 16 16 16 17 17 18 18 18 17 17 18 18 19 19 19 21
11 10 9 9 10 10 10 11 11 10 12 13 15 15 14 15 15 16 16 17 16 17 18 18 19 19 18 17 16 16 17 17 17 18 17 17 18 19 19 19 20 22 22
12 12 12 11 11 11 11 11 11 11 12 13 14 15 16 16 16 16 16 17 17 18 18 19 19 19 19 18 17 17 18 16 17 19 20 20 20 21 22 22 22 22 22
13 12 13 12 11 11 12 12 12 13 15 15 16 17 18 18 19 18 18 18 18 18 20 19 19 20 20 19 18 17 19 19 20 21 21 21 21 22 23 23 23 22 22
14 14 14 13 12 12 13 13 13 14 16 17 17 17 17 17 18 19 19 17 18 18 18 18 18 18 17 16 16 17 18 18 19 22 23 24 24 24 24 25 24 23 23

GFSMW_con_lsi_108.txt.gz
Lid_Strength_Index
7 5 4 4 4 4 4 5 4 5 2 2 2 2 2 1 1 0 0 1 2 1 1 2 3 3 4 5 4 5 5 7 5 6 7 6 5 5 5 4 4 4 3
6 5 5 4 3 3 5 5 4 4 2 1 1 2 2 1 1 1 1 1 1 1 2 4 4 4 5 5 5 5 6 6 5 6 7 8 7 5 5 5 4 4 4
8 5 5 5 4 4 5 4 4 3 3 3 2 2 2 1 2 1 1 1 2 3 3 4 5 5 5 6 5 4 5 5 6 4 7 9 8 7 7 6 5 5 5
8 5 5 5 4 4 4 5 4 4 4 3 3 3 3 3 2 2 1 1 3 4 4 5 6 5 4 4 4 4 5 5 7 6 5 6 7 8 9 7 6 5 4
8 6 5 4 3 4 5 4 4 4 4 3 2 2 3 2 2 2 2 3 3 4 4 5 6 5 4 3 4 4 5 4 6 6 6 6 6 6 8 9 7 6 4
8 6 5 4 4 4 5 4 5 4 4 3 2 2 3 2 2 3 3 3 4 4 5 4 5 4 3 3 4 4 5 5 5 6 6 6 6 6 6 7 6 7 6
8 6 6 5 4 4 5 5 4 4 3 3 2 2 2 2 2 3 3 3 4 4 4 4 4 4 4 4 4 4 5 5 6 6 6 5 5 5 5 5 6 6 5
6 6 5 5 4 4 5 4 4 4 2 2 2 2 2 2 2 2 3 3 3 3 3 4 4 3 3 4 4 4 4 5 5 5 5 5 4 4 4 5 5 6 6
6 6 6 5 4 4 5 5 5 4 3 2 2 2 2 2 2 2 2 3 2 2 3 3 4 4 3 3 3 4 4 4 4 4 4 4 3 3 3 3 4 5 7
6 6 5 6 4 4 4 4 5 3 2 3 2 2 2 2 2 2 2 3 2 2 2 3 3 3 3 3 3 3 3 3 4 3 4 3 3 3 3 3 4 4 4
6 6 5 5 4 4 4 5 5 2 2 2 3 4 4 2 2 2 3 2 3 3 2 2 3 3 3 3 3 3 3 3 3 3 3 3 3 3 3 3 3 3 3
7 5 5 5 5 5 5 4 4 3 2 2 2 3 3 3 3 2 2 2 3 2 3 3 3 3 3 2 3 3 3 3 3 3 3 3 3 3 3 3 3 3 2
7 6 5 5 4 5 5 5 4 3 2 2 2 3 4 3 3 3 2 2 2 2 3 3 3 3 2 3 2 2 3 3 3 3 3 3 3 3 3 3 3 3 3
6 7 6 5 5 4 4 5 5 4 3 2 2 2 4 3 3 3 3 3 2 2 3 2 3 3 3 3 3 3 3 3 2 3 3 4 5 4 4 4 4 5 6
6 7 7 7 6 6 5 3 4 4 4 4 3 2 2 2 2 3 3 4 3 2 2 2 3 2 3 3 4 3 3 4 6 9 10 11 11 11 10 8 8 8 9
6 7 7 8 7 8 7 6 5 4 4 5 4 4 3 2 2 3 3 3 3 4 4 3 3 4 4 8 8 5 4 5 8 12 13 13 13 13 13 13 14 13 11
7 7 7 8 8 9 8 8 7 6 4 4 4 4 4 4 3 2 3 3 3 3 4 4 5 6 6 10 9 9 6 7 9 12 13 14 14 14 15 14 15 15 15
8 8 8 8 10 10 10 9 8 7 7 4 3 3 4 4 4 4 3 3 3 4 4 5 6 7 9 11 10 11 11 12 12 12 13 14 15 14 15 16 17 18 18
9 9 9 9 11 11 10 10 9 9 8 8 6 3 3 4 3 4 4 4 4 5 7 8 9 10 12 12 12 12 13 14 14 14 15 15 15 15 15 17 19 19 19
10 10 9 10 11 11 11 10 11 11 11 11 10 8 6 3 4 4 5 8 7 11 13 14 14 14 14 13 12 13 14 15 16 16 16 15 16 16 16 18 19 20 20
11 10 9 11 11 12 11 12 12 13 12 12 11 11 10 5 3 5 9 11 13 15 16 16 15 15 14 14 14 14 15 16 16 17 17 17 16 16 17 18 19 20 20
10 10 10 10 12 13 13 13 14 13 12 12 12 13 13 12 10 10 12 14 14 16 17 17 17 17 16 15 15 16 16 16 17 18 18 17 17 17 18 19 19 20 21
12 12 12 11 11 12 13 14 14 13 14 14 13 13 13 14 14 14 14 15 15 16 17 17 18 18 17 17 16 16 17 17 18 18 18 18 19 19 20 21 21 23 23
13 13 13 13 13 13 13 13 13 13 14 15 15 15 15 15 15 15 15 16 16 16 17 18 18 18 18 17 17 17 18 17 19 21 22 22 22 23 23 23 23 23 22
13 13 14 14 15 15 15 14 14 14 15 15 15 16 16 15 16 17 17 17 17 16 18 18 17 18 18 18 18 19 20 21 21 22 22 23 23 24 24 24 24 23 23
14 14 15 15 14 15 15 15 15 15 15 16 16 16 16 16 16 16 17 15 16 16 16 16 17 17 17 17 17 18 18 20 20 22 23 24 24 24 25 25 25 25 25

GFSMW_con_lsi_111.txt.gz
Lid_Strength_Index
4 3 2 2 2 2 2 1 1 1 2 2 2 2 2 1 1 0 0 0 1 1 1 1 2 2 2 2 1 2 2 3 0 3 3 2 2 1 1 1 1 1 0
5 4 3 3 3 2 2 2 2 2 2 2 1 1 1 1 0 0 -0 -0 0 0 1 1 2 2 3 3 2 2 3 3 1 3 3 5 4 2 2 1 1 1 1
5 4 3 3 3 3 2 2 2 3 2 1 1 1 1 1 1 1 1 0 0 1 1 1 2 2 3 4 4 2 2 4 2 2 3 5 5 4 3 2 2 2 2
4 4 5 3 3 3 3 2 2 2 3 2 2 2 2 3 2 1 1 1 1 1 2 3 2 2 3 4 4 2 1 2 3 2 3 1 2 4 5 3 2 2 2
5 5 4 3 3 2 3 2 2 3 3 2 2 2 2 2 1 1 1 1 1 2 3 3 3 3 3 3 4 2 1 1 1 2 2 3 2 2 3 5 4 3 2
5 4 3 3 3 2 2 2 2 4 4 2 2 1 2 2 2 2 2 2 2 3 4 5 5 4 4 4 3 2 1 1 1 1 2 3 3 3 3 3 4 4 3
5 5 4 4 4 3 3 3 3 4 3 2 1 1 1 1 2 2 2 3 3 4 5 5 5 4 3 3 3 2 1 1 1 1 2 1 2 2 2 2 4 4 3
5 5 4 4 4 3 3 3 4 4 4 2 1 1 1 1 1 1 1 2 3 4 4 5 4 3 3 4 3 2 1 1 2 3 2 2 2 1 2 3 3 3 3
5 5 4 4 4 3 3 3 4 4 4 3 1 1 1 1 2 1 1 1 2 3 4 4 4 3 4 4 4 4 3 3 3 3 2 2 2 2 1 1 1 2 6
6 5 4 4 3 3 3 3 3 4 4 2 1 1 1 1 1 1 2 2 2 3 4 4 3 3 3 3 3 3 3 3 3 2 3 3 2 2 1 1 2 1 3
6 5 5 4 4 3 3 3 4 4 4 2 1 1 2 1 1 2 2 2 2 2 4 4 4 4 4 3 3 3 3 3 2 2 2 3 2 2 2 2 2 2 3
5 5 5 4 4 4 4 4 4 4 3 2 1 2 2 1 1 2 2 2 2 2 3 2 4 4 5 4 3 3 3 3 3 3 3 3 3 3 2 3 3 3 3
5 5 6 6 6 4 4 4 4 3 2 2 2 2 2 2 1 1 2 2 2 2 2 2 3 3 4 3 4 3 3 3 3 3 3 3 3 3 3 3 2 2 4
5 5 5 6 7 6 4 4 3 2 2 2 2 2 2 1 2 2 2 2 2 2 2 2 2 2 3 3 3 3 3 3 3 2 3 2 3 3 3 3 3 4 4
6 5 5 6 7 8 8 7 4 3 2 2 2 2 1 1 1 2 2 2 2 2 2 2 3 2 2 2 2 3 2 2 3 6 7 8 9 10 8 6 6 6 6
6 5 6 7 9 9 9 8 7 6 4 3 3 2 2 1 1 1 2 2 2 2 2 2 2 2 3 8 8 5 3 4 7 11 11 11 12 13 13 14 14 11 7
7 8 8 9 9 11 10 9 7 6 6 3 3 3 3 2 2 1 2 2 2 2 3 3 3 3 3 8 8 9 4 6 9 11 13 13 14 14 14 15 15 15 15
8 9 9 10 10 11 11 9 8 8 7 7 5 3 3 3 3 2 3 2 1 2 3 3 4 3 4 10 10 10 7 8 10 11 13 14 14 14 15 16 17 17 17
9 9 9 10 10 11 11 10 11 10 10 10 9 9 7 3 2 3 3 3 3 3 2 3 4 5 8 11 11 10 11 13 14 14 14 14 15 15 14 17 18 19 18
10 9 9 10 11 12 11 12 12 13 12 12 11 11 10 9 4 3 3 4 4 5 9 11 8 10 12 12 12 12 13 15 15 14 14 14 15 16 16 18 19 21 21
10 10 10 11 12 12 11 13 14 14 14 13 13 12 12 11 9 4 5 7 11 13 14 14 14 13 12 13 12 12 13 15 16 16 16 16 16 16 17 18 19 21 21
11 11 10 11 12 13 13 14 14 14 14 14 14 14 14 13 12 11 11 12 13 15 16 16 16 16 15 15 14 14 14 14 16 17 17 17 17 18 18 19 19 20 21
12 11 11 12 12 12 13 15 15 14 15 15 16 15 15 15 14 13 14 15 15 16 17 17 18 17 16 16 16 16 17 17 18 18 18 18 18 19 20 20 20 22 22
12 12 12 13 14 13 13 14 14 13 14 15 16 16 16 16 15 15 15 15 16 16 17 18 18 18 18 18 17 17 17 17 19 20 22 22 22 22 22 22 22 22 22
13 14 14 14 15 14 15 14 14 14 14 14 15 15 15 15 15 15 16 16 16 15 18 18 18 19 20 19 19 20 21 22 21 21 22 23 22 22 23 23 23 23 23
14 14 15 15 15 15 15 15 14 14 15 15 16 16 16 16 15 16 16 14 15 15 16 17 18 18 18 18 18 18 18 19 20 22 23 23 24 24 24 24 24 23 24

GFSMW_con_lsi_114.txt.gz
Lid_Strength_Index
3 2 1 1 1 1 1 1 1 1 1 1 2 2 1 1 0 -0 -0 -0 -0 0 -0 0 0 0 0 0 0 0 1 1 0 1 1 1 -0 -0 1 0 0 0 -0
4 3 2 1 2 1 1 1 1 1 1 1 1 1 1 1 0 -0 -0 -1 -0 0 0 0 0 1 1 1 1 1 1 1 0 2 2 4 2 1 1 1 1 0 0
5 3 2 2 1 2 1 1 1 1 1 0 1 1 0 0 1 1 0 0 -0 0 0 0 1 1 1 2 2 0 1 2 1 0 2 4 5 3 1 1 1 1 1
3 3 2 2 2 2 1 1 1 1 1 0 1 1 2 2 1 1 0 0 -0 -0 -0 0 1 2 2 2 2 2 1 1 2 1 1 0 2 4 4 1 1 1 1
4 3 3 2 2 2 2 2 1 1 1 1 1 1 1 1 1 1 1 0 0 0 -0 1 1 2 2 2 3 2 2 1 1 1 2 1 1 1 3 4 3 2 1
4 3 3 2 2 2 2 2 2 2 1 1 1 1 1 2 2 1 1 1 1 0 1 1 1 2 3 3 2 2 2 0 0 1 1 2 2 2 3 3 3 3 2
4 4 4 3 3 3 2 2 2 2 3 2 1 1 1 1 2 2 1 2 2 2 3 2 3 3 3 3 3 2 2 1 1 1 1 1 1 1 2 3 3 3 2
4 4 4 3 3 3 2 2 2 3 3 1 1 1 1 1 1 1 1 1 1 2 3 4 4 4 3 3 3 3 3 1 1 0 0 0 0 0 1 2 2 4 3
5 4 4 3 3 3 3 3 3 2 2 1 1 1 1 1 1 1 1 1 1 4 4 4 4 4 4 4 3 3 3 2 1 0 0 0 0 0 0 1 1 3 4
5 4 4 4 3 3 2 2 2 2 3 2 1 1 1 1 1 0 1 1 2 3 4 4 4 4 4 4 4 3 2 2 1 0 1 0 1 1 0 0 1 1 2
5 4 4 4 3 3 3 2 2 2 3 2 2 1 1 1 1 1 1 1 2 3 4 3 4 4 4 4 4 3 3 3 1 0 2 1 1 1 1 1 1 1 1
4 4 4 5 6 4 3 3 3 3 3 2 1 2 1 1 1 1 1 1 2 3 3 4 3 3 3 3 3 3 2 3 2 2 2 2 1 1 1 1 1 1 1
4 4 3 4 7 7 4 4 3 3 3 2 2 2 1 1 1 1 1 1 1 2 3 3 4 5 3 3 3 3 3 3 3 3 3 2 1 1 1 1 2 2 3
4 4 4 5 7 8 8 7 4 3 3 2 2 2 2 1 1 1 1 1 1 2 2 3 4 4 4 4 4 3 3 3 3 3 3 3 2 3 3 3 3 3 3
5 5 4 5 7 8 9 9 7 6 3 2 2 2 1 1 1 1 1 1 1 1 2 1 3 3 3 4 4 4 4 3 3 4 4 6 7 9 7 4 4 4 4
5 4 4 5 7 9 9 9 9 7 5 4 2 2 2 1 1 1 1 1 1 1 1 1 2 3 3 8 8 5 4 4 4 8 11 11 12 12 13 13 14 12 6
5 4 5 6 7 8 10 9 9 8 7 7 3 2 2 2 2 1 1 1 1 1 1 1 1 1 2 9 9 9 3 4 7 10 12 13 13 13 14 15 15 16 15
6 5 6 7 7 7 9 9 10 10 10 9 9 8 5 2 2 2 2 1 1 2 2 1 1 1 2 9 9 9 5 8 10 11 12 13 14 13 14 15 16 16 17
6 6 6 8 8 9 8 10 11 11 11 12 11 10 10 8 6 2 2 1 2 2 1 2 2 2 1 10 10 9 9 11 12 12 13 13 15 15 14 16 17 18 18
7 7 7 8 9 9 9 12 12 13 13 13 12 11 11 11 9 8 3 2 2 2 3 4 5 8 6 12 11 8 10 13 13 14 14 14 15 15 15 16 18 20 20
8 7 8 9 9 9 10 11 12 14 14 13 13 12 12 12 11 10 7 4 6 9 11 14 14 14 13 13 13 12 10 13 14 15 16 15 15 16 16 17 19 20 20
9 9 9 10 10 11 11 12 13 13 14 14 14 14 14 13 13 12 12 11 12 14 15 15 16 15 15 15 14 14 14 15 16 17 17 17 17 17 18 19 19 20 21
9 9 9 9 10 11 13 13 14 13 14 14 15 15 15 15 15 14 14 15 14 15 16 17 17 17 16 16 15 16 16 17 17 17 17 17 18 18 19 19 20 21 21
10 10 10 11 11 12 12 12 13 13 14 14 15 16 16 16 16 15 15 15 16 16 17 18 18 19 19 18 18 17 18 17 19 20 21 21 21 21 21 21 20 20 20
11 11 12 12 12 12 13 12 12 12 13 13 14 15 16 16 16 16 15 15 15 15 17 18 18 19 21 21 21 21 22 22 22 22 23 23 23 23 23 22 21 21 21
12 12 13 13 14 14 14 14 13 12 13 14 15 14 14 14 15 15 16 14 15 15 16 17 18 19 19 18 18 18 20 20 20 22 23 23 22 23 23 23 23 22 22

GFSMW_con_lsi_117.txt.gz
Lid_Strength_Index
2 2 1 1 1 0 0 0 1 1 1 1 2 2 2 1 1 0 -0 -1 -0 -1 -1 -0 -0 0 1 1 0 1 1 1 0 2 2 1 0 0 0 -0 0 -0 -0
3 2 2 1 1 1 1 1 1 1 1 1 1 1 1 1 0 -0 -0 -0 -0 -1 -0 -0 0 0 1 1 1 1 2 2 0 2 3 5 3 1 1 0 0 -1 1
4 3 3 2 1 1 1 1 1 1 1 1 1 1 1 1 1 1 1 0 -0 -0 -0 -0 0 0 0 1 1 1 2 3 1 1 2 5 5 3 1 1 1 -0 1
4 4 3 2 1 1 1 1 1 1 1 1 1 1 2 3 1 1 1 0 -0 -0 -0 0 0 0 0 1 1 1 1 1 2 1 1 1 1 4 5 2 1 1 1
3 3 2 2 1 1 1 1 1 1 1 1 1 1 2 1 1 1 1 1 0 -0 -0 0 0 1 1 1 2 1 1 1 1 2 2 2 2 1 3 5 3 2 1
3 3 2 2 2 1 1 1 1 1 1 1 1 1 1 1 1 1 1 1 1 0 0 0 0 1 1 1 2 2 1 1 1 1 1 2 3 3 3 3 3 3 2
4 4 3 3 2 2 2 2 2 2 2 2 1 1 1 1 1 1 1 2 1 1 1 0 1 1 2 1 2 2 2 2 2 2 1 1 1 1 1 2 3 3 2
4 4 3 3 3 3 2 2 2 3 2 2 2 1 1 1 1 1 1 1 1 1 0 0 1 1 2 2 2 2 2 2 2 2 1 1 1 1 1 2 2 4 3
4 4 3 3 3 3 3 2 2 2 2 2 2 1 1 1 1 1 1 1 0 1 0 2 2 2 2 3 3 2 2 2 2 2 2 1 1 0 -0 0 1 3 5
5 4 4 3 3 3 2 2 2 2 2 2 2 1 1 1 1 1 1 1 1 1 2 3 3 3 3 3 3 3 2 2 2 1 2 2 1 1 0 0 1 1 2
5 4 4 3 3 3 3 3 2 3 3 2 2 1 1 1 1 1 1 1 1 1 2 3 4 4 4 4 4 4 3 3 2 2 1 1 1 1 1 0 0 1 1
4 4 4 3 4 5 3 3 2 2 2 2 2 1 1 1 1 1 1 0 1 2 3 3 3 4 4 4 4 4 3 3 3 2 2 1 1 1 1 1 1 1 2
4 4 4 4 5 6 6 6 3 3 2 2 2 2 1 1 1 1 1 1 2 2 3 3 3 4 4 4 4 4 3 3 2 2 1 1 1 1 1 1 2 1 2
4 4 4 4 4 7 7 8 7 6 2 2 3 2 2 1 1 1 1 1 1 2 3 3 3 3 4 4 4 3 4 3 2 2 2 2 2 3 2 2 1 1 2
5 4 4 4 5 6 8 8 8 7 6 4 3 2 1 1 1 1 1 1 1 1 2 3 3 4 4 3 4 3 4 3 4 4 4 5 5 6 4 2 2 2 4
5 4 4 4 4 5 7 9 8 8 8 8 6 2 1 2 2 1 1 1 1 1 1 3 3 4 4 9 9 6 4 4 4 5 9 10 11 13 13 13 14 11 4
5 4 4 4 4 4 6 8 9 9 9 9 9 8 2 2 2 1 1 2 2 1 1 1 2 2 3 9 9 9 4 4 4 6 10 12 13 13 14 15 15 15 14
5 5 4 5 5 5 5 6 9 10 11 11 11 10 9 7 3 2 2 2 2 2 2 2 1 1 2 10 9 10 3 4 7 8 9 11 14 14 14 15 17 17 17
5 5 5 5 5 6 6 7 9 11 12 13 12 12 11 11 9 6 2 2 2 2 2 1 2 2 1 10 10 9 9 11 12 13 12 13 14 14 14 16 19 18 18
5 5 5 6 6 7 6 8 9 11 14 14 14 13 12 12 11 10 9 5 2 2 1 2 5 9 7 11 11 8 10 13 14 15 15 15 15 15 15 16 18 19 19
7 5 6 7 8 8 8 9 10 12 13 13 14 14 14 13 12 12 10 8 6 9 12 13 13 13 12 13 12 12 12 14 16 16 16 16 16 15 16 17 19 20 20
7 7 8 8 9 9 9 10 11 11 12 13 14 14 14 14 14 13 13 12 12 14 15 16 16 15 15 14 14 13 14 15 17 18 17 17 17 18 18 19 19 20 21
9 8 8 9 9 10 10 11 11 11 12 13 14 15 15 15 15 15 15 15 15 15 16 16 18 18 17 16 15 15 16 16 18 18 17 17 17 18 19 19 19 20 20
10 9 9 10 11 10 10 11 11 12 13 14 15 15 16 17 16 16 16 16 16 16 17 18 19 19 19 18 18 17 17 17 19 20 20 20 20 21 21 20 20 20 20
10 10 10 11 11 11 11 11 11 11 13 15 15 15 16 16 17 18 17 17 17 16 18 18 19 21 22 21 20 21 22 22 21 21 21 22 22 23 23 22 22 21 21
11 12 12 13 13 13 13 12 12 11 12 14 14 14 15 16 17 17 18 17 17 17 17 17 18 18 18 18 19 19 19 19 20 22 22 23 22 22 22 22 22 21 21

GFSMW_con_lsi_120.txt.gz
Lid_Strength_Index
3 2 2 2 1 1 1 1 2 1 1 2 2 2 2 1 1 0 0 -0 0 0 0 0 0 0 1 1 1 1 1 2 1 2 2 2 2 1 2 1 1 1 -0
4 3 2 2 2 2 2 2 1 1 1 1 1 1 1 1 1 0 0 -0 0 0 0 0 1 0 1 1 1 1 2 2 2 3 3 5 4 3 2 2 2 1 0
4 4 3 3 2 2 2 2 2 1 1 1 1 1 1 1 1 1 1 0 0 0 0 0 0 1 1 1 1 1 2 3 2 1 4 6 7 5 3 3 3 2 2
5 4 3 3 3 2 2 2 1 1 1 1 2 2 3 3 2 2 1 1 0 0 0 0 1 0 0 1 1 1 2 2 3 2 2 3 4 6 6 4 3 2 2
5 5 4 3 1 2 2 2 2 2 2 1 2 2 2 2 2 1 2 1 1 0 0 0 0 1 0 1 1 1 1 2 3 3 3 3 3 3 5 6 5 4 3
4 3 2 1 2 2 2 2 2 2 2 1 2 2 2 2 2 2 2 2 1 1 0 0 1 0 0 1 1 1 1 2 2 2 2 3 4 4 4 5 5 5 3
4 3 3 3 3 3 3 2 2 2 2 2 2 2 2 2 2 2 2 2 2 1 1 1 1 1 1 1 1 1 1 1 2 2 2 2 3 3 3 4 5 6 4
4 4 4 4 3 3 3 3 2 3 2 2 2 2 1 2 2 2 2 2 2 1 1 1 1 1 1 1 1 1 1 1 1 2 2 2 2 2 3 3 4 6 6
5 5 4 4 4 3 3 3 2 2 2 2 2 2 2 2 2 1 1 1 1 1 1 1 1 1 1 1 1 2 2 1 2 2 2 2 2 2 2 3 3 5 7
5 5 4 4 3 3 3 2 2 3 2 2 2 2 2 1 1 1 2 1 1 1 1 1 1 1 1 1 1 2 2 2 2 2 2 2 2 2 2 2 2 3 4
6 5 4 4 3 3 3 2 3 2 3 2 2 2 2 1 2 1 1 1 1 1 1 3 2 3 3 2 2 2 2 2 2 2 2 3 3 3 2 2 2 3 3
5 5 4 4 4 5 5 5 3 3 2 2 2 2 2 3 2 2 1 1 1 1 2 2 3 3 3 3 3 3 3 3 3 3 3 3 2 3 2 2 3 3 3
5 5 4 4 5 6 6 6 6 5 3 3 3 3 3 3 2 2 1 1 1 1 3 3 3 3 3 4 3 4 3 3 3 3 3 3 3 3 2 3 3 3 4
5 5 5 4 5 5 6 7 7 6 5 5 2 3 3 3 3 1 1 1 1 2 3 3 3 3 3 3 3 3 3 3 3 3 2 2 2 2 3 3 3 3 4
5 5 5 5 5 5 6 7 8 7 7 7 6 4 3 2 2 2 1 1 1 2 2 3 3 3 4 4 3 3 4 4 4 4 3 3 4 6 5 3 4 4 5
5 5 4 4 4 5 5 6 8 9 8 9 9 9 7 2 2 2 2 2 1 2 3 3 3 4 4 9 9 6 4 4 5 6 8 9 10 11 12 13 14 11 6
5 5 5 5 5 4 5 7 8 8 9 10 10 10 10 8 5 2 2 2 2 1 2 2 3 4 4 10 10 9 5 5 5 7 9 11 12 12 14 15 16 16 16
6 6 6 6 5 5 5 6 7 9 11 11 11 11 10 11 9 7 2 2 2 2 2 2 2 3 3 10 10 11 6 6 7 8 8 10 13 14 14 16 17 17 17
6 6 6 6 6 6 6 7 8 9 11 11 12 12 12 12 11 10 8 6 2 2 3 2 2 3 3 10 10 9 6 9 13 13 12 12 14 14 13 16 17 18 17
6 6 7 7 8 7 6 8 9 10 11 12 12 13 13 13 13 12 11 9 7 2 3 8 9 10 7 11 11 8 11 14 15 16 15 15 15 15 16 16 18 19 19
7 7 8 9 9 9 8 9 10 11 11 11 12 12 13 14 13 13 11 11 9 11 13 14 14 13 13 12 11 11 11 14 16 16 16 16 15 15 16 17 19 20 20
8 8 9 10 10 10 10 11 11 11 11 11 12 13 14 15 14 14 14 14 13 14 15 16 16 16 15 14 13 13 14 15 16 18 18 18 17 17 18 19 19 19 20
10 9 10 10 11 11 11 12 12 11 12 13 13 14 15 16 16 15 16 16 15 16 16 17 18 18 17 16 15 16 16 17 18 18 17 17 18 18 19 19 19 20 20
11 11 11 12 12 12 12 12 12 11 13 14 14 15 16 17 18 17 17 17 17 16 17 18 19 19 18 18 18 18 18 17 19 19 20 20 20 20 20 19 19 19 20
12 13 13 13 13 13 13 13 12 11 13 14 15 16 16 17 17 18 18 18 18 17 18 19 19 20 22 21 19 20 20 21 21 21 21 22 22 22 22 21 21 21 21
14 14 14 14 14 14 14 13 12 12 13 14 14 15 16 16 17 19 19 17 17 18 18 18 19 19 19 18 18 18 19 19 20 21 23 23 22 23 22 22 22 21 21

GFSMW_con_lsi_123.txt.gz
Lid_Strength_Index
6 5 4 4 6 6 4 2 2 2 1 2 3 3 3 2 2 1 1 2 1 1 1 1 1 1 1 1 2 2 2 2 1 2 3 3 3 4 3 2 2 1 1
6 5 6 6 5 4 2 2 2 2 2 1 1 2 2 2 2 1 1 0 1 1 1 1 1 1 1 2 2 2 2 3 1 3 3 5 4 3 3 2 2 2 2
9 7 5 5 5 4 3 3 2 2 2 2 2 3 3 3 3 2 2 1 1 1 2 2 1 1 1 1 2 2 2 3 2 1 3 6 6 5 4 4 3 3 3
8 7 6 6 5 4 3 3 3 2 2 2 2 3 3 3 3 2 1 1 0 1 1 1 1 1 1 1 1 1 2 2 3 2 2 3 4 6 6 5 5 3 2
7 7 6 5 5 4 3 2 2 2 2 2 2 3 3 3 3 1 2 1 1 1 1 1 1 1 1 1 1 1 2 2 2 2 2 3 4 4 5 7 6 4 3
6 6 5 4 4 3 4 3 3 3 2 3 3 3 3 3 2 2 3 2 2 2 1 1 1 0 1 1 1 1 1 2 2 2 2 3 4 5 5 6 6 5 5
5 5 5 5 4 4 4 4 4 3 3 3 3 3 4 3 3 2 2 3 3 1 1 1 1 1 1 0 1 1 1 2 2 2 2 2 3 4 4 5 6 6 5
6 5 5 5 5 4 5 5 5 4 3 3 3 3 3 2 2 2 2 2 2 1 1 1 1 1 1 1 1 1 1 1 1 2 2 2 2 3 3 4 5 7 7
6 6 5 5 5 5 5 5 5 4 3 3 2 2 2 2 3 2 2 2 2 1 1 1 1 1 1 1 1 1 1 1 1 2 2 2 2 2 2 3 4 5 7
6 6 5 4 4 4 4 3 3 3 3 3 3 2 3 3 2 2 3 2 2 2 2 2 1 1 1 1 1 1 1 1 1 1 2 2 2 2 3 3 3 4 5
6 6 5 4 5 4 4 4 3 3 3 3 2 2 2 2 3 3 3 2 2 2 3 2 3 2 2 1 1 1 1 1 1 2 2 2 2 2 2 3 3 4 4
6 5 5 5 5 6 5 5 4 4 3 2 2 2 2 3 3 3 2 2 2 2 3 3 3 3 2 2 2 2 2 2 2 2 2 2 2 3 3 3 4 3 3
6 6 6 6 6 7 7 6 6 5 4 3 2 3 3 3 3 3 2 2 3 3 2 2 3 3 3 3 3 3 3 2 2 2 2 2 2 3 3 3 4 3 4
6 6 6 6 6 7 7 7 7 7 6 5 4 4 3 3 3 2 2 3 3 3 3 3 3 3 3 3 3 3 3 2 3 3 2 2 3 4 3 3 4 5 4
6 6 7 6 6 6 7 7 8 8 7 7 8 8 6 5 3 3 2 2 3 3 2 3 3 3 3 3 4 3 3 3 4 4 3 3 4 6 5 3 5 5 6
7 7 5 5 5 6 7 7 8 9 9 9 9 9 8 7 6 3 2 2 2 3 3 3 3 4 4 8 8 6 4 4 5 6 7 5 7 9 10 10 10 9 6
8 8 8 7 6 6 7 8 8 9 10 10 11 10 10 9 8 7 3 2 2 2 3 3 3 3 4 9 9 9 5 5 6 8 9 11 11 11 13 14 15 16 15
9 9 9 9 8 7 7 8 9 9 10 11 11 11 11 10 9 9 8 6 3 2 3 3 3 3 4 10 10 10 6 6 7 8 9 10 13 13 14 15 16 17 16
8 9 9 9 10 9 8 9 10 10 10 11 12 12 12 11 11 11 11 9 7 3 3 3 4 3 4 10 11 9 7 12 14 13 12 12 14 14 13 15 17 17 17
9 10 10 10 11 10 10 10 11 11 11 11 12 12 12 12 13 13 11 11 9 7 6 10 11 11 8 12 11 8 11 14 15 15 15 14 15 14 14 15 16 19 19
9 10 11 12 12 11 11 12 12 12 11 11 12 13 13 13 13 13 13 12 11 11 13 14 15 14 13 12 11 10 11 14 15 15 16 16 15 15 15 16 17 19 19
10 10 11 12 12 12 12 12 12 12 12 12 13 14 14 14 13 13 13 13 14 15 16 16 17 17 15 13 13 13 13 14 15 17 17 17 16 16 17 18 18 18 19
12 12 13 13 13 13 13 13 12 12 12 13 14 14 14 15 15 15 15 15 14 16 17 17 17 18 17 16 15 15 15 16 17 17 17 17 17 18 18 18 19 19 20
14 13 14 15 15 14 14 13 13 13 14 14 15 15 15 16 16 16 17 18 17 16 16 18 19 19 19 18 17 17 17 17 18 18 19 20 19 19 19 20 20 20 20
15 15 15 15 15 15 14 13 13 13 14 15 15 15 15 16 17 17 17 18 18 17 18 18 19 20 21 20 19 19 20 20 20 20 21 21 21 22 21 21 21 21 21
15 16 16 16 16 15 14 14 13 13 14 15 15 15 15 16 17 18 18 16 17 17 17 17 18 18 18 18 18 18 19 19 20 21 22 23 22 22 22 22 22 22 21

GFSMW_con_lsi_126.txt.gz
Lid_Strength_Index
5 5 5 4 5 6 2 2 2 2 1 2 3 3 3 2 2 2 2 1 1 2 2 2 2 1 1 2 2 3 2 3 1 2 2 2 2 3 2 2 2 2 1
8 7 6 5 5 5 6 2 2 2 2 1 1 2 2 2 2 2 2 2 2 1 1 1 1 1 1 2 2 2 3 3 1 3 3 5 4 4 3 3 3 2 1
9 8 8 7 6 6 7 2 2 2 2 1 2 3 3 4 3 2 2 1 1 1 1 1 2 1 1 2 2 2 2 3 2 2 3 6 6 5 4 4 3 3 3
8 8 7 7 6 6 5 3 2 2 2 1 2 3 3 3 2 2 2 2 1 1 1 1 1 1 1 2 2 2 2 2 3 3 2 3 3 6 7 4 4 3 4
9 8 8 7 6 5 3 2 2 2 2 2 2 2 3 2 3 2 3 2 1 1 1 1 2 2 1 1 1 2 2 2 3 3 2 3 3 3 5 6 5 4 3
8 8 8 8 6 5 3 3 3 2 2 2 2 2 3 3 3 3 3 2 2 2 2 1 2 1 1 1 1 1 1 2 2 1 2 3 3 4 5 6 5 5 4
6 6 5 5 4 4 3 3 3 4 3 2 2 2 3 3 3 3 3 3 2 3 2 1 1 1 1 1 1 1 1 1 2 2 2 1 2 3 3 5 5 6 6
6 6 5 5 5 4 5 5 4 4 4 4 4 3 3 3 3 3 3 3 2 2 2 2 1 1 1 1 1 1 1 1 1 2 2 2 2 2 4 4 5 7 7
6 6 6 6 6 6 6 5 5 4 4 4 4 4 4 4 3 4 3 2 2 2 1 1 1 1 1 1 1 1 1 1 1 1 2 2 2 2 2 3 4 5 7
7 7 7 6 6 6 6 5 4 4 4 3 3 3 3 3 3 3 3 2 2 2 2 2 1 1 1 1 1 1 1 1 1 1 2 2 1 2 2 3 3 4 5
7 6 6 6 6 5 6 5 5 4 3 3 3 3 3 3 3 3 3 3 2 2 2 1 2 1 2 2 2 1 1 1 1 1 1 2 2 2 2 3 3 4 4
6 6 6 6 6 6 6 6 6 5 4 2 3 3 3 3 3 3 3 3 3 2 3 2 3 2 2 2 2 2 2 2 2 2 2 2 1 2 2 3 3 4 4
7 7 7 7 7 7 7 7 7 7 5 4 2 3 4 3 3 3 3 3 3 3 4 4 4 3 4 3 3 2 2 2 1 1 2 2 2 2 2 2 3 3 4
7 8 8 8 8 8 8 8 8 8 7 7 6 6 6 3 3 2 2 3 3 4 3 4 4 3 2 3 3 3 3 3 2 2 2 1 2 2 2 3 3 4 4
8 8 8 8 8 9 8 9 10 9 9 9 8 8 7 5 4 3 3 3 3 3 4 4 4 3 3 3 3 3 3 3 3 3 2 2 3 5 4 3 4 4 5
10 9 8 8 9 9 9 8 9 10 10 11 10 10 9 8 7 6 3 3 3 3 4 5 4 3 3 8 9 6 4 3 4 4 5 5 7 7 10 10 10 5 5
10 10 11 10 9 9 8 10 10 9 9 10 11 11 11 10 9 8 7 3 3 3 4 4 4 4 4 9 10 10 4 5 5 7 9 10 9 11 13 14 14 15 14
10 10 11 11 9 9 10 10 10 10 10 10 10 12 12 11 11 10 9 8 6 3 3 3 4 4 4 9 10 10 5 6 7 8 9 12 13 12 13 14 16 16 16
11 11 11 12 11 11 11 11 11 11 11 11 11 12 12 12 12 12 12 10 9 7 3 3 4 4 4 10 11 10 7 11 13 12 12 12 14 14 12 14 16 17 17
11 12 12 12 12 12 12 12 12 12 12 12 12 12 12 13 13 13 13 12 10 9 7 10 10 12 7 12 12 9 11 14 14 15 15 15 15 15 14 14 15 18 18
12 12 13 14 13 12 12 13 13 13 12 12 12 13 13 13 13 13 12 13 12 13 14 15 15 14 14 13 12 11 11 13 14 15 16 16 15 15 15 15 16 17 19
13 13 14 14 14 13 12 13 14 13 13 13 14 14 14 14 14 14 14 13 14 15 16 16 16 16 16 15 14 14 13 13 15 16 16 15 15 14 16 17 17 17 18
15 14 15 14 14 13 13 14 13 13 13 14 14 15 15 15 15 16 16 14 14 14 15 17 17 18 17 17 16 16 16 15 16 16 15 16 16 17 17 17 18 18 19
15 15 15 15 15 14 13 13 13 13 14 14 15 15 15 15 15 15 15 16 16 15 15 15 17 18 19 18 18 18 17 17 17 18 19 19 19 19 20 20 20 20 20
15 15 16 16 16 15 14 13 13 14 15 15 15 16 16 16 16 15 16 16 16 16 18 18 18 18 19 19 18 19 19 20 20 19 20 21 21 21 21 22 21 21 21
16 17 17 16 16 15 14 14 14 14 15 15 15 16 16 16 16 16 16 14 15 15 16 17 18 18 17 17 17 17 18 18 19 20 21 22 22 22 22 22 22 21 21

GFSMW_con_lsi_129.txt.gz
Lid_Strength_Index
7 6 6 5 6 7 4 2 2 2 1 2 2 2 2 2 1 0 0 1 1 1 2 2 2 2 2 2 2 3 3 3 2 2 2 2 2 2 2 1 2 2 2
8 7 6 7 6 6 6 2 2 2 2 2 1 2 2 2 1 1 1 1 1 2 2 3 3 2 2 3 3 3 4 3 1 3 3 5 3 3 2 2 3 3 2
8 7 6 7 7 7 7 3 2 2 2 1 1 2 3 3 2 2 2 2 2 2 2 2 2 2 2 2 2 2 2 3 2 1 3 6 7 4 3 3 3 3 3
8 7 6 8 7 7 6 5 2 2 2 1 2 2 3 4 2 2 1 2 2 2 2 2 2 1 1 1 2 2 2 2 3 2 1 3 4 6 6 3 3 3 3
8 7 6 7 7 7 6 6 3 2 2 2 2 2 3 2 2 2 2 2 2 1 1 1 2 1 1 1 1 2 2 2 2 2 2 3 3 4 5 6 5 4 3
8 7 6 6 9 4 5 3 2 2 2 2 2 2 3 3 3 2 2 2 2 2 2 1 2 2 2 2 2 1 2 2 2 2 2 2 3 5 5 6 5 5 4
9 8 8 8 4 4 4 3 3 3 2 2 2 2 2 3 3 2 2 2 3 2 2 1 2 2 2 2 1 1 1 2 2 2 2 2 2 3 3 5 5 5 5
6 6 6 5 4 4 4 4 3 4 3 2 2 2 3 3 3 3 2 2 3 3 2 1 1 1 1 1 2 1 1 1 2 2 2 2 2 2 2 3 4 6 7
6 6 5 5 4 4 5 5 4 4 4 4 4 4 3 3 3 3 3 3 3 3 2 1 1 1 2 2 2 2 1 1 1 2 2 2 1 1 2 2 3 5 7
6 6 6 6 6 6 6 7 6 5 4 4 3 4 4 4 4 3 4 4 3 3 2 2 2 2 2 2 2 1 1 1 1 1 1 2 1 1 2 2 3 3 4
6 6 6 7 7 7 7 7 6 7 5 4 4 3 3 3 4 3 4 4 4 3 2 2 2 2 3 1 1 1 1 1 1 1 1 2 1 1 1 2 3 3 4
6 7 7 7 8 8 7 7 6 7 6 4 4 4 3 4 4 4 3 3 3 3 2 2 3 2 2 2 2 2 2 2 2 2 2 2 1 2 2 2 3 4 4
7 8 9 9 9 9 9 9 8 8 7 6 5 6 6 3 3 4 4 4 3 3 3 3 3 2 2 3 2 2 2 2 2 1 2 2 2 2 2 2 2 3 3
8 9 9 10 9 10 10 10 10 9 8 8 8 8 7 6 3 3 3 3 3 4 4 4 3 3 3 3 3 3 3 2 2 2 2 1 1 2 2 2 2 3 4
11 11 10 11 11 11 11 10 10 10 10 10 9 10 9 7 7 5 3 3 3 3 4 4 4 4 4 4 4 3 3 3 3 3 3 3 3 5 4 2 2 2 4
11 12 12 11 12 12 12 11 11 10 11 11 11 11 10 9 9 8 7 3 3 3 4 4 4 5 5 9 9 5 3 4 4 4 3 3 6 6 9 9 8 5 4
12 13 13 13 13 13 13 13 12 11 10 10 12 12 11 11 11 10 9 8 6 3 4 4 4 5 5 9 10 10 4 4 4 5 6 7 9 9 11 13 12 12 10
13 13 13 13 14 13 13 13 13 12 11 11 11 12 13 12 12 11 11 10 9 7 4 4 4 4 5 10 10 10 5 5 7 7 7 10 12 13 14 15 15 16 15
13 13 13 14 13 13 13 13 12 12 12 12 12 12 12 13 13 13 12 11 11 9 7 5 4 4 4 11 11 10 6 9 12 12 11 11 14 13 12 14 16 16 17
12 14 14 14 14 13 12 13 14 13 14 13 13 13 13 13 13 13 13 12 12 10 11 12 13 13 9 13 12 9 9 12 14 15 15 14 15 14 14 14 14 16 17
14 13 14 15 14 13 12 14 15 15 14 14 14 14 14 13 13 15 14 12 12 14 15 15 16 16 15 13 12 11 10 12 15 15 16 15 15 15 15 15 15 16 17
15 14 15 15 14 13 13 14 14 14 13 14 15 15 15 15 14 15 15 13 12 13 15 15 16 16 16 15 14 13 13 14 15 17 16 15 14 15 16 16 17 17 17
15 15 15 15 14 13 13 14 14 13 14 14 15 15 15 15 15 15 16 15 14 14 14 15 17 17 17 17 15 15 15 16 17 16 16 16 16 16 16 16 16 17 18
16 16 16 16 16 14 13 13 13 13 14 15 15 15 15 16 15 15 15 16 16 16 16 17 17 18 18 18 18 18 18 18 19 20 20 20 19 19 19 19 19 19 19
16 17 17 17 16 15 14 14 13 13 14 15 15 15 16 16 16 15 15 16 15 15 16 17 17 18 18 17 17 18 19 20 20 20 20 20 21 20 20 20 20 20 20
16 17 17 17 17 16 15 14 14 14 15 15 16 16 16 16 17 16 16 14 14 14 14 14 16 17 16 16 16 17 17 18 18 20 21 21 21 21 21 21 21 21 21

GFSMW_con_lsi_132.txt.gz
Lid_Strength_Index
8 7 7 7 7 7 6 3 2 2 1 2 2 2 2 1 1 1 1 1 2 1 2 2 2 1 1 2 2 4 4 3 2 2 3 3 2 1 1 1 1 2 1
9 8 8 8 7 6 6 6 2 2 2 1 1 1 1 1 1 0 1 1 1 1 1 2 2 2 1 2 3 3 4 3 2 3 3 5 3 2 1 1 1 2 2
9 9 8 8 8 7 6 6 4 2 2 1 1 2 1 1 2 1 1 1 1 1 1 2 2 2 1 2 3 3 3 3 2 2 3 6 6 4 2 2 2 2 2
7 8 8 8 8 8 6 5 5 2 2 1 2 2 3 3 2 2 1 1 1 1 1 2 2 2 2 2 3 3 3 3 3 2 2 2 4 5 6 3 2 2 2
7 7 8 7 7 7 7 6 6 3 2 2 2 2 3 2 2 2 2 1 1 1 1 2 2 2 2 2 2 3 3 2 2 2 2 3 3 3 5 6 4 3 2
7 7 6 7 7 8 5 6 6 3 2 2 2 2 3 3 3 2 2 2 2 1 2 2 2 2 1 2 2 2 2 2 2 2 2 3 3 4 5 5 4 4 3
7 8 7 8 9 6 4 3 5 3 2 2 2 2 2 2 2 2 2 2 2 2 2 2 2 2 1 1 1 2 2 2 2 3 2 2 2 3 3 4 4 4 4
6 6 5 5 5 5 5 4 3 3 3 2 2 2 2 2 2 2 2 2 2 1 1 2 2 2 1 1 2 2 2 2 2 2 2 2 2 2 3 3 4 6 5
6 6 5 6 4 4 4 3 3 3 3 2 2 2 2 2 2 2 2 1 2 2 2 2 2 2 1 1 2 2 2 2 1 1 1 2 1 1 1 2 3 4 6
7 7 7 7 6 6 6 5 4 5 5 3 2 2 2 3 2 2 2 2 1 2 2 2 2 2 2 2 2 2 2 2 1 1 1 1 1 1 1 2 3 3 3
7 8 9 8 8 9 9 8 6 6 6 4 3 3 3 3 3 3 3 3 3 3 3 2 2 2 2 2 2 2 2 2 1 1 1 1 1 1 1 2 2 3 3
9 9 10 9 9 10 10 10 10 9 8 6 5 5 3 2 2 3 3 4 4 4 3 3 3 2 2 2 2 2 2 2 2 2 2 2 2 2 1 2 2 2 2
11 11 12 12 11 10 10 10 11 10 9 8 8 7 7 6 3 3 3 3 3 3 3 3 3 3 3 3 3 2 2 1 1 1 2 2 1 2 2 1 2 2 2
13 13 13 14 13 12 12 11 11 11 10 10 10 9 9 8 6 3 3 3 3 3 3 3 3 3 3 3 2 2 3 2 2 2 2 2 2 2 2 2 2 2 3
13 14 14 14 14 14 13 12 12 11 11 11 11 11 10 9 9 8 7 3 3 3 3 3 4 4 4 4 3 4 3 3 3 3 3 2 3 5 5 2 2 2 2
14 14 14 14 14 14 14 14 13 12 12 12 12 12 11 10 10 9 8 8 5 4 4 4 5 5 5 9 10 6 4 4 4 4 4 4 6 6 9 9 9 5 2
14 14 14 15 15 14 14 14 14 12 13 13 13 13 12 12 12 11 10 10 9 7 4 4 5 5 5 10 10 10 4 4 4 5 5 6 7 9 8 9 12 12 11
14 14 14 14 14 14 14 14 14 14 14 14 13 13 13 13 13 13 12 12 10 9 8 4 4 5 6 10 10 11 5 5 5 6 7 8 9 12 11 13 15 15 15
14 14 14 14 14 14 13 14 15 15 15 15 14 13 13 13 14 14 14 13 11 10 10 11 9 7 6 13 12 10 6 7 10 11 12 10 12 12 12 14 15 16 16
14 15 14 14 14 14 13 14 15 15 15 14 15 14 14 13 14 14 14 13 12 12 12 14 14 15 14 13 13 11 8 11 14 15 14 14 14 14 13 13 14 15 16
14 14 14 14 14 13 13 14 15 15 14 14 14 14 14 14 14 14 13 13 12 13 14 15 15 15 15 15 13 12 9 12 14 15 15 15 14 14 14 14 14 16 16
15 15 15 15 14 14 14 14 15 15 14 15 15 15 15 15 15 15 14 14 13 13 14 15 15 16 16 15 15 13 13 13 14 16 15 15 15 15 15 16 15 16 16
16 15 16 16 15 14 14 15 14 14 15 15 16 16 15 15 15 16 16 15 15 15 15 15 16 17 17 17 17 15 15 15 16 16 15 16 17 17 17 17 17 17 17
17 16 17 17 17 15 14 14 14 14 14 15 15 15 16 16 15 15 15 16 16 16 17 17 17 17 17 17 18 18 18 18 19 19 19 19 19 19 20 19 19 19 18
17 17 17 17 17 16 15 15 15 14 15 15 16 16 16 16 16 15 15 16 15 16 17 17 16 17 17 17 16 17 18 19 18 18 19 19 20 20 21 20 20 19 20
17 17 17 17 17 17 16 16 15 16 15 16 16 16 16 17 17 16 16 15 15 14 14 14 15 15 14 15 15 16 16 17 17 19 21 21 21 21 21 21 21 20 20

GFSMW_con_lsi_135.txt.gz
Lid_Strength_Index
6 5 5 4 4 4 4 4 4 1 1 1 2 2 2 1 1 0 -0 0 0 -0 -0 -0 -0 0 1 1 0 0 1 1 0 1 2 1 0 0 -0 -1 -1 0 0
4 3 3 4 4 4 3 3 3 3 1 1 1 1 1 1 1 0 0 -0 0 0 -0 -0 0 0 0 0 0 0 1 1 1 2 2 5 3 1 0 -0 -0 0 0
5 4 3 3 3 3 4 4 3 2 1 1 1 1 1 1 1 1 1 0 -0 0 1 -0 0 0 0 1 1 0 1 2 1 0 2 5 6 3 1 1 0 0 1
4 4 4 3 3 3 3 3 3 1 1 1 1 2 3 3 2 1 1 1 0 0 0 1 -0 0 0 1 1 0 1 1 2 1 1 0 1 4 5 2 1 0 0
5 5 4 3 3 3 3 3 3 2 0 1 1 2 2 2 1 1 1 1 1 0 0 1 -0 0 0 1 1 1 1 1 1 2 2 2 1 2 4 5 4 1 1
5 5 4 3 3 2 2 3 3 2 1 1 1 2 2 2 2 2 2 2 1 1 1 1 0 0 0 1 1 1 1 1 1 1 1 2 3 3 3 4 3 3 2
5 5 5 5 4 3 3 3 4 3 1 1 2 2 2 2 2 2 2 2 2 2 1 2 1 0 0 1 2 2 1 0 1 1 1 1 1 1 2 2 3 4 2
8 7 7 6 6 5 3 2 3 2 1 2 2 1 1 2 2 2 1 2 2 1 1 2 1 0 1 1 1 2 1 0 1 1 1 1 1 0 1 2 3 4 5
9 9 9 9 7 8 6 4 3 2 2 2 2 2 1 2 2 1 1 1 1 1 1 1 2 1 1 1 1 1 2 1 1 1 1 1 1 0 0 1 1 3 6
10 11 11 11 10 8 9 8 6 4 3 2 2 2 1 1 1 1 1 1 1 1 1 1 2 2 1 2 1 1 1 2 2 2 2 1 1 1 0 1 1 1 3
12 12 12 12 12 11 10 11 10 8 8 7 4 2 2 1 1 1 1 1 1 1 1 1 1 2 2 2 1 1 2 2 2 2 1 1 1 1 1 1 1 1 2
12 12 13 13 14 13 12 11 10 9 8 7 7 5 4 2 2 2 2 2 2 2 1 2 2 2 2 2 2 2 2 2 2 2 2 2 1 1 1 1 1 2 2
13 13 14 15 14 14 13 12 11 10 10 9 9 8 7 7 5 2 1 1 1 2 2 2 2 2 2 1 2 2 2 2 2 2 1 1 1 2 1 1 2 2 1
13 14 14 15 15 14 14 13 12 11 11 11 11 11 9 9 8 6 4 2 2 1 1 2 2 2 2 2 2 2 2 1 1 1 1 1 1 1 1 1 2 1 2
13 14 15 16 15 14 14 14 13 13 13 12 12 13 11 10 10 8 7 5 2 2 2 2 2 2 2 2 2 1 1 1 1 1 2 1 3 5 4 2 2 2 2
14 14 15 15 15 15 14 14 14 14 13 14 14 13 12 11 11 10 9 9 7 3 3 3 3 3 4 10 9 5 2 2 2 2 3 2 6 5 9 10 10 6 2
14 15 15 15 15 15 14 14 14 14 13 14 14 14 13 13 12 11 11 10 9 7 6 4 4 4 3 10 10 9 2 1 1 3 4 4 5 6 5 8 11 11 11
14 15 14 14 14 14 14 14 14 14 14 14 14 14 14 14 13 13 12 12 10 10 9 9 8 4 9 11 11 11 2 2 3 4 4 4 6 7 9 9 10 11 12
13 13 14 13 13 14 13 14 14 14 14 15 15 14 14 13 13 14 14 13 12 11 12 12 13 12 11 14 13 11 5 5 6 8 10 9 9 12 11 11 12 13 14
13 14 13 13 13 13 13 14 15 15 15 15 15 15 14 14 14 13 13 12 12 12 13 14 14 15 14 14 14 12 6 8 12 13 14 14 12 13 13 11 12 13 14
14 13 14 14 14 13 13 14 14 16 15 15 15 14 15 14 14 14 12 12 12 12 13 14 14 15 16 15 14 13 9 11 13 14 14 14 14 13 13 13 12 14 15
15 14 15 15 14 14 14 15 15 14 14 14 14 14 14 14 13 14 13 13 13 13 13 13 15 15 16 15 15 14 14 13 14 15 16 15 14 14 15 15 15 15 15
15 15 15 15 15 14 14 15 15 14 14 15 15 15 15 14 14 14 15 14 14 14 14 15 15 15 15 16 16 16 16 16 17 16 16 17 17 16 17 16 17 16 16
15 15 15 15 16 15 14 15 15 14 14 15 15 15 15 15 14 14 14 15 16 16 16 16 16 16 16 16 15 16 16 17 18 18 18 18 18 18 19 18 18 18 18
15 15 16 16 16 15 15 15 14 14 14 15 15 15 15 15 15 15 15 16 15 15 16 16 16 16 17 16 15 15 16 17 18 18 18 19 20 20 20 20 19 18 19
16 16 16 16 16 15 15 15 14 14 15 15 15 16 15 16 15 15 15 15 16 16 15 15 15 15 15 15 14 15 16 16 17 18 19 20 20 20 20 20 20 19 20